     2              OBSERVATION DATA    GPS                 RINEX VERSION / TYPE
teqc 1998Mar9 19981006 18:58:05UTC                          PGM / RUN BY / DATE
                                                            COMMENT
Original Marker Name: PEAR                                  COMMENT
Campaign Name: HPGN 1998                                    COMMENT
4-Character Station Name: PEAR                              COMMENT
6-Character Antenna Code: TRMCMP                            COMMENT
Vertical Measurement Point: BPA                             COMMENT
Vertical Offset to Rinex Ref. Point: 0.0000                 COMMENT
Radial Measurement Point: RRP                               COMMENT
Radial Offset to Rinex Ref. Point: 0.0000                   COMMENT
Antenna Height from Field Measurement: 2.0000 m             COMMENT
Original XYZ: -2464072.0172 -4649427.5798 3593907.8750      COMMENT
New XYZ position is based on association with SCEC monument COMMENT
E1F2D3B2+0011. Position of that monument is believed to be  COMMENT
valid to within 1 m horizontally; vertical accuracy         COMMENT
should be no worse than 3-times this value.                 COMMENT
                                                            COMMENT
Revised Rinex header created by UCSD GPS archive for        COMMENT
GSAC on 14-Apr-1999 (1999:104) 20:53:57 GMT                 COMMENT
For assistance contact dagnew@ucsd.edu or hjohnson@ucsd.edu COMMENT
                                                            COMMENT
PEARBLOSSOM NCMN 7254                                       MARKER NAME
unknown CALIF DEPT TRANSPORTATION                           OBSERVER / AGENCY
4872 TRIMBLE 4000 SSE NP 7.25; SP 3.07                      REC # / TYPE / VERS
728 TR GEOD L1/L2 GP                                        ANT # / TYPE
 -2464071.0000 -4649425.0000  3593906.0000                  APPROX POSITION XYZ
        2.0000        0.0000        0.0000                  ANTENNA: DELTA H/E/N
     1     1     0                                          WAVELENGTH FACT L1/2
     7    L1    L2    C1    P2    P1    D1    D2            # / TYPES OF OBSERV
     0                                                      INTERVAL
  1998     6    17    21    15   30.000000                  TIME OF FIRST OBS
  1998     6    19     1     8    0.000000                  TIME OF LAST OBS
                                                            END OF HEADER
 98  6 17 21 15 30.0000000  0  7G 6G10G21G17G22G23G26
     11479.76657                  20586216.2504
     -2297.9374
     24900.88254                  24857866.2894
     -4981.5314
     -8088.66953                  24884167.5084
      1617.3754
      9375.38757                  21140424.4384
      -853.9374
      3743.83354                  23763341.7814
      -750.4844
     -3302.60356                  21961759.3444
       659.4064
      2536.68156                  22401297.8524
      -509.1874
 98  6 17 21 16  0.0000000  0  8G 6G10G21G17G22G23G26G30
     80595.79447                  20599368.9384
     -2310.5944
    174288.87644                  24886293.8834
     -4978.4374
    -56618.09844                  24874933.3284
      1616.9844      35019.99947
      2666.96957                  21145304.5864   21145308.8754
      -856.4844
      -667.3904      26432.95544  23767659.8134
      -763.0944     -22974.10746
     -1522.77756                  21958015.8984   21958021.1374
       651.1094        507.3584
     18005.51246        -1.14255  22404241.7194   22404246.0204
      -522.8914
      -407.4474     145363.57644  24488852.9384
     -5010.9064
 98  6 17 21 16 30.0000000  0  8G 6G10G21G17G22G23G26G30
    150105.56947     52360.12456  20612596.1724   20612599.3954
     -2323.3594      -1810.4104
    323597.96943     38769.59752  24914705.5784   24914710.4654
     -4975.7504      -3877.2084
   -105109.51344                  24865705.4694
      1615.4384
     60763.75547     22727.02047  21150203.3914   21150207.7734
      -859.9224       -670.0694
     49532.27544      4228.04853  23772055.0164   23772059.8444
      -777.0624       -605.5034
    -42373.95346    -16639.49146  21954324.1564   21954329.4534
       642.1564        500.3814
     33902.21146     12385.92545  22407265.9774   22407270.6644
      -537.0944
      -418.5154     295630.49845  24517448.6094
     -5007.2194
 98  6 17 21 17  0.0000000  0  8G 6G10G21G17G22G23G26G30
    220004.15847    106826.53846  20625897.2664   20625900.3594
     -2336.6724      -1820.7834
    472841.64743    155063.33541  24943105.8914   24943111.8674
     -4973.9064      -3875.7714
   -153539.55644    -23894.56153  24856489.3834   24856498.5514
      1613.1884       1257.0294
     86610.25047     42867.14947  21155122.2814   21155126.5474
      -863.2664       -672.6754
     73060.68444     22561.85244  23776533.0004   23776539.1644
      -791.6414       -616.8634
    -61497.27046    -31540.73346  21950685.2504   21950690.1724
       632.6724        492.9914
     50243.78146     25119.63645  22410376.3914   22410380.5394
      -552.5624       -430.5684
    445802.81345     77998.56753  24546025.0084   24546034.4344
     -5004.4064      -3899.5374
 98  6 17 21 17 30.0000000  0  8G 6G10G21G17G22G23G26G30
    290319.61047    161617.77046  20639277.8364   20639280.7894
     -2350.9064      -1831.8754
    622044.14643    271324.91341  24971497.4774   24971503.4774
     -4972.7974      -3874.9074
   -201884.60644    -61565.80943  24847289.4774   24847299.6414
      1610.0314       1254.5704
    112571.52647     63096.72047  21160062.2034   21160066.2814
      -867.2814       -675.8044
     97057.55144     41260.70944  23781098.3754   23781104.5394
      -808.0474       -629.6474
    -80318.18646    -46206.34146  21947103.5784   21947108.6644
       622.2974        484.9074
     67072.48646     38232.95745  22413578.5634   22413583.2734
      -569.0004       -443.3774
    595909.69145    194964.63544  24574589.5394   24574598.7194
     -5002.5624      -3898.1014
 98  6 17 21 18  0.0000000  0  8G 6G10G21G17G22G23G26G30
    361063.13247    216742.57046  20652740.0084   20652742.9964
     -2365.0004      -1842.8574
    771226.40643    387570.77841  24999887.4454   24999894.0554
     -4972.4844      -3874.6634
   -250134.56644    -99162.91643  24838107.2274   24838117.4614
      1606.7664       1252.0254
    138654.26847     83420.94047  21165025.5474   21165029.6024
      -871.2814       -678.9204
    121552.07645     60347.33244  23785760.1334   23785766.9184
      -824.8284       -642.7234
    -98820.35046    -60623.54446  21943582.8444   21943587.7194
       611.3134        476.3474
     84389.43346     51726.70945  22416873.8524   22416878.5394
      -585.3444       -456.1124
    745957.04745    311884.33644  24603142.7734   24603152.1294
     -5000.2504      -3896.2994
 98  6 17 21 18 30.0010000  0  8G 6G10G21G17G22G23G26G30
    432235.31747    272201.39546  20666283.6774   20666286.6534
     -2379.4064      -1854.0834
    920410.82744    503818.34942  25028277.0214   25028284.3024
     -4972.6564      -3874.7974
   -298279.02144   -136677.80243  24828945.5364   24828954.5284
      1603.0944       1249.1644
    164870.38347    103849.08747  21170014.3964   21170018.5094
      -876.1094       -682.6834
    146559.66445     79833.72844  23790519.6774   23790525.2314
      -841.9064       -656.0314
   -116982.17846    -74775.57346  21940126.5214   21940131.5604
       599.7664        467.3504
    102212.46146     65614.81545  22420265.0524   22420268.7084
      -602.6564       -469.6024
    895935.74645    428750.54744  24631682.8174   24631691.9034
     -4997.7194      -3894.3264
 98  6 17 21 19  0.0010000  0  8G 6G10G21G17G22G23G26G30
    503847.87447    328003.36246  20679911.3414   20679914.6464
     -2394.8444      -1866.1124
   1069605.86543    620074.13741  25056666.4274   25056673.1654
     -4973.5944      -3875.5284
   -346310.28344   -174104.50443  24819804.8334   24819811.6304
      1599.0474       1246.0114
    191234.62647    124392.66647  21175031.2944   21175035.8064
      -881.6724       -687.0174
    172071.65345     99713.18244  23795373.5604   23795379.5364
      -858.8594       -669.2414
   -134789.48546    -88651.36046  21936738.0284   21936742.6694
       587.3134        457.6464
    120559.61146     79911.33845  22423756.9664   22423761.4894
      -620.4374       -483.4584
   1045831.38045    545552.04844  24660207.8564   24660216.8024
     -4995.2814      -3892.4274
 98  6 17 21 19 30.0010000  0  8G 6G10G21G17G22G23G26G30
    575923.05747    384165.81346  20693626.6924   20693629.8454
     -2410.6414      -1878.4214
   1218827.55543    736350.79141  25085063.4194   25085069.9934
     -4974.9534      -3876.5874
   -394213.86443   -211431.80143  24810688.8564   24810697.0284
      1593.9844       1242.0664
    217779.27647    145076.82347  21180082.5524   21180086.8994
      -888.4844       -692.3254
    198093.31745    119989.82544  23800326.0754   23800331.7594
      -876.2814       -682.8174
   -152217.00746   -102231.20646  21933421.6304   21933427.0214
       574.0164        447.2854
    139438.78846     94622.41045  22427349.0134   22427353.1384
      -638.6414       -497.6424
   1195653.64645    662296.32143  24688718.9974   24688729.3024
     -4993.1094      -3890.7354
 98  6 17 21 20  0.0010000  0  8G 6G10G21G17G22G23G26G30
    648470.30147    440696.10046  20707432.2314   20707435.4664
     -2426.3754      -1890.6824
   1368077.68443    852649.47441  25113463.9744   25113472.3924
     -4975.3284      -3876.8794
   -441972.48243   -248646.02643  24801601.1924   24801609.9504
      1589.4694       1238.5474
    244524.04247    165916.90747  21185171.9194   21185176.3604
      -894.8754       -697.3054
    224615.12545    140656.11744  23805372.5364   23805377.1534
      -892.2504       -695.2604
   -169247.68046   -115501.82746  21930180.7784   21930186.1574
       560.9224        437.0824
    158856.57546    109753.19245  22431044.1614   22431049.3534
      -656.4694       -511.5344
   1345392.70545    778975.77843  24717212.7474   24717220.2984
     -4989.9694      -3888.2874
 98  6 17 21 20 30.0010000  0  7G 6G21G17G22G23G26G30
    721504.49547    497605.84246  20721329.9584   20721333.2044
     -2442.4224      -1903.1864
   -489585.37543   -285746.75843  24792540.5524   24792548.6424
      1584.9064       1234.9924
    271467.30047    186911.66647  21190299.1304   21190303.2554
      -901.2034       -702.2364
    251619.54745    161698.55344  23810511.1464   23810513.9584
      -907.7974       -707.3744
   -185885.76146   -128466.51546  21927014.7784   21927019.6064
       548.5634        427.4514
    178820.03746    125309.16245  22434842.6614   22434846.9744
      -674.2034       -525.3534
   1495050.65344    895592.04442  24745691.2714   24745699.7714
     -4987.1254      -3886.0714
 98  6 17 21 21  0.0010000  0  7G 6G21G17G22G23G26G30
    795024.40447    554894.05946  20735320.3884   20735323.4934
     -2458.2034      -1915.4834
   -537052.66244   -322734.04443  24783507.6614   24783515.8564
      1580.2664       1231.3764
    298607.38447    208059.79747  21195463.3334   21195467.5994
      -907.4224       -707.0824
    279096.91945    183109.43744  23815740.2864   23815745.7474
      -923.5624       -719.6594
   -202148.45046   -141138.69346  21923919.7944   21923924.4584
       536.3914        417.9674
    199315.60446    141279.76245  22438743.2634   22438747.6224
      -691.5004       -538.8314
   1644637.54444   1012152.88343  24774157.6384   24774165.2354
     -4984.6724      -3884.1604
 98  6 17 21 21 30.0010000  0  7G 6G21G17G22G23G26G30
    869017.99947    612551.37946  20749400.9354   20749404.0054
     -2474.4694      -1928.1574
   -584375.69944   -359608.89642  24774501.8804   24774510.4034
      1575.0784       1227.3344
    325930.83747    229350.81747  21200663.0754   21200667.2714
      -913.7664       -712.0254
    307061.71345    204900.20444  23821062.2004   23821068.3994
      -940.4374       -732.8084
   -218047.55346   -153527.55346  21920894.4814   21920899.6034
       523.9384        408.2634
    220341.62946    157663.72145  22442744.3644   22442748.4194
      -709.9844       -553.2354
   1794154.55444   1128659.35142  24802610.3494   24802615.7744
     -4982.6874      -3882.6144
 98  6 17 21 22  0.0010000  0  7G 6G21G17G22G23G26G30
    943494.73247    670585.17246  20763573.4034   20763576.4384
     -2490.5004      -1940.6494
   -631564.76743   -396379.36943  24765522.1534   24765528.9504
      1571.0474       1224.1924
    353427.73547    250776.98347  21205895.3254   21205899.4274
      -919.0944       -716.1774
    335521.85245    227076.90644  23826477.9274   23826483.6574
      -956.8444       -745.5934
   -233591.23446   -165639.47046  21917936.3964   21917941.3064
       512.5314        399.3754
    241909.55046    174469.92445  22446848.4814   22446852.9584
      -727.7194       -567.0544
   1943594.83243   1245105.96242  24831048.1854   24831058.7004
     -4979.8754      -3880.4224
 98  6 17 21 22 30.0010000  0  7G 6G21G17G22G23G26G30
   1018434.56847    728979.82746  20777834.0444   20777837.3254
     -2505.3914      -1952.2524
   -678639.93644   -433061.11442  24756564.7244   24756570.9234
      1567.3914       1221.3434
    381072.51147    272318.37847  21211155.9814   21211160.4934
      -923.9534       -719.9634
    364470.44345    249634.25844  23831986.2634   23831991.5244
      -973.0164       -758.1944
   -248806.38346   -177495.36246  21915041.0604   21915045.8294
       501.8284        391.0354
    264000.97346    191684.04545  22451052.5054   22451057.1814
      -745.0784       -580.5804
   2092939.70443   1361478.21642  24859466.8174   24859476.5834
     -4976.2974      -3877.6344
 98  6 17 21 23  0.0010000  0  7G 6G21G17G22G23G26G30
   1093832.01847    787731.05546  20792181.4584   20792184.6464
     -2520.7504      -1964.2214
   -725601.06344   -469653.99142  24747627.7314   24747636.1494
      1563.8594       1218.5924
    408875.58247    293983.11147  21216446.8334   21216451.0994
      -929.0944       -723.9694
    393920.77845    272582.55744  23837590.3104   23837595.0674
      -989.9534       -771.3924
   -263681.31246   -189086.14746  21912210.5134   21912215.1064
       490.2504        382.0134
    286625.91046    209313.89245  22455358.0214   22455362.5564
      -762.8754       -594.4484
   2242182.92543   1477771.35742  24887867.4664   24887875.9544
     -4972.7194      -3874.8464
 98  6 17 21 23 30.0010000  0  7G 6G21G17G22G23G26G30
   1169689.00847    846840.36546  20806616.7864   20806619.9274
     -2536.0164      -1976.1164
   -772467.58744   -506173.17243  24738709.2554   24738717.8964
      1561.0004       1216.3644
    436820.06347    315758.04847  21221764.5604   21221768.6494
      -933.5314       -727.4274
    423866.54345    295916.90744  23843289.4034   23843294.8294
     -1005.9374       -783.8474
   -278210.94846   -200407.87846  21909445.2084   21909449.9894
       478.7504        373.0524
    309780.56146    227356.50245  22459764.2634   22459768.7864
      -780.4534       -608.1454
   2391303.62344   1593968.89642  24916244.9584   24916255.3924
     -4968.2664      -3871.3764
 98  6 17 21 24  0.0010000  0  7G 6G21G17G22G23G26G30
   1246009.44747    906310.80946  20821139.9354   20821143.3214
     -2551.5784      -1988.2434
   -819241.06744   -542619.82843  24729808.2714   24729814.6464
      1557.5004       1213.6364
    464905.44947    337642.77146  21227108.9664   21227113.2674
      -938.3444       -731.1774
    454298.96945    319630.49044  23849080.4894   23849086.5604
     -1022.4534       -796.7174
   -292386.63046   -211453.79846  21906747.8564   21906752.2984
       466.6564        363.6284
    333465.04846    245811.98145  22464271.0754   22464275.5754
      -798.0784       -621.8794
   2540297.88443   1710067.95642  24944596.9974   24944607.5604
     -4964.3914      -3868.3564
 98  6 17 21 24 30.0010000  0  7G 6G21G17G22G23G26G30
   1322774.10247    966127.40146  20835747.9194   20835751.1654
     -2566.3594      -1999.7614
   -865917.19445   -578990.69843  24720925.8804   24720933.4424
      1553.9844       1210.8974
    493119.15447    359627.49046  21232477.9584   21232482.3414
      -942.8914       -734.7204
    485206.74745    343714.45744  23854961.7244   23854967.8884
     -1038.3594       -809.1114
   -306208.19546   -222223.77846  21904117.3964   21904122.4464
       454.4534        354.1194
    357662.07946    264666.82945  22468875.6534   22468880.3294
      -815.3914       -635.3694
   2689169.37445   1826071.33343  24972928.0134   24972935.7744
     -4960.7194      -3865.4954
 98  6 17 21 25  0.0010000  0  7G 6G21G17G22G23G26G30
   1399993.06147   1026297.99946  20850442.0444   20850445.3254
     -2581.5784      -2011.6194
   -912477.01745   -615270.93343  24712065.5134   24712074.1424
      1549.8754       1207.6954
    521477.64447    381725.03146  21237874.3724   21237878.8024
      -947.5944       -738.3854
    516602.22445    368178.44044  23860936.2554   23860941.5174
     -1054.6564       -821.8104
   -319650.78846   -232698.46046  21901559.4274   21901564.4194
       441.7504        344.2214
    382390.28546    283935.58045  22473581.0604   22473585.6184
      -833.1414       -649.2004
   2837950.16844   1942004.07743  25001239.8724   25001249.1814
     -4957.9224      -3863.3164
 98  6 17 21 25 30.0010000  0  7G 6G21G17G22G23G26G30
   1477669.31647   1086824.92746  20865223.3564   20865226.7784
     -2595.9534      -2022.8214
   -958899.95444   -651444.46543  24703230.9744   24703238.0564
      1545.7344       1204.4684
    549978.78947    403933.73146  21243297.9504   21243302.4384
      -951.7974       -741.6604
    548480.13045    393018.37644  23867002.4584   23867007.6034
     -1069.6874       -833.5234
   -332715.03646   -242878.32746  21899073.5754   21899078.3454
       430.0474        335.1014
    407656.36546    303623.46845  22478388.8884   22478393.2474
      -850.5164       -662.7394
   2986648.55643   2057872.59942  25029535.6854   25029546.9504
     -4954.4844      -3860.6374
 98  6 17 21 26  0.0010000  0  7G 6G21G17G22G23G26G30
   1555772.54947   1147684.55746  20880086.1064   20880089.6104
     -2610.8914      -2034.4604
  -1005189.21044   -687513.84643  24694423.1854   24694432.1534
      1540.1094       1200.0854
    578617.21147    426249.38746  21248747.4894   21248751.9894
      -957.3914       -746.0194
    580815.23045    418214.52844  23873155.4424   23873161.0794
     -1085.8914       -846.1494
   -345433.42546   -252788.69246  21896653.0754   21896657.9504
       417.8444        325.5934
    433446.42446    323719.63845  22483296.9974   22483301.0994
      -868.7504       -676.9484
   3135243.45044   2173660.46543  25057813.5214   25057822.0794
     -4951.9224      -3858.6404
 98  6 17 21 26 30.0010000  0  7G 6G21G17G22G23G26G30
   1634319.53947   1208889.97946  20895033.0754   20895036.7674
     -2626.0474      -2046.2704
  -1051310.46644   -723452.33243  24685646.0284   24685654.6694
      1534.2664       1195.5324
    607423.52047    448695.87546  21254229.0364   21254233.4544
      -963.6724       -750.9134
    613627.79845    443782.75645  23879400.1064   23879405.8604
     -1102.2344       -858.8844
   -357791.43546   -262418.26146  21894301.1694   21894306.2204
       405.7034        316.1324
    459780.00746    344239.34445  22488307.9504   22488312.6734
      -887.2814       -691.3884
   3283754.95645   2289383.36843  25086075.4354   25086085.5634
     -4949.1414      -3856.4734
 98  6 17 21 27  0.0010000  0  7G 6G21G17G22G23G26G30
   1713309.42847   1270440.52346  20910064.5214   20910068.2594
     -2640.1254      -2057.2404
  -1097273.92244   -759267.89743  24676899.3174   24676908.2744
      1529.8594       1192.0984
    636407.80847    471281.04646  21259744.7474   21259749.2004
      -968.7034       -754.8344
    646924.11345    469727.94944  23885735.3724   23885740.9854
     -1117.5474       -870.8164
   -369808.18746   -271781.90546  21892014.9894   21892020.2744
       395.4534        308.1454
    486651.53246    365178.22045  22493421.4274   22493425.8924
      -904.1564       -704.5374
   3432156.96344   2405020.90642  25114315.7244   25114326.7784
     -4944.2664      -3852.6754
 98  6 17 21 27 30.0010000  0  7G 6G21G17G22G23G26G30
   1792747.24847   1332340.09246  20925180.7244   20925184.7904
     -2655.3284      -2069.0874
  -1143091.78843   -794969.91943  24668179.8884   24668188.0134
      1525.0634       1188.3604
    665565.45047    494001.30046  21265293.3884   21265297.7124
      -974.7664       -759.5584
    680699.66145    496046.51844  23892162.7634   23892168.1064
     -1133.8444       -883.5154
   -381505.30046   -280896.48746  21889788.4974   21889793.4424
       384.7504        299.8054
    514044.02146    386523.03545  22498633.9974   22498638.3214
      -921.6254       -718.1494
   3580426.35142   2520555.06842  25142528.4354   25142543.6614
     -4939.9844      -3849.3384
 98  6 17 21 28  0.0010000  0  7G 6G21G17G22G23G26G30
   1872644.77447   1394597.86946  20940384.8804   20940388.7474
     -2671.4844      -2081.6764
  -1188768.71343   -830562.17243  24659487.9814   24659496.0484
      1519.9694       1184.3914
    694905.76147    516863.88746  21270876.6304   21270881.0484
      -981.3914       -764.7204
    714975.03545    522754.60544  23898684.9504   23898690.5634
     -1151.3124       -897.1274
   -392875.69646   -289756.48846  21887625.0994   21887629.8334
       372.9224        290.5884
    541959.08846    408275.06245  22503945.7314   22503950.1144
      -939.4694       -732.0544
   3728566.41143   2635988.51942  25170719.7084   25170730.9744
     -4936.2814      -3846.4534
 98  6 17 21 28 30.0010000  0  7G 6G21G17G22G23G26G30
   1953030.22847   1457235.85346  20955681.9504   20955685.8294
     -2687.9064      -2094.4724
  -1234310.84144   -866049.37743  24650821.5054   24650830.0284
      1515.9224       1181.2384
    724437.66347    539875.76546  21276496.2244   21276500.6304
      -987.7504       -769.6754
    749762.21445    549861.50044  23905304.8564   23905310.7394
     -1168.2814       -910.3494
   -403889.67346   -298338.75546  21885529.0604   21885534.2044
       360.8754        281.2014
    570398.66146    430435.78745  22509357.7784   22509362.4194
      -956.8594       -745.6054
   3876589.10242   2751330.51842  25198887.3254   25198898.1104
     -4932.2504      -3843.3124
 98  6 17 21 29  0.0010000  0  7G 6G21G17G22G23G26G30
   2033921.66847   1520268.10246  20971074.9274   20971078.8534
     -2705.0474      -2107.8294
  -1279722.04144   -901434.56743  24642180.0134   24642187.5404
      1511.1884       1177.5494
    754160.81647    563036.67746  21282152.1854   21282156.5214
      -993.9374       -774.4974
    785066.29145    577371.15745  23912022.9974   23912028.4464
     -1185.4224       -923.7054
   -414524.19246   -306625.34846  21883505.3254   21883510.3174
       347.7344        270.9624
    599375.00646    453014.78245  22514871.7944   22514876.3994
      -975.2504       -759.9354
   4024506.19442   2866590.14741  25227035.7714   25227054.6534
     -4929.1254      -3840.8774
 98  6 17 21 29 30.0010000  0  7G 6G21G17G22G23G26G30
   2115318.11547   1583693.88646  20986563.8564   20986567.7474
     -2721.0784      -2120.3214
  -1324997.27344   -936713.81244  24633564.1144   24633572.5214
      1507.2664       1174.4934
    784062.38447    586336.61247  21287842.3644   21287846.6064
      -999.2974       -778.6734
    820874.15045    605273.36545  23918837.5284   23918843.0954
     -1201.5004       -936.2344
   -424762.60946   -314603.28246  21881557.1614   21881561.9544
       334.9534        261.0024
    628909.06546    476028.35445  22520491.9114   22520496.4584
      -993.5784       -774.2174
   4172321.65642   2981770.59642  25255165.9814   25255180.4114
     -4924.9534      -3837.6264
 98  6 17 21 30  0.0010000  0  7G 6G21G17G22G23G26G30
   2197203.91147   1647500.97046  21002146.2164   21002150.1424
     -2737.9224      -2133.4464
  -1370132.98245   -971884.33843  24624975.4354   24624983.0914
      1501.7344       1170.1834
    814135.47947    609770.20347  21293565.0604   21293569.2434
     -1005.5314       -783.5314
    857175.91545    633560.45444  23925745.3884   23925750.9074
     -1218.5314       -949.5054
   -434594.28146   -322264.27546  21879685.9504   21879691.2124
       320.4384        249.6924
    659009.50946                  22526219.8494
     -1013.1254
   4320022.14842   3096861.38541  25283272.3884   25283287.2984
     -4921.7034      -3835.0934
 98  6 17 21 30 30.0010000  0  7G 6G21G17G22G23G26G30
   2279559.22647   1711673.90246  21017818.1224   21017822.2244
     -2752.7504      -2145.0004
  -1415118.95145  -1006938.18843  24616415.5914   24616421.6734
      1496.7034       1166.2624
    844361.88847    633323.26147  21299316.9744   21299321.3214
     -1009.9224       -786.9524
    893960.30145    662223.59644  23932745.1694   23932751.1104
     -1234.4224       -961.8874
   -444023.81046   -329611.90546  21877891.4274   21877896.2204
       307.8754        239.9034
    689672.68046      6412.67855  22532054.6694   22532058.8294
     -1031.6874       -803.9124
   4467595.18843   3211853.08341  25311354.6614   25311365.0604
     -4917.0004      -3831.4294
 98  6 17 21 31  0.0010000  0  7G 6G21G17G22G23G26G30
   2362377.74047   1776207.77646  21033577.8414   21033581.6734
     -2768.3914      -2157.1874
  -1459913.26245  -1041842.69443  24607890.8414   24607898.1694
      1489.5944       1160.7224
    874746.70847    656999.75646  21305099.1464   21305103.5054
     -1015.6724       -791.4334
    931256.31745    691285.42444  23939842.2784   23939848.3024
     -1251.8594       -975.4754
   -453057.42946   -336651.01946  21876172.7244   21876177.5404
       294.5314        229.5054
    720932.67446     30771.14245  22538003.4584   22538007.6774
     -1052.2344       -819.9234
   4615055.05643   3326756.36242  25339415.8174   25339427.7284
     -4913.3754      -3828.6044
 98  6 17 21 31 30.0010000  0  7G 6G21G17G22G23G26G30
   2445640.07046   1841087.48246  21049422.3804   21049426.2824
     -2782.7664      -2168.3894
  -1504518.63744  -1076599.99043  24599402.4584   24599410.3844
      1483.7504       1156.1694
    905286.44647    680796.96847  21310910.4974   21310914.7984
     -1020.5784       -795.2564
    969051.59845    720736.30245  23947034.1534   23947039.8724
     -1268.1724       -988.1864
   -461725.22746   -343405.08546  21874522.7244   21874527.5994
       282.9694        220.4954
    752780.36546     55587.54245  22544063.8104   22544068.0634
     -1071.2034       -834.7044
   4762372.76643   3441549.05841  25367449.3804   25367459.8134
     -4908.1254      -3824.5134
 98  6 17 21 32  0.0010000  0  6G 6G21G17G22G23G26
   2529340.30247   1906308.41146  21065349.8964   21065353.6224
     -2797.8444      -2180.1384
  -1548935.65245  -1111210.51543  24590950.2864   24590957.4854
      1476.9844       1150.8974
    935975.99747    704710.92146  21316750.4894   21316755.2124
     -1025.9694       -799.4564
   1007348.69245    750578.18144  23954322.1464   23954327.7594
     -1285.4844      -1001.6764
   -470036.61346   -349881.42446  21872941.1064   21872946.0874
       270.7034        210.9384
    785194.48846     80845.33145  22550232.0214   22550236.2044
     -1090.1874       -849.4974
 98  6 17 21 32 30.0010000  0  6G 6G21G17G22G23G26
   2613507.21047   1971892.97846  21081366.5214   21081370.2714
     -2813.6254      -2192.4354
  -1593150.12045  -1145663.20343  24582535.8644   24582542.3684
      1470.4844       1145.8324
    966846.28847    728765.71246  21322624.8884   21322629.4354
     -1032.3754       -804.4484
   1046173.24145    780831.05445  23961710.4664   23961716.4894
     -1302.9844      -1015.3124
   -477979.25146   -356070.43846  21871429.6854   21871434.3374
       258.6254        201.5264
    818185.51746    106552.65445  22556509.5994   22556514.1814
     -1109.4844       -864.5334
 98  6 17 21 33  0.0010000  0  6G 6G21G17G22G23G26
   2698139.73747   2037840.36946  21097471.7004   21097475.6494
     -2828.5314      -2204.0504
  -1637197.40444  -1179985.60543  24574153.6854   24574161.4234
      1466.1884       1142.4844
    997901.30447    752964.43946  21328534.2554   21328538.7434
     -1037.8594       -808.7224
   1085497.11745    811473.01445  23969192.7864   23969198.8924
     -1318.4224      -1027.3424
   -485570.53146   -361985.66446  21869985.2714   21869990.3334
       247.4384        192.8084
    851736.35646    132696.19345  22562894.2944   22562898.0444
     -1126.9374       -878.1334
 98  6 17 21 33 30.0010000  0  6G 6G21G17G22G23G26
   2783256.13347   2104164.79746  21113668.5834   21113672.1464
     -2845.7974      -2217.5044
  -1681087.44245  -1214185.46143  24565801.6224   24565807.9034
      1459.9844       1137.6504
   1029148.91847    777313.23746  21334480.4814   21334484.9584
     -1045.1874       -814.4324
   1125316.20845    842500.90145  23976770.6064   23976776.6304
     -1336.1564      -1041.1614
   -492786.04346   -367608.08346  21868612.2394   21868616.9974
       233.5474        181.9854
    885832.05546    159264.28945  22569382.9504   22569387.4384
     -1146.1094       -893.0724
 98  6 17 21 34  0.0010000  0  6G 6G21G17G22G23G26
   2868875.54047   2170881.19446  21129961.8024   21129965.5874
     -2862.3914      -2230.4344
  -1724813.47744  -1248257.53944  24557480.2314   24557486.6884
      1454.9064       1133.6934
   1060600.44647    801820.93846  21340465.6064   21340470.0484
     -1051.7974       -819.5824
   1165653.27245    873932.35645  23984446.2634   23984451.9464
     -1353.0784      -1054.3474
   -499596.16446   -372914.62446  21867316.1694   21867320.6464
       220.4384        171.7694
    920487.85746    186268.84345  22575977.2004   22575981.4894
     -1164.5944       -907.4764
 98  6 17 21 34 30.0010000  0  6G 6G21G17G22G23G26
   2954994.58947   2237986.90946  21146349.1774   21146352.8924
     -2878.4844      -2242.9754
  -1768388.32845  -1282211.83543  24549188.6694   24549196.2084
      1450.2664       1130.0774
   1092254.40047    826486.37046  21346489.3174   21346493.7824
     -1058.1094       -824.5014
   1206492.31545    905754.96445  23992217.9744   23992223.8214
     -1369.2504      -1066.9484
   -506014.76746   -377916.08446  21866094.8564   21866099.2864
       207.7504        161.8834
    955710.51246    213715.09745  22582679.6534   22582684.3884
     -1183.4374       -922.1594
 98  6 17 21 35  0.0010000  0  6G 6G21G17G22G23G26
   3041601.60447   2305472.86346  21162830.1924   21162834.1774
     -2895.0314      -2255.8694
  -1811801.39245  -1316040.05543  24540926.9894   24540935.5014
      1444.1414       1125.3044
   1124100.85147    851301.79647  21352549.4584   21352553.7714
     -1064.7034       -829.6394
   1247831.36245    937967.22144  24000084.4194   24000089.9854
     -1386.6564      -1080.5114
   -512033.68546   -382606.09746  21864949.2244   21864954.1464
       193.7194        150.9504
    991516.94446    241616.23545  22589493.3804   22589497.6104
     -1203.4844       -937.7804
 98  6 17 21 35 30.0010000  0  6G 6G21G17G22G23G26
   3128688.64647   2373332.86246  21179402.3254   21179406.1344
     -2910.0784      -2267.5934
  -1855035.57244  -1349728.87544  24532699.6224   24532708.0994
      1438.7504       1121.1044
   1156131.45447    876260.72246  21358644.5364   21358649.1654
     -1070.0944       -833.8394
   1289688.37345    970583.05645  24008049.0214   24008055.4074
     -1403.2194      -1093.4174
   -517646.09246   -386979.35346  21863881.2164   21863885.9744
       181.1724        141.1734
   1027925.30646    269986.42745  22596421.6384   22596426.3134
     -1223.2504       -953.1824
 98  6 17 21 36  0.0020000  0  6G 6G21G17G22G23G26
   3216222.02047   2441540.64146  21196059.5414   21196063.3264
     -2925.1414      -2279.3304
  -1898112.50045  -1383295.15944  24524502.6744   24524510.1194
      1433.0474       1116.6604
   1188322.21347    901344.44146  21364770.1584   21364774.8814
     -1075.7814       -838.2714
   1332038.98045   1003583.50344  24016108.4474   24016114.2954
     -1419.8594      -1106.3844
   -522893.40546   -391068.11546  21862882.6274   21862887.5024
       168.8754        131.5914
   1064922.74946    298815.61945  22603461.9324   22603466.2564
     -1242.9694       -968.5474
 98  6 17 21 36 30.0020000  0  6G 6G21G17G22G23G26
   3304204.70747   2510098.54246  21212802.0024   21212805.5534
     -2940.8444      -2291.5674
  -1941014.75045  -1416725.34643  24516338.6584   24516345.0334
      1426.5944       1111.6314
   1220682.19147    926560.02646  21370928.3694   21370932.7404
     -1082.0164       -843.1294
   1374881.61445   1036967.38245  24024261.4554   24024267.3614
     -1436.8124      -1119.5944
   -527770.23946   -394868.20346  21861954.9714   21861959.4824
       155.6724        121.3034
   1102502.38846    328098.48545  22610613.2524   22610617.9284
     -1262.8284       -984.0224
 98  6 17 21 37  0.0020000  0  6G 6G21G17G22G23G26
   3392656.35147   2579021.87246  21229634.0334   21229637.8894
     -2956.2974      -2303.6084
  -1983724.56545  -1450005.55644  24508210.7444   24508219.5024
      1420.5634       1106.9324
   1253219.89847    951914.09446  21377119.9164   21377124.3574
     -1087.4534       -847.3664
   1418231.69645   1070746.63045  24032511.0254   24032516.7914
     -1453.4374      -1132.5494
   -532257.21046   -398364.49846  21861100.7994   21861105.4164
       143.1884        111.5754
   1140669.58746    357839.19145  22617876.4714   22617880.9944
     -1281.8754       -998.8644
 98  6 17 21 37 30.0020000  0  6G 6G21G17G22G23G26
   3481602.04747   2648330.16946  21246559.6894   21246563.3934
     -2973.4844      -2317.0014
  -2026237.14745  -1483132.11444  24500121.2524   24500128.5334
      1413.6094       1101.5144
   1285944.65747    977413.92746  21383347.0644   21383351.7754
     -1094.2814       -852.6874
   1462096.47445   1104926.96845  24040858.0884   24040864.7564
     -1470.8594      -1146.1244
   -536350.82546   -401554.28646  21860321.8384   21860326.4554
       129.7194        101.0804
   1179428.76546    388041.17245  22625251.8144   22625256.6664
     -1301.9844      -1014.5334
 98  6 17 21 38  0.0020000  0  6G 6G21G17G22G23G26
   3571068.78447   2718044.47246  21263584.9714   21263588.6154
     -2991.1254      -2330.7474
  -2068544.60245  -1516098.83644  24492070.2214   24492078.4984
      1406.8134       1096.2184
   1318877.81047   1003076.13546  21389614.0644   21389618.3654
     -1101.3594       -858.2024
   1506483.06545   1139513.89045  24049304.0724   24049310.1784
     -1488.2814      -1159.7004
   -540035.09946   -404425.10546  21859620.7054   21859625.5804
       115.7504         90.1954
   1218781.08646    418705.34145  22632740.2834   22632744.9944
     -1321.7504      -1029.9354
 98  6 17 21 38 30.0020000  0  6G 6G21G17G22G23G26
   3661055.50647   2788163.96846  21280708.5804   21280712.1544
     -3007.9844      -2343.8844
  -2110656.98145  -1548913.53744  24484056.0414   24484063.7214
      1400.4224       1091.2384
   1352013.08947   1028895.84446  21395919.5804   21395923.9634
     -1107.7034       -863.1454
   1551379.71345   1174498.28545  24057847.9554   24057853.4984
     -1504.9534      -1172.6914
   -543305.53146   -406973.45146  21858998.3074   21859003.2754
       102.1884         79.6274
   1258724.17846    449829.85445  22640341.4714   22640346.5334
     -1341.4224      -1045.2644
 98  6 17 21 39  0.0020000  0  6G 6G21G17G22G23G26
   3751550.63147   2858679.61846  21297929.1114   21297932.5454
     -3025.0944      -2357.2164
  -2152566.14945  -1581569.87644  24476081.3614   24476088.1704
      1393.3594       1085.7354
   1385345.85147   1054869.44046  21402262.5414   21402267.0534
     -1114.7034       -868.6004
   1596794.12945   1209886.14145  24066489.6114   24066495.8224
     -1522.8754      -1186.6564
   -546158.86746   -409196.79146  21858455.3774   21858459.8654
        87.7194         68.3524
   1299277.97346    481430.24645  22648058.3544   22648062.9824
     -1362.2664      -1061.5064
 98  6 17 21 39 30.0020000  0  6G 6G21G17G22G23G26
   3842530.86647   2929573.26646  21315242.2604   21315245.8344
     -3040.5164      -2369.2334
  -2194286.61045  -1614079.17744  24468141.7604   24468149.0184
      1387.5474       1081.2054
   1418872.10647   1080993.81146  21408642.4164   21408646.7994
     -1120.7344       -873.3004
   1642723.53145   1245675.23145  24075229.9474   24075235.7484
     -1539.4844      -1199.5984
   -548589.90946   -411091.06946  21857992.6504   21857997.4904
        74.0164         57.6754
   1340430.32746    513497.04445  22655889.4474   22655893.9594
     -1381.4694      -1076.4694
 98  6 17 21 40  0.0020000  0  6G 6G21G17G22G23G26
   3933983.45747   3000834.99346  21332645.0804   21332648.8654
     -3056.1874      -2381.4454
  -2235812.97345  -1646437.23444  24460239.8224   24460247.1154
      1380.8594       1075.9944
   1452595.40847   1107271.72546  21415059.8614   21415064.1864
     -1127.3284       -878.4374
   1689173.34345   1281869.86945  24084069.1434   24084074.7684
     -1557.0164      -1213.2594
   -550588.99546   -412648.75746  21857612.0884   21857616.8574
        59.3594         46.2544
   1382168.81846    546020.57246  22663832.0884   22663837.0104
     -1401.1094      -1091.7744
 98  6 17 21 40 30.0020000  0  6G 6G21G17G22G23G26
   4025887.81147   3072448.74046  21350133.9164   21350137.6314
     -3070.3124      -2392.4514
  -2277144.35045  -1678643.37844  24452374.1044   24452380.9984
      1375.0004       1071.4294
   1486503.75347   1133693.81946  21421512.4004   21421516.6664
     -1132.6874       -882.6144
   1736131.47645   1318460.59745  24093005.0024   24093011.4364
     -1573.0164      -1225.7264
   -552167.78646   -413878.93946  21857311.7054   21857316.5804
        46.3754         36.1364
   1424481.98846    578991.90645  22671884.1354   22671887.9674
     -1419.2664      -1105.9214
 98  6 17 21 41  0.0020000  0  6G 6G21G17G22G23G26
   4118219.93747   3144395.80946  21367703.8304   21367707.7324
     -3085.6724      -2404.4204
  -2318301.38345  -1710713.61744  24444542.2214   24444548.8074
      1368.4694       1066.3394
   1520572.10147   1160240.59547  21427995.2684   21427999.8034
     -1138.9844       -887.5204
   1783569.27445   1355425.08945  24102032.4864   24102038.9324
     -1589.8284      -1238.8274
   -553356.47846   -414805.15446  21857085.6194   21857090.1894
        32.5004         25.3254
   1467337.33146    612385.70746  22680038.8304   22680042.7444
     -1437.9534      -1120.4834
 98  6 17 21 41 30.0020000  0  6G 6G21G17G22G23G26
   4211022.56346   3216709.50146  21385363.9794   21385367.8224
     -3101.6094      -2416.8384
  -2359254.43045  -1742624.94244  24436748.9474   24436755.1934
      1361.4694       1060.8854
   1554833.58447   1186937.86146  21434515.0104   21434519.3814
     -1145.3124       -892.4514
   1831506.08445   1392778.42445  24111154.1434   24111159.9084
     -1606.2034      -1251.5874
   -554139.93546   -415415.60446  21856936.2294   21856940.9634
        19.6724         15.3294
   1510753.31746    646216.38145  22688300.8384   22688305.1044
     -1456.7664      -1135.1424
 98  6 17 21 42  0.0020000  0  6G 6G21G17G22G23G26
   4304306.55046   3289398.28746  21403115.0184   21403118.7094
     -3117.7194      -2429.3914
  -2400000.00145  -1774374.58944  24428995.1194   24429002.8114
      1354.6884       1055.6014
   1589280.61947   1213779.71647  21441069.8854   21441074.1274
     -1151.4534       -897.2364
   1879930.90245   1430512.04245  24120369.3464   24120375.6044
     -1622.3284      -1264.1524
   -554555.73446   -415739.55846  21856857.1894   21856861.7714
         7.8914          6.1494
   1554740.58246    680492.19845  22696671.0884   22696675.4364
     -1476.1414      -1150.2394
 98  6 17 21 42 30.0020000  0  6G 6G21G17G22G23G26
   4398078.09346   3362466.98346  21420959.3934   21420963.3544
     -3133.6874      -2441.8344
  -2440547.40545  -1805969.84844  24421279.3934   24421286.0374
      1348.6094       1050.8644
   1623911.41347   1240764.75946  21447659.8854   21447664.3964
     -1157.0784       -901.6194
   1928834.86845   1468618.98545  24129675.2134   24129681.3544
     -1637.8754      -1276.2664
   -554626.31346   -415794.51446  21856843.3544   21856848.0644
        -3.1254         -2.4354
   1599314.11246    715224.84646  22705153.3144   22705157.6504
     -1495.3124      -1165.1794
 98  6 17 21 43  0.0020000  0  6G 6G21G17G22G23G26
   4492347.23246   3435923.41746  21438898.0724   21438902.1744
     -3150.2344      -2454.7284
  -2480902.31245  -1837415.10144  24413600.0964   24413606.4244
      1342.3914       1046.0194
   1658720.46647   1267888.70546  21454283.8144   21454288.1504
     -1162.9374       -906.1854
   1978224.76045   1507104.56945  24139073.9244   24139079.6074
     -1654.1564      -1288.9534
   -554345.44546   -415575.61346  21856897.0414   21856901.7404
       -15.0004        -11.6884
   1644481.87446    750420.53346  22713748.5724   22713752.5924
     -1515.1564      -1180.6414
 98  6 17 21 43 30.0020000  0  6G 6G21G17G22G23G26
   4587108.00446   3509762.93246  21456930.7364   21456934.9674
     -3167.2504      -2467.9874
  -2521069.71745  -1868714.22045  24405955.8614   24405962.2954
      1335.3754       1040.5524
   1693709.25547   1295152.70846  21460941.8774   21460946.3654
     -1169.8284       -911.5544
   2028107.26645   1545974.05445  24148567.0964   24148573.4944
     -1671.5474      -1302.5044
   -553703.80846   -415075.59746  21857019.5414   21857024.0184
       -28.0624        -21.8674
   1690249.45246    786083.61145  22722457.6744   22722461.8934
     -1536.2664      -1197.0904
 98  6 17 21 44  0.0020000  0  6G 6G21G17G22G23G26
   4682363.34846   3583987.83946  21475057.3544   21475061.4324
     -3183.5314      -2480.6744
  -2561044.66745  -1899863.40045  24398349.0414   24398355.6394
      1329.0164       1035.5974
   1728897.53147   1322572.15446  21467637.8774   21467642.0374
     -1176.7504       -916.9484
   2078504.39745   1585244.50045  24158156.5804   24158161.3614
     -1688.8124      -1315.9584
   -552664.94346   -414266.04746  21857216.9394   21857221.3224
       -41.9534        -32.6914
   1736637.28546    822229.99445  22731285.2294   22731289.1664
     -1556.8124      -1213.1014
 98  6 17 21 44 30.0020000  0  6G 6G21G17G22G23G26
   4778098.79546   3658586.84646  21493275.1274   21493279.0294
     -3199.0944      -2492.8004
  -2600825.68145  -1930861.45545  24390779.3854   24390785.8184
      1322.5784       1030.5804
   1764292.26147   1350152.48346  21474373.4944   21474377.7364
     -1183.2974       -922.0504
   2129411.04845   1624912.00645  24167843.8544   24167849.3964
     -1705.4374      -1328.9124
   -551196.18446   -413121.51846  21857496.5494   21857500.9904
       -56.5784        -44.0874
   1783630.24146    858847.91045  22740227.3544   22740231.5964
     -1576.4374      -1228.3934
 98  6 17 21 45  0.0020000  0  6G 6G21G17G22G23G26
   4874289.77446   3733540.81646  21511579.7684   21511583.8694
     -3213.5944      -2504.0994
  -2640407.94445  -1961704.63245  24383246.6974   24383252.5684
      1316.1884       1025.6014
   1799883.81847   1377886.18246  21481146.6354   21481150.7484
     -1189.6254       -926.9814
   2180814.84545   1664966.88145  24177625.5574   24177631.5574
     -1721.4694      -1341.4044
   -549280.69546   -411628.89346  21857860.7214   21857865.2914
       -71.0624        -55.3734
   1831214.49546    895926.58646  22749282.7754   22749286.7954
     -1595.8754      -1243.5394
 98  6 17 21 45 30.0020000  0  6G 6G21G17G22G23G26
   4970923.18946   3808839.54446  21529968.6114   21529972.7364
     -3228.6564      -2515.8364
  -2679781.71145  -1992385.35345  24375754.0334   24375760.0684
      1308.6724       1019.7444
   1835682.86447   1405781.56146  21487958.5964   21487963.0374
     -1196.9224       -932.6664
   2232705.17745   1705400.87944  24187500.2834   24187506.4714
     -1737.9694      -1354.2614
   -546928.58346   -409796.03646  21858308.5104   21858312.7054
       -85.6874        -66.7694
   1879394.47446    933469.45145  22758450.9394   22758455.5454
     -1616.1254      -1259.3184
 98  6 17 21 46  0.0020000  0  6G 6G21G17G22G23G26
   5068008.07246   3884490.06046  21548443.1664   21548447.1044
     -3243.8914      -2527.7074
  -2718927.90045  -2022888.72545  24368304.5964   24368310.5844
      1300.7504       1013.5714
   1871690.96147   1433839.84046  21494810.7294   21494814.7714
     -1203.8124       -938.0364
   2285090.34545   1746220.46445  24197469.1744   24197474.8224
     -1754.5784      -1367.2044
   -544145.05146   -407627.00846  21858837.9714   21858842.5644
      -100.0314        -77.9464
   1928177.47546    971482.20945  22767733.7294   22767737.4204
     -1636.3124      -1275.0494
 98  6 17 21 46 30.0020000  0  6G 6G21G17G22G23G26
   5165541.43646   3960490.04746  21567003.3144   21567007.2174
     -3258.7814      -2539.3104
  -2757844.22745  -2053212.99945  24360898.9324   24360905.4714
      1293.3444       1007.8004
   1907892.06847   1462048.51346  21501699.6974   21501703.6004
     -1209.8284       -942.7234
   2337962.67345   1787419.65745  24207529.9554   24207535.9904
     -1770.8444      -1379.8784
   -540948.98546   -405136.53846  21859446.2754   21859450.6354
      -113.3754        -88.3444
   1977559.49346   1009961.72745  22777130.9634   22777134.6784
     -1656.3124      -1290.6334
 98  6 17 21 47  0.0020000  0  6G 6G21G17G22G23G26
   5263518.35946   4036835.65946  21585647.6434   21585651.6274
     -3273.6724      -2550.9134
  -2796548.74245  -2083372.20445  24353533.3854   24353540.2684
      1286.4694       1002.4434
   1944263.13147   1490389.61246  21508620.7444   21508624.8814
     -1215.4534       -947.1064
   2391326.02545   1829001.49045  24217684.8464   24217690.7404
     -1787.1874      -1392.6144
   -537370.88846   -402348.37046  21860127.2834   21860131.8654
      -125.5624        -97.8414
   2027542.37346   1048909.45346  22786642.2364   22786646.1044
     -1676.3594      -1306.2544
 98  6 17 21 47 30.0020000  0  6G 6G21G17G22G23G26
   5361958.76546   4113542.42346  21604380.2524   21604384.2834
     -3289.3444      -2563.1254
  -2835044.37545  -2113368.67045  24346207.7604   24346214.3814
      1279.7344        997.1964
   1980809.15547   1518867.04646  21515575.1974   21515579.7094
     -1221.1254       -951.5264
   2445192.08245   1870974.97945  24227935.0334   24227940.2134
     -1804.2344      -1405.8974
   -533426.69146   -399274.93546  21860877.5724   21860882.2604
      -137.5784       -107.2044
   2078129.07946   1088327.68345  22796268.5184   22796272.7484
     -1696.3444      -1321.8264
 98  6 17 21 48  0.0020000  0  6G 6G21G17G22G23G26
   5460865.48946   4190612.55246  21623201.5724   21623205.5924
     -3304.9064      -2575.2524
  -2873350.00745  -2143217.07245  24338918.6114   24338925.2794
      1273.5634        992.3864
   2017514.92647   1547468.95346  21522559.9084   21522564.1744
     -1226.4694       -955.6904
   2499561.75745   1913340.92245  24238281.4794   24238286.5884
     -1820.6414      -1418.6814
   -529127.75146   -395925.07646  21861695.5724   21861700.2484
      -149.4534       -116.4574
   2129303.41946   1128203.82345  22806006.4794   22806010.6624
     -1715.7194      -1336.9244
 98  6 17 21 48 30.0020000  0  6G 6G21G17G22G23G26
   5560265.19646   4268066.83046  21642116.8074   21642120.5804
     -3321.9694      -2588.5474
  -2911447.18045  -2172903.03645  24331668.5884   24331675.4824
      1266.0314        986.5184
   2054412.97347   1576220.69146  21529581.6974   21529585.9044
     -1233.5944       -961.2424
   2554436.73145   1956100.63045  24248724.0334   24248730.5144
     -1837.9224      -1432.1474
   -524448.93946   -392279.21546  21862585.9244   21862590.3544
      -162.7034       -126.7824
   2181080.80846   1168549.85645  22815859.5964   22815864.0964
     -1736.3284      -1352.9834
 98  6 17 21 49  0.0020000  0  6G 6G21G17G22G23G26
   5660150.57646   4345899.55146  21661124.4794   21661128.3114
     -3337.7504      -2600.8444
  -2949341.68145  -2202431.09145  24324457.5574   24324463.7444
      1259.5474        981.4654
   2091503.27947   1605122.24147  21536639.4714   21536643.6544
     -1239.9064       -966.1614
   2609798.21745   1999239.43145  24259258.9084   24259264.3464
     -1853.3444      -1444.1644
   -519396.54646   -388342.24546  21863547.4324   21863551.6864
      -174.8444       -136.2424
   2233445.71946   1209353.69846  22825824.1824   22825828.2714
     -1755.2034      -1367.6914
 98  6 17 21 49 30.0020000  0  6G 6G21G17G22G23G26
   5760522.61946   4424111.49446  21680224.7054   21680228.5614
     -3354.3594      -2613.7874
  -2987029.34345  -2231797.98945  24317285.8544   24317291.8304
      1252.2194        975.7554
   2128802.69847   1634186.74247  21543737.4244   21543741.9944
     -1247.4374       -972.0294
   2665633.39845   2042747.33545  24269883.6194   24269889.6434
     -1869.6414      -1456.8634
   -513959.79946   -384105.78246  21864581.9944   21864586.4244
      -188.3594       -146.7744
   2286388.78946   1250608.04345  22835899.0104   22835902.6664
     -1775.0474      -1383.1534
 98  6 17 21 50  0.0020000  0  6G 6G21G17G22G23G26
   5861385.79346   4502706.12946  21699418.1974   21699422.0764
     -3370.2814      -2626.1934
  -3024493.52145  -2260990.75045  24310156.5804   24310162.8614
      1244.9534        970.0934
   2166331.62747   1663430.08046  21550878.7914   21550883.0334
     -1254.9374       -977.8734
   2721949.03845   2086629.63645  24280600.3544   24280606.1784
     -1885.0944      -1468.9044
   -508106.85146   -379545.00646  21865695.6194   21865699.8144
      -202.4064       -157.7194
   2339926.70246   1292325.92045  22846086.7134   22846090.5804
     -1794.5944      -1398.3854
 98  6 17 21 50 30.0020000  0  6G 6G21G17G22G23G26
   5962704.50746   4581655.73046  21718698.4634   21718702.4824
     -3385.1874      -2637.8084
  -3061759.51645  -2290029.07945  24303065.1974   24303071.5374
      1238.5474        965.1014
   2204064.71147   1692832.50846  21558059.1584   21558063.2254
     -1261.4694       -982.9634
   2778717.32045   2130864.65445  24291402.8224   24291409.2094
     -1900.4534      -1480.8734
   -501841.69246   -374663.02746  21866888.0724   21866892.5964
      -216.1724       -168.4464
   2394037.27246   1334490.01145  22856383.7524   22856387.4434
     -1813.6724      -1413.2514
 98  6 17 21 51  0.0020000  0  6G 6G21G17G22G23G26
   6064470.65146   4660953.98046  21738063.9474   21738067.9674
     -3399.6564      -2649.0834
  -3098831.63745  -2318916.31345  24296009.7684   24296015.7684
      1232.4384        960.3414
   2241996.43947   1722389.70546  21565277.7364   21565281.8964
     -1267.7344       -987.8454
   2835950.29445   2175461.73845  24302294.0804   24302300.3264
     -1915.5474      -1492.6344
   -495157.91346   -369454.85446  21868159.9004   21868164.4004
      -229.8754       -179.1234
   2448720.12946   1377100.04045  22866789.7294   22866793.6544
     -1832.3594      -1427.8124
 98  6 17 21 51 30.0020000  0  6G 6G21G17G22G23G26
   6166678.15246   4740596.13246  21757513.3774   21757517.4204
     -3414.2034      -2660.4184
  -3135710.43645  -2347652.92445  24288992.6504   24288998.7094
      1226.0004        955.3254
   2280121.08847   1752097.23146  21572532.2754   21572536.2954
     -1274.0004       -992.7274
   2893649.06045   2220421.79845  24313273.8854   24313279.6394
     -1931.1874      -1504.8214
   -488058.65146   -363922.92446  21869510.6434   21869515.2604
      -243.4374       -189.6924
   2503980.70346   1420160.23045  22877305.4244   22877309.1154
     -1851.7974      -1442.9594
 98  6 17 21 52  0.0020000  0  6G 6G21G17G22G23G26
   6269331.26346   4820585.51846  21777047.6194   21777051.5804
     -3429.8754      -2672.6304
  -3172379.25245  -2376225.91345  24282015.0184   24282021.6044
      1218.0314        949.1154
   2318441.29847   1781957.14946  21579824.3694   21579828.6464
     -1281.1414       -998.2914
   2951823.32045   2265752.34745  24324344.0964   24324350.3894
     -1947.7344      -1517.7154
   -480544.00146   -358067.31746  21870940.5414   21870944.6784
      -257.9224       -200.9784
   2559833.00046   1463681.51345  22887933.6354   22887937.6074
     -1872.2974      -1458.9334
 98  6 17 21 52 30.0020000  0  6G 6G21G17G22G23G26
   6372440.12046   4900930.02746  21796668.8384   21796673.0804
     -3444.8754      -2684.3184
  -3208823.77145  -2404624.18045  24275079.1194   24275085.4124
      1210.7034        943.4054
   2356955.77047   1811968.42547  21587153.5414   21587157.5144
     -1287.3914      -1003.1624
   3010481.70445   2311460.15245  24335506.5724   24335512.7714
     -1963.5784      -1530.0614
   -472623.39746   -351895.39046  21872447.7604   21872452.0614
      -270.8124       -211.0234
   2616284.62546   1507669.79745  22898675.8544   22898680.2254
     -1892.0164      -1474.2984
 98  6 17 21 53  0.0020000  0  6G 6G21G17G22G23G26
   6476016.32946   4981638.70046  21816378.5804   21816382.9044
     -3459.7814      -2695.9334
  -3245028.43445  -2432835.48145  24268189.3614   24268195.2214
      1203.3134        937.6464
   2395677.72047   1842141.37747  21594522.0414   21594526.2254
     -1293.5944      -1007.9954
   3069622.25045   2357543.67645  24346760.2914   24346766.2444
     -1978.9224      -1542.0174
   -464313.47846   -345420.09946  21874028.9634   21874033.7564
      -282.8124       -220.3734
   2673347.92946   1552134.71845  22909534.7524   22909539.2524
     -1912.0164      -1489.8824
 98  6 17 21 53 30.0020000  0  6G 6G21G17G22G23G26
   6580050.28546   5062704.07246  21836175.7914   21836179.8224
     -3475.8754      -2708.4744
  -3281003.44245  -2460867.86445  24261343.8074   24261349.8074
      1195.0164        931.1814
   2434594.31947   1872466.01046  21601927.6664   21601931.9084
     -1300.8444      -1013.6444
   3129243.31845   2404001.60045  24358105.8694   24358112.0804
     -1995.7814      -1555.1544
   -455634.58546   -338657.29646  21875680.7054   21875685.1464
      -295.8444       -230.5284
   2731029.14546   1597081.12645  22920510.8934   22920514.6194
     -1933.3754      -1506.5264
 98  6 17 21 54  0.0030000  0  6G 6G21G17G22G23G26
   6684577.91246   5144154.11446  21856066.5774   21856070.7374
     -3491.8594      -2720.9294
  -3316726.48645  -2488703.88045  24254545.9524   24254551.7764
      1186.9694        924.9114
   2473729.43847   1902960.91947  21609374.6474   21609378.4914
     -1307.5314      -1018.8564
   3189373.42345   2450856.22044  24369548.5154   24369554.7374
     -2012.2974      -1568.0244
   -446555.09846   -331582.34446  21877408.2654   21877412.6594
      -309.0164       -240.7914
   2789354.17146   1642529.20245  22931609.8904   22931613.4874
     -1954.3594      -1522.8774
 98  6 17 21 54 30.0030000  0  6G 6G21G17G22G23G26
   6789559.00246   5225957.51646  21876043.9374   21876048.0034
     -3507.1564      -2732.8494
  -3352230.85145  -2516369.51945  24247789.6944   24247796.1284
      1179.6724        919.2254
   2513044.34847   1933595.91647  21616856.1874   21616860.1124
     -1313.7344      -1023.6894
   3249977.31745   2498079.98045  24381080.6084   24381087.0424
     -2028.2034      -1580.4184
   -437092.32946   -324208.72246  21879208.9294   21879213.5584
      -322.2194       -251.0804
   2848290.24046   1688453.42045  22942825.1014   22942828.9444
     -1975.0624      -1539.0104
 98  6 17 21 55  0.0030000  0  6G 6G21G17G22G23G26
   6895004.91346   5308123.11746  21896109.9294   21896114.1594
     -3522.4374      -2744.7564
  -3387511.69545  -2543860.97845  24241075.7264   24241082.6674
      1172.4534        913.6004
   2552547.89847   1964377.90647  21624373.3904   21624377.5504
     -1319.6874      -1028.3284
   3311064.76745   2545680.54345  24392705.2494   24392710.9914
     -2044.2814      -1592.9464
   -427223.83746   -316518.95846  21881087.0464   21881091.6634
      -335.7504       -261.6234
   2907853.80146   1734866.59245  22954159.7184   22954163.7144
     -1995.6094      -1555.0204
 98  6 17 21 55 30.0030000  0  6G 6G21G17G22G23G26
   7000892.55246   5390632.91746  21916259.6874   21916264.0224
     -3536.3754      -2755.6174
  -3422593.02845  -2571196.99145  24234399.7104   24234406.1204
      1166.6094        909.0464
   2592214.70947   1995287.11547  21631921.7104   21631925.8704
     -1324.4224      -1032.0174
   3372619.97145   2593645.62944  24404419.1944   24404425.3124
     -2058.9534      -1604.3794
   -416950.20746   -308513.50146  21883041.8434   21883046.3904
      -348.6874       -271.7054
   2968008.47646   1781740.36845  22965606.6714   22965610.9834
     -2014.2344      -1569.5334
 98  6 17 21 56  0.0030000  0  6G 6G21G17G22G23G26
   7107210.42146   5473477.96546  21936491.2334   21936495.4404
     -3550.7664      -2766.8304
  -3457484.88945  -2598385.34445  24227760.1014   24227766.3704
      1160.1564        904.0184
   2632035.70647   2026316.46747  21639499.3744   21639503.4764
     -1329.6414      -1036.0844
   3434622.60945   2641959.32645  24416218.0384   24416223.6754
     -2073.9374      -1616.0554
   -406279.18346   -300198.38846  21885072.7574   21885077.4334
      -362.0944       -282.1514
   3028735.18246   1829059.88745  22977162.6794   22977166.7804
     -2033.6564      -1584.6674
 98  6 17 21 56 30.0030000  0  6G 6G21G17G22G23G26
   7213956.22046   5556656.46346  21956804.2804   21956808.5344
     -3564.9534      -2777.8864
  -3492184.93345  -2625424.24945  24221156.5304   24221162.5544
      1153.9064        899.1484
   2672018.53847   2057471.92747  21647107.9914   21647112.0814
     -1335.2664      -1040.4674
   3497072.81845   2690621.78545  24428101.5304   24428107.2024
     -2088.6874      -1627.5494
   -395208.66146   -291571.97746  21887179.2184   21887183.5544
      -375.1254       -292.3054
   3090042.89246   1876832.14145  22988829.2184   22988832.9914
     -2052.7974      -1599.5824
 98  6 17 21 57  0.0030000  0  6G 6G21G17G22G23G26
   7321128.81546   5640167.52746  21977198.5934   21977202.9054
     -3579.6414      -2789.3304
  -3526696.54145  -2652316.29445  24214589.3044   24214595.2574
      1147.1564        893.8884
   2712177.36147   2088764.52346  21654749.8434   21654754.1324
     -1341.7664      -1045.5324
   3559971.55145   2739633.76044  24440071.1874   24440077.2224
     -2104.3594      -1639.7614
   -383752.79046   -282645.29246  21889359.1084   21889363.2104
      -388.3284       -302.5934
   3151917.12546   1925045.83045  23000603.5544   23000607.9604
     -2071.8914      -1614.4604
 98  6 17 21 57 30.0030000  0  6G 6G21G17G22G23G26
   7428748.86146   5724027.24846  21997677.9994   21997682.4054
     -3595.3914      -2801.6034
  -3560997.04545  -2679043.84545  24208062.1404   24208068.1754
      1139.3134        887.7764
   2752541.38547   2120217.01347  21662431.1014   21662435.1444
     -1349.4534      -1051.5224
   3623350.34745   2789019.79844  24452131.5774   24452136.8044
     -2121.0944      -1652.8004
   -371895.38046   -273405.70946  21891615.4214   21891619.8044
      -402.2814       -313.4664
   3214377.71246   1973716.42945  23012489.0694   23012492.9484
     -2092.5164      -1630.5324
 98  6 17 21 58  0.0030000  0  6G 6G21G17G22G23G26
   7536821.73646   5808239.83246  22018243.6874   22018247.9294
     -3609.7974      -2812.8294
  -3595082.32645  -2705603.69245  24201575.9994   24201582.1874
      1132.7034        882.6264
   2793116.03047   2151833.62846  21670152.1164   21670156.3004
     -1355.8444      -1056.5024
   3687202.96945   2838775.04245  24464282.1404   24464288.1634
     -2136.0784      -1664.4764
   -359650.05146   -263863.86046  21893945.6634   21893950.3044
      -414.4844       -322.9754
   3277434.34346   2022851.47445  23024488.4604   23024492.1044
     -2111.4224      -1645.2644
 98  6 17 21 58 30.0030000  0  6G 6G21G17G22G23G26
   7645349.97146   5892807.23646  22038895.8584   22038899.8434
     -3625.4534      -2825.0284
  -3628942.68345  -2731988.27745  24195132.1474   24195138.4174
      1124.7344        876.4164
   2833909.95547   2183621.10446  21677914.8274   21677918.8124
     -1363.7194      -1062.6384
   3751532.31345   2888901.75944  24476523.7654   24476529.0624
     -2152.5164      -1677.2854
   -347014.21046   -254017.71446  21896349.8904   21896354.2264
      -427.7814       -333.3364
   3341067.95646   2072436.12345  23036597.4684   23036600.9724
     -2130.7974      -1660.3614
 98  6 17 21 59  0.0030000  0  7G 6G 3G21G17G22G23G26
   7754350.33346   5977742.52946  22059638.1714   22059642.3544
     -3641.5314      -2837.5574
    -58663.66042                  25641369.9054
      2021.7194
  -3662567.32945  -2758189.20945  24188733.9054   24188739.8354
      1116.7194        870.1704
   2874925.53847   2215581.30547  21685719.8274   21685723.8944
     -1370.8124      -1068.1664
   3816345.26545   2939405.32944  24488857.4684   24488863.8434
     -2168.4844      -1689.7284
   -333988.08346   -243867.44746  21898829.0464   21898833.3584
      -440.8444       -343.5154
   3405277.75946   2122469.74345  23048815.9914   23048819.7294
     -2150.1874      -1675.4714
 98  6 17 21 59 30.0030000  0  7G 6G 3G21G17G22G23G26
   7863835.41746   6063055.51746  22080472.0074   22080476.1554
     -3657.2664      -2849.8174
   -119278.27642                  25629836.1404
      2019.2344
  -3695950.90845  -2784202.27345  24182380.8904   24182386.9834
      1108.9844        864.1444
   2916145.22547   2247700.55046  21693563.6324   21693568.1554
     -1377.0784      -1073.0484
   3881621.30044   2990269.75344  24501279.1474   24501285.6634
     -2183.0944      -1701.1124
   -320576.65446   -233416.95046  21901380.9914   21901385.4444
      -453.1094       -353.0724
   3470071.34546   2172958.26845  23061145.9994   23061150.3004
     -2169.1724      -1690.2644
 98  6 17 22  0  0.0030000  0  7G 6G 3G21G17G22G23G26
   7973797.49446   6148740.19246  22101397.3124   22101401.8354
     -3673.3124      -2862.3214
   -179797.40043                  25618319.1244
      2015.6254
  -3729087.67145  -2810023.03845  24176075.0624   24176080.9914
      1100.3134        857.3864
   2957568.57047   2279978.49447  21701446.2964   21701450.5154
     -1384.2344      -1078.6244
   3947344.89645   3041482.88744  24513785.6944   24513791.7884
     -2198.3754      -1713.0194
   -306781.83946   -222667.70846  21904006.3434   21904010.7264
      -466.4374       -363.4584
   3535438.70046   2223893.87145  23073585.0304   23073589.0384
     -2188.4694      -1705.3004
 98  6 17 22  0 30.0030000  0  7G 6G 3G21G17G22G23G26
   8084228.06946   6234789.93746  22122411.7264   22122416.0734
     -3688.9844      -2874.5334
   -240212.54943                  25606822.5624
      2011.7194
  -3761970.47745  -2835645.91945  24169817.5384   24169823.6674
      1091.7504        850.7144
   2999195.72247   2312415.24347  21709367.7334   21709371.5774
     -1391.1414      -1084.0064
   4013522.36845   3093049.70044  24526378.9994   24526384.9994
     -2213.5314      -1724.8304
   -292591.26846   -211610.08646  21906706.2414   21906710.3784
      -479.7664       -373.8434
   3601389.39246   2275284.02745  23086134.9994   23086139.2764
     -2208.6564      -1721.0314
 98  6 17 22  1  0.0030000  0  7G 6G 3G21G17G22G23G26
   8195115.69346   6321195.81546  22143512.9914   22143517.3044
     -3703.3914      -2885.7594
   -300516.71243    -42286.98752  25595347.4604   25595353.3784
      2008.4534       1565.0284
  -3794608.45945  -2861077.99945  24163607.2184   24163613.2294
      1084.0944        844.7484
   3041016.46947   2345002.84347  21717325.8044   21717329.8474
     -1397.0004      -1088.5714
   4080132.99945                  24539054.6244
     -2227.2814
   -278007.71946   -200246.25046  21909481.3744   21909485.5694
      -492.5784       -383.8274
   3667943.46246   2327144.34245  23098799.7334   23098803.5894
     -2228.3594      -1736.3844
 98  6 17 22  1 30.0030000  0  7G 6G 3G21G17G22G23G26
   8306427.16746   6407931.98246  22164694.8274   22164699.2924
     -3717.4534      -2896.7174
   -360705.18944    -89186.95543  25583893.3584   25583899.7924
      2003.9694       1561.5344
  -3827009.09745  -2886325.17245  24157441.2024   24157446.9094
      1075.7344        838.2354
   3083032.85947   2377742.90146  21725321.0624   21725325.3624
     -1404.4064      -1094.3434
   4147178.61745                  24551812.9054
     -2242.6874
   -263022.20246   -188569.18746  21912333.1634   21912337.1364
      -506.7814       -394.8944
   3735103.12146   2379476.55745  23111579.9684   23111584.0814
     -2249.2504      -1752.6624
 98  6 17 22  2  0.0030000  0  7G 6G 3G21G17G22G23G26
   8418138.57246   6494979.76846  22185952.7184   22185957.3124
     -3730.5784      -2906.9444
   -420785.40344   -136002.65442  25572460.2574   25572466.4444
      2001.0314       1559.2454
  -3859183.05945  -2911395.65745  24151318.1794   24151324.1794
      1068.5944        832.6704
   3125262.16547   2410648.86046  21733357.2724   21733361.2454
     -1411.3124      -1099.7244
   4214670.62145     15811.54054  24564656.4524   24564661.3514
     -2257.1874      -1758.8474
   -247622.56046   -176569.43646  21915263.6324   21915268.0034
      -520.3754       -405.4874
   3802874.00446   2432285.04145  23124476.3744   23124480.9444
     -2269.3754      -1768.3444
 98  6 17 22  2 30.0030000  0  7G 6G 3G21G17G22G23G26
   8530249.34246   6582338.75546  22207287.2334   22207291.7334
     -3743.9224      -2917.3424
   -480789.86744   -182759.28842  25561042.0464   25561047.4834
      1998.8594       1557.5534
  -3891141.58745  -2936298.32845  24145237.0074   24145243.1834
      1061.5474        827.1794
   3167695.29347   2443713.63946  21741432.0224   21741436.1714
     -1418.0164      -1104.9474
   4282594.05445     68738.82944  24577581.3124   24577587.5694
     -2271.4694      -1769.9764
   -231817.53446   -164253.79846  21918271.3434   21918275.6794
      -533.7034       -415.8734
   3871251.38846   2485566.12845  23137488.1014   23137492.4134
     -2289.3914      -1783.9414
 98  6 17 22  3  0.0030000  0  7G 6G 3G21G17G22G23G26
   8642756.51246   6670006.63346  22228696.4134   22228700.7264
     -3756.9224      -2927.4724
   -540739.62744   -229473.30442  25549633.9374   25549639.7844
      1997.4534       1556.4574
  -3922897.40645  -2961043.00645  24139193.7184   24139199.9994
      1055.1254        822.1754
   3210323.96647   2476930.79646  21749543.9294   21749547.9484
     -1424.2814      -1109.8304
   4350941.57045    121996.61744  24590588.1324   24590593.5694
     -2285.5004      -1780.9094
   -215622.63646   -151634.37246  21921353.0154   21921357.0814
      -546.3124       -425.6984
   3940211.47246   2539301.24945  23150610.7884   23150615.2414
     -2308.2814      -1798.6614
 98  6 17 22  3 30.0030000  0  7G 6G 3G21G17G22G23G26
   8755672.81446   6757993.31146  22250183.5384   22250187.3824
     -3770.4844      -2938.0404
   -600631.49244   -276142.20042  25538236.6554   25538241.0734
      1995.9534       1555.2884
  -3954437.46745  -2985619.58645  24133192.1404   24133197.8584
      1047.9844        816.6114
   3253164.34947   2510312.92246  21757696.1164   21757700.1834
     -1431.1564      -1115.1874
   4419732.12745    175599.63044  24603677.6944   24603683.7184
     -2299.8284      -1792.0744
   -199038.35546   -138711.52146  21924508.6554   21924512.9214
      -558.6564       -435.3174
   4009753.08746   2593489.52745  23163843.7024   23163847.9444
     -2327.1254      -1813.3444
 98  6 17 22  4  0.0030000  0  7G 6G 3G21G17G22G23G26
   8869025.62946   6846320.12746  22271753.9834   22271758.5194
     -3785.8914      -2950.0454
   -660467.32344   -322767.44942  25526850.3744   25526857.6204
      1993.6094       1553.4624
  -3985743.07145  -3010013.46245  24127234.4524   24127240.3354
      1039.4384        809.9514
   3296218.14447   2543861.33446  21765889.1014   21765893.0624
     -1438.3754      -1120.8124
   4488954.21945    229538.87544  24616850.8514   24616856.1834
     -2314.4844      -1803.4944
   -182075.96546   -125494.05046  21927736.6474   21927740.7374
      -571.4844       -445.3124
   4079866.57346   2648123.41345  23177186.3124   23177190.2374
     -2346.4844      -1828.4294
 98  6 17 22  4 30.0030000  0  7G 6G 3G21G17G22G23G26
   8982829.99746   6934998.79946  22293410.4604   22293415.3704
     -3800.9534      -2961.7824
   -720238.25344   -369342.08442  25515476.8124   25515483.3974
      1990.9844       1551.4164
  -4016796.19045  -3034210.56545  24121325.1554   24121330.8394
      1030.8444        803.2554
   3339467.98847   2577562.51446  21774119.2804   21774123.4644
     -1444.9374      -1125.9254
   4558614.49944    283819.59444  24630106.7024   24630112.8784
     -2329.5624      -1815.2444
   -164740.29346   -111985.70746  21931035.4524   21931039.4604
      -584.1724       -455.1994
   4150553.08846   2703203.83445  23190637.6554   23190641.7224
     -2365.9534      -1843.6004
 98  6 17 22  5  0.0030000  0  7G 6G 3G21G17G22G23G26
   9097069.49146   7024016.52646  22315149.4604   22315153.9014
     -3815.5474      -2973.1534
   -779933.32343   -415857.70042  25504116.8824   25504121.7454
      1987.9064       1549.0184
  -4047611.98745  -3058222.76745  24115461.1944   24115467.3124
      1022.8594        797.0334
   3382897.00547   2611403.31546  21782383.5384   21782387.5344
     -1450.8914      -1130.5644
   4628709.44144    338438.98844  24643445.2724   24643452.0344
     -2343.9534      -1826.4574
   -147045.37346    -98197.42746  21934402.6474   21934406.7264
      -596.1874       -464.5624
   4221811.74746   2758730.06245  23204197.5464   23204202.1634
     -2385.3594      -1858.7224
 98  6 17 22  5 30.0030000  0  7G 6G 3G21G17G22G23G26
   9211743.52546   7113372.86246  22336971.1794   22336975.5624
     -3828.9224      -2983.5754
   -839521.80343   -462290.21841  25492777.2104   25492780.9134
      1985.0784       1546.8144
  -4078176.94445  -3082039.52445  24109644.6554   24109650.6084
      1015.3284        791.1654
   3426505.69747   2645384.11146  21790681.9914   21790686.3974
     -1455.8284      -1134.4124
   4699237.15245    393395.61544  24656865.7884   24656872.3154
     -2357.3124      -1836.8674
   -128980.98846    -84121.25746  21937840.0624   21937844.2104
      -607.6874       -473.5234
   4293657.34246   2814713.65545  23217869.6874   23217874.5154
     -2403.8594      -1873.1374
 98  6 17 22  6  0.0030000  0  7G 6G 3G21G17G22G23G26
   9326834.67746   7203054.22346  22358872.7264   22358877.2614
     -3844.0314      -2995.3494
   -899007.48643   -508642.64541  25481456.9214   25481462.7334
      1980.2664       1543.0644
  -4108509.95045  -3105675.49745  24103872.6244   24103878.9294
      1006.6724        784.4204
   3470268.88847   2679485.29546  21799009.8044   21799013.9994
     -1462.0314      -1139.2454
   4770176.56745    448673.01744  24670365.9294   24670372.0344
     -2372.3914      -1848.6164
   -110552.97246    -69761.73446  21941347.0464   21941351.4294
      -621.1254       -483.9944
   4366079.31546   2871146.35145  23231650.5464   23231655.3044
     -2424.5624      -1889.2694
 98  6 17 22  6 30.0030000  0  7G 6G 3G21G17G22G23G26
   9442344.03946   7293061.47246  22380853.1324   22380857.7844
     -3857.1414      -3005.5644
   -958372.09943   -554900.73441  25470160.9134   25470163.3974
      1976.7814       1540.3494
  -4138616.60645  -3129135.12445  24098143.2104   24098149.0114
       999.8914        779.1364
   3514195.76447   2713714.02646  21807368.7414   21807372.8434
     -1467.2504      -1143.3124
   4841548.95745    504287.84744  24683947.3664   24683953.8944
     -2386.3754      -1859.5134
    -91745.72247    -55106.71046  21944925.7334   21944929.9294
      -633.2344       -493.4294
   4439097.19246   2928043.40845  23245545.6634   23245550.1404
     -2443.7664      -1904.2334
 98  6 17 22  7  0.0030000  0  7G 6G 3G21G17G22G23G26
   9558255.55546   7383382.07346  22402910.5384   22402915.3194
     -3870.4694      -3015.9504
  -1017612.74843   -601062.22342  25458887.8194   25458894.5114
      1972.4384       1536.9644
  -4168507.18145  -3152426.38245  24092455.2884   24092461.3474
       992.5944        773.4504
   3558305.36747   2748085.13946  21815762.5624   21815766.8514
     -1473.7194      -1148.3524
   4913354.34545    560240.05444  24697611.2884   24697617.5694
     -2400.8284      -1870.7754
    -72563.37746    -40159.40346  21948576.1474   21948580.4724
      -645.8594       -503.2674
   4512695.66946   2985392.87845  23259551.1164   23259555.4874
     -2462.8914      -1919.1364
 98  6 17 22  7 30.0030000  0  7G 6G 3G21G17G22G23G26
   9674573.47946   7474019.36146  22425045.0464   22425049.7924
     -3885.1254      -3027.3704
  -1076718.70844   -647118.73642  25447639.9054   25447646.9644
      1967.1564       1532.8494
  -4198169.36345  -3175539.67245  24086810.5224   24086816.4874
       984.1094        766.8384
   3602627.47247   2782621.85046  21824196.7804   21824201.0934
     -1482.1414      -1154.9154
   4985605.20844    616539.35944  24711360.5774   24711367.1514
     -2416.8444      -1883.2554
    -52987.52146    -24905.46046  21952301.2104   21952305.3474
      -660.1414       -514.3954
   4586866.82546   3043188.58345  23273664.9134   23273668.9334
     -2482.7814      -1934.6354
 98  6 17 22  8  0.0030000  0  7G 6G 3G21G17G22G23G26
   9791306.23246   7564979.89746  22447258.5544   22447263.1364
     -3897.8914      -3037.3174
  -1135709.49644   -693085.56842  25436414.2724   25436420.0734
      1964.4844       1530.7674
  -4227623.41045  -3198490.79345  24081205.5384   24081211.4444
       978.3914        762.3824
   3647168.26847   2817328.96246  21832672.6084   21832676.8864
     -1488.3594      -1159.7614
   5058305.59344    673188.97344  24725195.4834   24725201.6014
     -2430.9374      -1894.2374
    -33019.94147     -9346.27946  21956100.8974   21956105.0464
      -672.1254       -523.7344
   4661601.65446   3101423.51745  23287886.5154   23287891.2374
     -2500.4064      -1948.3694
 98  6 17 22  8 30.0030000  0  7G 6G 3G21G17G22G23G26
   9908433.36746   7656247.72646  22469547.1634   22469551.9914
     -3910.6874      -3047.2894
  -1194598.12044   -738972.74242  25425208.3274   25425213.4374
      1961.3444       1528.3204
  -4256876.72845  -3221285.51245  24075638.8044   24075645.0624
       971.6564        757.1354
   3691923.71147   2852203.32946  21841189.2804   21841193.8514
     -1495.6094      -1165.4104
   5131454.73845    730188.25444  24739114.9374   24739120.2694
     -2445.7814      -1905.8044
    -12664.95646      6514.77946  21959974.3904   21959978.7374
      -684.9694       -533.7424
   4736878.83846   3160081.07145  23302211.2414   23302215.8704
     -2518.2034      -1962.2364
 98  6 17 22  9  0.0030000  0  7G 6G 3G21G17G22G23G26
  10025957.75146   7747825.11046  22491911.3434   22491916.1714
     -3924.4224      -3057.9914
  -1253378.67944   -784775.70743  25414022.7264   25414028.8084
      1957.5474       1525.3614
  -4285913.14846  -3243911.19445  24070113.5464   24070119.5344
       964.0944        751.2424
   3736904.12847   2887253.00646  21849748.5384   21849752.8864
     -1502.9224      -1171.1084
   5205047.30245    787533.09244  24753119.0624   24753125.4254
     -2460.2194      -1917.0544
      8085.01246     22683.61746  21963922.7184   21963926.7964
      -698.4374       -544.2374
   4812702.43446   3219164.39145  23316640.3584   23316644.8474
     -2536.7974      -1976.7254
 98  6 17 22  9 30.0030000  0  7G 6G 3G21G17G22G23G26
  10143913.27646   7839738.44746  22514357.9214   22514362.5504
     -3938.9844      -3069.3384
  -1312048.51944   -830492.42043  25402857.6634   25402863.7694
      1954.0784       1522.6584
  -4314717.43545  -3266355.98345  24064632.3514   24064638.4684
       956.4694        745.3004
   3782097.62447   2922468.71346  21858348.8274   21858352.9644
     -1509.6094      -1176.3194
   5279070.48845    845213.43044  24767205.3824   24767211.0074
     -2474.3124      -1928.0364
     29248.95646     39175.03246  21967950.2804   21967954.1944
      -712.1564       -554.9274
   4889099.14046   3278694.30245  23331178.0384   23331182.4794
     -2556.1724      -1991.8224
 98  6 17 22 10  0.0030000  0  7G 6G 3G21G17G22G23G26
  10262311.73246   7931996.93046  22536888.3354   22536892.7654
     -3953.9694      -3081.0154
  -1370598.45343   -876115.64742  25391716.2414   25391721.6084
      1949.2034       1518.8604
  -4343271.40745  -3288605.73645  24059198.1554   24059204.0974
       947.0634        737.9714
   3827502.45346   2957849.09446  21866989.2184   21866993.4374
     -1517.4064      -1182.3944
   5353529.08145    903233.07744  24781374.7724   24781380.6794
     -2489.4064      -1939.7974
     50831.76446     55992.83846  21972057.3274   21972061.5224
      -726.5944       -566.1774
   4966097.43746   3338692.97345  23345830.4764   23345834.9404
     -2576.9694      -2008.0284
 98  6 17 22 10 30.0030000  0  7G 6G 3G21G17G22G23G26
  10381135.41846   8024586.75746  22559499.5224   22559504.4794
     -3967.7504      -3091.7534
  -1429017.55942   -921636.95342  25380599.5544   25380606.5654
      1945.5004       1515.9744
  -4371552.83545  -3310643.12945  24053816.6634   24053822.6044
       938.2974        731.1404
   3873128.86747   2993402.14546  21875671.6634   21875675.9404
     -1524.3444      -1187.8004
   5428408.80845    961580.85943  24795623.7334   24795629.1944
     -2502.5624      -1950.0494
     72823.42446     73129.22746  21976242.0544   21976246.1444
      -739.3594       -576.1244
   5043704.35246   3399165.90645  23360598.2494   23360603.0544
     -2596.9694      -2023.6124
 98  6 17 22 11  0.0030000  0  7G 6G 3G21G17G22G23G26
  10500391.33646   8117513.38146  22582193.4764   22582198.3624
     -3982.1254      -3102.9554
  -1487307.77842   -967057.86642  25369506.9374   25369513.2884
      1941.1094       1512.5534
  -4399558.92345  -3332465.94945  24048487.2414   24048493.0424
       929.3284        724.1524
   3918970.85947   3029123.17547  21884395.2184   21884399.3084
     -1531.1724      -1193.1214
   5503688.34245   1020240.17643  24809948.6714   24809954.1444
     -2515.5164      -1960.1424
     95203.09246     90567.95746  21980500.7414   21980505.0424
      -752.1874       -586.1204
   5121924.43746   3460116.62945  23375483.3904   23375487.6324
     -2617.0314      -2039.2454
 98  6 17 22 11 30.0030000  0  7G 6G 3G21G17G22G23G26
  10620073.37946   8210772.05746  22604967.9684   22604972.7374
     -3996.2194      -3113.9374
  -1545466.63742  -1012376.32342  25358438.8664   25358446.2654
      1936.1884       1508.7184
  -4427298.31845  -3354080.96245  24043208.1244   24043214.0194
       920.2034        717.0414
   3965022.56946   3065007.62146  21893158.0774   21893162.3434
     -1538.7814      -1199.0504
   5579362.25444   1079206.84043  24824348.7574   24824354.8274
     -2529.1874      -1970.7954
    117967.41446    108306.43046  21984832.7414   21984837.0894
      -765.0004       -596.1044
   5200738.80546   3521530.42445  23390481.4914   23390485.5934
     -2636.9064      -2054.7324
 98  6 17 22 12  0.0040000  0  7G 6G 3G21G17G22G23G26
  10740165.57746   8304350.34046  22627821.1374   22627825.7194
     -4009.7194      -3124.4564
  -1603478.79643  -1057580.56142  25347399.6214   25347406.1374
      1931.0784       1504.7364
  -4454768.91245  -3375486.51145  24037980.6994   24037987.0274
       911.2034        710.0284
   4011303.12047   3101070.38846  21901965.0354   21901969.1724
     -1546.3914      -1204.9804
   5655444.04344   1138491.28244  24838826.7934   24838832.3714
     -2542.6874      -1981.3154
    141101.77646    126333.23746  21989234.7304   21989238.7624
      -777.2974       -605.6864
   5280135.57146   3583398.03845  23405589.6454   23405593.7934
     -2655.9534      -2069.5744
 98  6 17 22 12 30.0040000  0  7G 6G 3G21G17G22G23G26
  10860672.30146   8398251.62546  22650752.6294   22650757.2464
     -4023.6564      -3135.3174
  -1661332.87044  -1102661.56942  25336391.6994   25336397.2664
      1926.3284       1501.0354
  -4481972.19545  -3396683.79745  24032804.3014   24032809.9494
       902.9844        703.6244
   4057802.81947   3137303.91646  21910813.8244   21910818.0314
     -1552.8754      -1210.0324
   5731925.05344   1198086.84644  24853380.7234   24853386.6994
     -2555.6724      -1991.4334
    164608.58646    144650.25946  21993708.0044   21993711.9304
      -789.2974       -615.0374
   5360096.75646   3645705.45945  23420805.8874   23420810.0354
     -2674.2814      -2083.8564
 98  6 17 22 13  0.0040000  0  7G 6G 3G21G17G22G23G26
  10981591.70546   8492474.48346  22673762.9804   22673767.8204
     -4037.5624      -3146.1534
  -1719037.68044  -1147626.31442  25325410.0434   25325416.3954
      1920.8914       1496.7984
  -4508943.29445  -3417700.12545  24027671.5984   24027677.9374
       895.3134        697.6464
   4104487.44346   3173681.54347  21919697.6524   21919701.8834
     -1559.3914      -1215.1104
   5808800.05944   1257989.40144  24868009.5204   24868015.6024
     -2569.1414      -2001.9284
    188474.92646    163247.44146  21998249.6214   21998253.5474
      -801.7814       -624.7654
   5440598.42346   3708434.03845  23436124.9654   23436128.8554
     -2692.3914      -2097.9674
 98  6 17 22 13 30.0040000  0  7G 6G 3G21G17G22G23G26
  11102911.91046   8587009.63846  22696849.5124   22696854.0594
     -4050.8594      -3156.5144
  -1776606.93844  -1192485.41642  25314455.1764   25314458.9264
      1916.5784       1493.4384
  -4535707.68245  -3438555.41645  24022578.3794   24022584.4734
       888.5474        692.3744
   4151353.23046   3210200.33246  21928615.9344   21928620.0944
     -1565.4374      -1219.8214
   5886065.86644   1318196.48344  24882712.4414   24882718.5704
     -2582.4374      -2012.2894
    212691.90446    182117.84046  22002857.9104   22002861.8364
      -812.9844       -633.4944
   5521631.81846   3771576.94945  23451544.8324   23451549.3674
     -2710.3914      -2111.9934
 98  6 17 22 14  0.0040000  0  7G 6G 3G21G17G22G23G26
  11224655.19746   8681874.48046  22720016.4574   22720021.0864
     -4064.7504      -3167.3384
  -1834025.30744  -1237226.94442  25303529.1294   25303532.2584
      1912.0634       1489.9194
  -4562244.28345  -3459233.19045  24017528.8404   24017534.7464
       881.1414        686.6034
   4198426.30647   3246880.64446  21937573.6524   21937577.7894
     -1572.1414      -1225.0454
   5963760.09945   1378737.37844  24897498.1214   24897503.0664
     -2596.5474      -2023.2834
    237271.08146    201270.48846  22007535.2304   22007539.3794
      -825.1254       -642.9554
   5603235.41546   3835164.17745  23467073.4654   23467078.3524
     -2729.1874      -2126.6404
 98  6 17 22 14 30.0040000  0  7G 6G 3G21G17G22G23G26
  11346802.41746   8777054.08346  22743260.2934   22743265.0274
     -4078.2344      -3177.8454
  -1891321.65644  -1281873.37842  25292625.6844   25292628.7894
      1907.7344       1486.5464
  -4588567.25145  -3479744.49545  24012519.3324   24012525.2384
       873.7034        680.8084
   4245690.40247   3283709.81146  21946567.8094   21946571.9574
     -1578.9224      -1230.3294
   6041867.57544   1439600.29444  24912361.4804   24912366.2274
     -2610.6414      -2034.2654
    262209.30246    220702.90246  22012280.7154   22012285.2854
      -837.3754       -652.5004
   5685390.13446   3899180.84845  23482706.8714   23482711.2664
     -2747.8284      -2141.1654
 98  6 17 22 15  0.0040000  0  7G 6G 3G21G17G22G23G26
  11469347.04346   8872543.33946  22766579.9884   22766585.1564
     -4091.6414      -3188.2914
  -1948485.73844  -1326416.78942  25281747.3954   25281753.7814
      1903.1094       1482.9424
  -4614658.58645  -3500075.28645  24007554.1054   24007560.1874
       865.3754        674.3184
   4293175.27946   3320711.01346  21955603.7074   21955607.9264
     -1587.1094      -1236.7094
   6120403.90444   1500797.42544  24927305.9104   24927312.3324
     -2625.1724      -2045.5884
    287523.65747    240428.40846  22017097.7774   22017102.1134
      -850.5004       -662.7274
   5768114.18546   3963641.13745  23498449.0824   23498453.1844
     -2767.2344      -2156.2874
 98  6 17 22 15 30.0040000  0  7G 6G 3G21G17G22G23G26
  11592297.37546   8968348.73646  22789976.3714   22789981.6094
     -4104.2194      -3198.0934
  -2005507.36044  -1370849.10342  25270896.0904   25270901.9614
      1898.8914       1479.6554
  -4640486.06146  -3520200.49745  24002639.0824   24002644.9304
       857.0944        667.8654
   4340912.74447   3357909.03846  21964687.9414   21964692.1374
     -1594.6254      -1242.5654
   6199379.38845   1562336.71244  24942334.9574   24942341.5904
     -2639.0314      -2056.3884
    313236.78646    260464.65146  22021990.9414   22021995.1484
      -863.0624       -672.5164
   5851420.88446   4028555.44745  23514302.0124   23514305.8444
     -2785.7814      -2170.7394
 98  6 17 22 16  0.0040000  0  7G 6G 3G21G17G22G23G26
  11715637.23346   9064457.64746  22813447.2074   22813452.1524
     -4118.0624      -3208.8804
  -2062379.10844  -1415164.69343  25260073.9734   25260081.0784
      1892.8594       1474.9554
  -4666046.39045  -3540117.51645  23997775.2464   23997781.0234
       847.2504        660.1954
   4388892.84446   3395296.12247  21973818.0044   21973822.5744
     -1603.5944      -1249.5544
   6278772.23245   1624201.20544  24957442.2774   24957448.6174
     -2653.2344      -2067.4554
    339355.22846    280816.71746  22026961.1684   22026965.0944
      -877.8124       -684.0104
   5935292.42146   4093909.89745  23530262.1684   23530265.9884
     -2805.1094      -2185.8004
 98  6 17 22 16 30.0040000  0  7G 6G 3G21G17G22G23G26
  11839373.32546   9160875.32446  22836993.8484   22836998.9924
     -4130.9064      -3218.8884
  -2119074.60444  -1459342.90343  25249285.5514   25249291.6564
      1886.9384       1470.3414
  -4691333.22146  -3559821.40845  23992963.2464   23992969.3054
       838.7664        653.5844
   4437113.37847   3432870.56547  21982993.9804   21982998.2464
     -1610.9694      -1255.3004
   6358563.92745   1686376.54744  24972626.4574   24972632.8324
     -2666.0314      -2077.4274
    365894.00046    301496.30446  22032011.4024   22032015.5394
      -891.1564       -694.4074
   6019722.07046   4159699.24445  23546328.3874   23546332.6874
     -2823.4224      -2200.0694
 98  6 17 22 17  0.0040000  0  7G 6G 3G21G17G22G23G26
  11963508.25546   9257603.77946  22860615.9104   22860620.6564
     -4145.2344      -3230.0534
  -2175588.82045  -1503379.91643  25238531.3714   25238536.8204
      1880.2194       1465.1064
  -4716367.75146  -3579328.69245  23988199.3164   23988205.0124
       829.9384        646.7054
   4485561.98047   3470622.72146  21992213.7774   21992217.9844
     -1619.2974      -1261.7904
   6438741.61644   1748852.60344  24987883.7934   24987890.2854
     -2679.5314      -2087.9464
    392828.52746    322484.27746  22037136.7074   22037140.7274
      -904.7504       -705.0004
   6104705.17946   4225919.83045  23562500.6134   23562504.4224
     -2842.4224      -2214.8744
 98  6 17 22 17 30.0040000  0  7G 6G 3G21G17G22G23G26
  12088055.29846   9354653.35846  22884316.4574   22884321.6374
     -4157.2344      -3239.4034
  -2231911.30545  -1547267.47844  25227812.9654   25227818.6954
      1875.2974       1461.2704
  -4741160.70946  -3598647.76145  23983481.0434   23983486.8674
       823.4694        641.6644
   4534235.98746   3508550.51846  22001476.0904   22001480.3094
     -1624.9844      -1266.2224
   6519306.37144   1811630.28844  25003214.6844   25003221.3404
     -2690.8444      -2096.7614
    420143.22446    343768.48646  22042334.2774   22042338.3094
      -915.6094       -713.4624
   6190239.12546   4292569.65345  23578776.9494   23578780.8284
     -2859.4224      -2228.1214
 98  6 17 22 18  0.0040000  0  7G 6G 3G21G17G22G23G26
  12212991.00046   9452005.78446  22908091.0664   22908095.9774
     -4171.4844      -3250.5074
  -2288060.09644  -1591019.70543  25217128.6054   25217134.8984
      1868.1724       1455.7184
  -4765731.16346  -3617793.45545  23978805.5594   23978811.4064
       814.8134        634.9194
   4583112.10146   3546635.80047  22010776.9184   22010781.2894
     -1633.0784      -1272.5284
   6600241.66645   1874696.67344  25018616.8874   25018622.8984
     -2704.6874      -2107.5494
    447809.04747    365326.29246  22047599.0744   22047603.2584
      -928.4064       -723.4334
   6276319.73746   4359645.45845  23595157.4344   23595161.4534
     -2878.9534      -2243.3404
 98  6 17 22 18 30.0040000  0  7G 6G 3G21G17G22G23G26
  12338324.81746   9549668.43846  22931941.3014   22931946.1294
     -4184.1094      -3260.3454
  -2344014.66243  -1634620.61243  25206480.4264   25206485.3364
      1862.2664       1451.1164
  -4790059.63846  -3636750.58145  23974175.7934   23974181.5354
       807.0164        628.8434
   4632205.38346   3584890.29947  22020118.8874   22020123.3404
     -1640.0314      -1277.9464
   6681584.02345   1938080.30244  25034095.4184   25034101.1134
     -2718.2504      -2118.1174
    475833.45647    387163.51746  22052931.9024   22052936.0624
      -939.9224       -732.4074
   6362967.25246   4427162.98445  23611645.8094   23611649.9224
     -2897.7194      -2257.9634
 98  6 17 22 19  0.0040000  0  7G 6G 3G21G17G22G23G26
  12464030.01546   9647620.47946  22955862.2154   22955866.9264
     -4196.6254      -3270.0974
  -2399811.55343  -1678098.62943  25195861.8164   25195865.7894
      1856.9384       1446.9644
  -4814158.47346  -3655528.78745  23969589.6684   23969595.4344
       798.8284        622.4634
   4681513.67646   3623312.33946  22029502.1294   22029506.5824
     -1647.6874      -1283.9124
   6763327.50644   2001776.47344  25049651.1994   25049657.0124
     -2731.8594      -2128.7224
    504197.56247    409265.45046  22058329.4494   22058333.4574
      -951.7034       -741.5874
   6450171.42346   4495114.26745  23628240.2154   23628244.3164
     -2916.6414      -2272.7074
 98  6 17 22 19 30.0040000  0  7G 6G 3G21G17G22G23G26
  12590091.15746   9745849.85946  22979850.8794   22979856.0004
     -4207.4694      -3278.5474
  -2455444.76843  -1721449.08742  25185275.8554   25185282.1724
      1852.0164       1443.1294
  -4837999.14446  -3674105.80945  23965052.8484   23965058.7074
       790.4384        615.9254
   4731045.05146   3661908.21346  22038927.4184   22038931.8124
     -1654.2814      -1289.0504
   6845476.43245   2065788.58444  25065282.7774   25065289.3284
     -2744.6414      -2138.6814
    532923.71147    431649.48546  22063795.9414   22063799.9844
      -963.4844       -750.7674
   6537951.26046   4563514.14045  23644944.4494   23644948.3164
     -2935.3754      -2287.3054
 98  6 17 22 20  0.0040000  0  7G 6G 3G21G17G22G23G26
  12716493.31446   9844344.98646  23003904.3714   23003909.1764
     -4219.5784      -3287.9834
  -2510918.09944  -1764674.98343  25174720.0204   25174725.9734
      1845.9694       1438.4174
  -4861575.02646  -3692476.48445  23960566.7774   23960572.5784
       781.2974        608.8034
   4780784.72846   3700666.39746  22048392.8164   22048397.1644
     -1661.8444      -1294.9434
   6928016.79544   2130105.68544  25080990.1214   25080995.7464
     -2758.1564      -2149.2134
    562022.58547    454323.95946  22069333.0204   22069337.5204
      -976.6094       -760.9944
   6626301.12546   4632358.17245  23661756.6374   23661760.7734
     -2954.5944      -2302.2814
 98  6 17 22 20 30.0040000  0  7G 6G 3G21G17G22G23G26
  12843262.28146   9943125.92546  23028027.8244   23028032.9924
     -4231.2814      -3297.1024
  -2566214.81144  -1807763.27243  25164196.7154   25164202.3054
      1841.0164       1434.5584
  -4884885.22145  -3710640.16745  23956130.7704   23956136.6174
       773.2034        602.4964
   4830750.69546   3739600.90946  22057900.9104   22057905.2814
     -1668.9374      -1300.4714
   7010954.04145   2194732.03643  25096772.9184   25096778.9064
     -2770.4844      -2158.8194
    591516.64547    477306.37246  22074945.8484   22074949.9144
      -989.2034       -770.8084
   6715220.34546   4701645.86245  23678677.1454   23678681.6454
     -2973.0164      -2316.6364
 98  6 17 22 21  0.0040000  0  7G 6G 3G21G17G22G23G26
  12970400.08646  10042194.28446  23052221.3014   23052225.9534
     -4243.8284      -3306.8794
  -2621354.15345  -1850728.93744  25153704.1994   25153708.7814
      1835.4694       1430.2354
  -4907947.61246  -3728610.74445  23951741.9964   23951747.3524
       764.9694        596.0804
   4880944.32746   3778712.82947  22067452.5594   22067456.6254
     -1676.4224      -1306.3034
   7094262.86945   2259647.95643  25112626.2304   25112632.6644
     -2782.6564      -2168.3044
    621397.84747    500590.45646  22080631.7774   22080635.7854
     -1002.1874       -780.9254
   6804704.02246   4771373.39245  23695705.5514   23695709.6174
     -2991.8914      -2331.3434
 98  6 17 22 21 30.0040000  0  7G 6G 3G21G17G22G23G26
  13097916.72446  10141557.83446  23076486.7934   23076491.4104
     -4256.8444      -3317.0214
  -2676314.88445  -1893555.41844  25143245.6214   25143250.4734
      1829.2194       1425.3654
  -4930757.46446  -3746384.55445  23947401.0274   23947406.9224
       756.4844        589.4684
   4931360.13446   3817997.87546  22077046.3244   22077050.6024
     -1684.0314      -1312.2324
   7177934.66144   2324846.71344  25128547.9264   25128553.8204
     -2794.7194      -2177.7034
    651677.20647    524184.79646  22086393.9184   22086397.9614
     -1015.6874       -791.4454
   6894753.05846   4841541.46345  23712841.4804   23712845.2194
     -3010.4534      -2345.8084
 98  6 17 22 22  0.0040000  0  7G 6G 3G21G17G22G23G26
  13225832.44146  10241232.35746  23100828.3244   23100832.9774
     -4271.2814      -3328.2714
  -2731094.95445  -1936241.14744  25132821.7154   25132826.4844
      1822.4694       1420.1064
  -4953327.67846  -3763971.62545  23943106.1214   23943111.9924
       747.8754        582.7604
   4981998.65646   3857456.45746  22086682.3794   22086686.7734
     -1692.2974      -1318.6734
   7261956.64844   2390318.35243  25144537.3714   25144543.5824
     -2807.1254      -2187.3704
    682346.81747    548083.22046  22092230.0274   22092234.1294
     -1029.2664       -802.0254
   6985337.35646   4912126.61845  23730079.0044   23730083.1644
     -3028.8124      -2360.1144
 98  6 17 22 22 30.0040000  0  7G 6G 3G21G17G22G23G26
  13354162.71046  10341229.88646  23125248.9654   23125253.8634
     -4284.2194      -3338.3524
  -2785688.00045  -1978781.10043  25122432.9884   25122438.1094
      1816.8594       1415.7354
  -4975647.77546  -3781363.82045  23938858.8954   23938864.7074
       739.7974        576.4654
   5032871.81646   3897097.87046  22096363.2304   22096367.6024
     -1699.3444      -1324.1644
   7346334.83845   2456067.52544  25160593.2384   25160599.0864
     -2818.2814      -2196.0634
    713407.79347    572286.60146  22098140.9264   22098144.9694
     -1041.5944       -811.6314
   7076459.36446   4983130.77045  23747418.5274   23747422.6644
     -3046.1414      -2373.6164
 98  6 17 22 23  0.0040000  0  7G 6G 3G21G17G22G23G26
  13482896.30646  10441541.70746  23149746.6604   23149751.6874
     -4297.5164      -3348.7134
  -2840089.75344  -2021172.04643  25112080.2854   25112085.7234
      1810.3284       1410.6454
  -4997699.20246  -3798546.66645  23934662.6454   23934668.7624
       730.6884        569.3674
   5083965.28646   3936910.96346  22106086.1684   22106090.4574
     -1706.2814      -1329.5704
   7431059.14344   2522086.37643  25176716.2544   25176721.8094
     -2829.5784      -2204.8664
    744850.41747    596787.37546  22104123.9024   22104127.8164
     -1054.1414       -821.4084
   7168120.87146   5054555.30345  23764861.4494   23764865.7154
     -3064.0624      -2387.5814
 98  6 17 22 23 30.0040000  0  7G 6G 3G21G17G22G23G26
  13612021.33446  10542158.54446  23174318.0984   23174323.0434
     -4310.9844      -3359.2094
  -2894294.86444  -2063409.75642  25101764.9964   25101770.7034
      1803.2504       1405.1304
  -5019474.99046  -3815514.73145  23930518.5514   23930524.2234
       721.0004        561.8184
   5135259.65646   3976880.59546  22115847.2154   22115851.6684
     -1713.5624      -1335.2444
   7516126.34945   2588372.48244  25192903.7464   25192910.3444
     -2841.7344      -2214.3384
    776664.53247    621577.62546  22110178.1054   22110182.2664
     -1066.7664       -831.2464
   7260310.32846   5126391.22645  23782404.7304   23782408.4694
     -3082.0164      -2401.5714
 98  6 17 22 24  0.0040000  0  7G 6G 3G21G17G22G23G26
  13741551.31446  10643090.93946  23198966.8714   23198972.5434
     -4323.8124      -3369.2054
  -2948283.40644  -2105478.67443  25091491.3954   25091496.4574
      1796.5004       1399.8704
  -5040961.95046  -3832257.74345  23926429.8714   23926435.7194
       711.8444        554.6834
   5186775.75246   4017023.00746  22125650.1054   22125654.6294
     -1720.4694      -1340.6254
   7601570.46644   2654952.23843  25209163.5824   25209169.4654
     -2854.2664      -2224.1034
    808853.07247    646659.64046  22116303.3014   22116307.8014
     -1078.9064       -840.7064
   7353052.93846   5198658.18945  23800052.8714   23800057.2424
     -3100.6414      -2416.0844
 98  6 17 22 24 30.0040000  0  7G 6G 3G21G17G22G23G26
  13871442.62746  10744304.86046  23223684.4414   23223689.5164
     -4334.6254      -3377.6304
  -3002079.21745  -2147397.44843  25081254.9264   25081260.8204
      1790.8134       1395.4384
  -5062182.47146  -3848793.12445  23922391.8404   23922397.7114
       703.8134        548.4254
   5238498.26046   4057326.25246  22135492.7774   22135497.0554
     -1726.8124      -1345.5684
   7687389.73944   2721824.31344  25225493.9804   25225500.0044
     -2866.1254      -2233.3444
    841403.87647    672023.93146  22122497.4494   22122501.4694
     -1090.1564       -849.4724
   7446352.52046   5271359.16145  23817807.1994   23817811.0784
     -3118.4224      -2429.9394
 98  6 17 22 25  0.0040000  0  7G 6G 3G21G17G22G23G26
  14001667.73746  10845778.89746  23248465.2234   23248470.6254
     -4346.9694      -3387.2484
  -3055689.03445  -2189171.29843  25071052.8404   25071057.8674
      1783.2194       1389.5214
  -5083159.85446  -3865139.08145  23918399.9964   23918405.4924
       694.8594        541.4494
   5290428.15446   4097791.09246  22145374.4344   22145378.8634
     -1735.2344      -1352.1314
   7773582.55444   2788987.49343  25241896.2774   25241902.2894
     -2880.0474      -2244.1924
    874299.91047    697657.22546  22128757.5204   22128761.3284
     -1102.9064       -859.4074
   7540198.88846   5344486.18445  23835665.9344   23835670.0124
     -3137.9224      -2445.1344
 98  6 17 22 25 30.0040000  0  7G 6G 3G21G17G22G23G26
  14132229.66146  10947515.39846  23273310.9804   23273316.3364
     -4357.5944      -3395.5284
  -3109103.29845  -2230792.73043  25060888.7464   25060894.2664
      1777.2664       1384.8824
  -5103905.95246  -3881304.80245  23914451.9494   23914457.8204
       687.7974        535.9464
   5342585.19946   4138432.95346  22155300.1294   22155304.4064
     -1742.4534      -1357.7564
   7860166.06644   2856455.10043  25258373.3094   25258379.4144
     -2892.4374      -2253.8474
    907546.02147    723563.31346  22135083.8714   22135087.6454
     -1113.8284       -867.9184
   7634592.79346   5418039.86145  23853628.3404   23853632.6644
     -3155.4224      -2458.7704
 98  6 17 22 26  0.0040000  0  7G 6G 3G21G17G22G23G26
  14263131.27846  11049516.59546  23298220.4734   23298225.7344
     -4368.5624      -3404.0754
  -3162311.57345  -2272253.66543  25050763.3094   25050769.4844
      1770.6414       1379.7204
  -5124416.96046  -3897287.34345  23910548.6844   23910554.4734
       680.0314        529.8944
   5394982.03646   4179261.65746  22165270.4964   22165274.7384
     -1750.0624      -1363.6854
   7947132.83544   2924221.35443  25274921.9884   25274928.7034
     -2904.8124      -2263.4904
    941143.61147    749743.27546  22141477.5124   22141481.3914
     -1125.5004       -877.0134
   7729534.57446   5492020.46345  23871695.3634   23871699.0434
     -3173.3444      -2472.7354
 98  6 17 22 26 30.0040000  0  7G 6G 3G21G17G22G23G26
  14394376.75146  11151785.71746  23323195.7704   23323201.0204
     -4381.0004      -3413.7664
  -3215311.16044  -2313551.96643  25040676.9654   25040683.6684
      1762.9064       1373.6934
  -5144680.09046  -3913076.73145  23906693.0744   23906698.8754
       671.0784        522.9184
   5447617.99346   4220276.68546  22175287.2304   22175291.8484
     -1758.7194      -1370.4304
   8034476.53044   2992281.29744  25291543.0514   25291550.3204
     -2917.6414      -2273.4864
    975093.04247    776197.39346  22147937.6684   22147941.5704
     -1137.3754       -886.2664
   7825012.44846   5566418.78845  23889863.9734   23889868.0164
     -3191.5624      -2486.9324
 98  6 17 22 27  0.0040000  0  7G 6G 3G21G17G22G23G26
  14525994.97146  11254345.30546  23348242.1764   23348247.2384
     -4393.6874      -3423.6534
  -3268090.76844  -2354678.86743  25030633.6994   25030640.3674
      1755.7194       1368.0934
  -5164686.77846  -3928666.29645  23902885.4884   23902891.4884
       662.4694        516.2094
   5500496.52046   4261480.73746  22185349.6294   22185354.2344
     -1766.5164      -1376.5064
   8122179.49344   3060621.21943  25308232.2234   25308238.3054
     -2929.2504      -2282.5324
   1009381.41047    802915.62946  22154462.3874   22154466.4064
     -1148.6874       -895.0814
   7921024.42446   5641233.29645  23908134.5514   23908139.1094
     -3209.3284      -2500.7754
 98  6 17 22 27 30.0040000  0  7G 6G 3G21G17G22G23G26
  14658002.06846  11357207.90146  23373362.0514   23373367.3594
     -4406.9534      -3433.9894
  -3320648.11344  -2395632.53143  25020632.4884   25020638.5594
      1747.9224       1362.0174
  -5184414.73146  -3944038.65245  23899131.3094   23899137.1094
       652.4844        508.4294
   5553611.17446   4302868.78146  22195456.7854   22195461.3674
     -1774.6094      -1382.8124
   8210230.84344   3129232.58743  25324988.1374   25324994.0314
     -2940.9694      -2291.6644
   1044020.16747    829906.88446  22161054.0594   22161057.9844
     -1160.7034       -904.4444
   8017573.74546   5716466.52945  23926507.0824   23926511.4534
     -3227.5004      -2514.9354
 98  6 17 22 28  0.0040000  0  7G 6G 3G21G17G22G23G26
  14790393.89946  11460370.30146  23398555.3164   23398560.4494
     -4419.3444      -3443.6444
  -3372980.15245  -2436410.68643  25010674.0904   25010679.6334
      1740.8444       1356.5024
  -5203858.01246  -3959189.20445  23895431.4494   23895437.4264
       643.6254        501.5264
   5606957.70846   4344437.51046  22205608.0824   22205612.5704
     -1781.9374      -1388.5234
   8298624.55444   3198110.76244  25341808.8714   25341814.8484
     -2952.2344      -2300.4424
   1079013.28147    857174.27346  22167712.9884   22167717.2194
     -1172.3124       -913.4904
   8114656.26946   5792115.23645  23944981.2234   23944985.8404
     -3244.8444      -2528.4504
 98  6 17 22 28 30.0040000  0  7G 6G 3G21G17G22G23G26
  14923144.95946  11563812.60646  23423817.5354   23423822.5744
     -4431.2814      -3452.9464
  -3425114.90845  -2477035.12944  25000753.2074   25000758.8554
      1734.1094       1351.2544
  -5223055.22546  -3974147.99945  23891778.4494   23891783.8404
       635.6564        495.3174
   5660514.18046   4386169.83246  22215799.8714   22215804.5474
     -1789.2194      -1394.1964
   8387337.30944   3267237.52443  25358690.8094   25358697.6414
     -2962.4694      -2308.4174
   1114335.50547    884698.10246  22174434.4184   22174438.5084
     -1183.2504       -922.0134
   8212240.67246   5868155.02845  23963551.1054   23963554.9734
     -3261.4534      -2541.3924
 98  6 17 22 29  0.0040000  0  7G 6G 3G21G17G22G23G26
  15056249.63946  11667530.47045  23449146.4654   23449151.3404
     -4442.9374      -3462.0294
  -3477029.97345  -2517488.37544  24990874.0434   24990879.4924
      1725.9064       1344.8624
  -5242004.42746  -3988913.54245  23888172.3244   23888178.0904
       626.7034        488.3404
   5714300.28747   4428081.08746  22226035.0664   22226039.6604
     -1797.2504      -1400.4554
   8476365.71244   3336610.22443  25375631.6214   25375638.9374
     -2973.7194      -2317.1834
   1150010.96047    912497.18346  22181223.2074   22181227.1914
     -1195.9844       -931.9364
   8310332.42146   5944590.13345  23982217.2544   23982221.9184
     -3278.7814      -2554.8944
 98  6 17 22 29 30.0040000  0  7G 6G 3G21G17G22G23G26
  15189678.56846  11771500.98245  23474537.0204   23474542.2704
     -4453.1874      -3470.0164
  -3528701.71545  -2557752.02744  24981041.3164   24981047.0824
      1717.8594       1338.5924
  -5260699.26346  -4003480.88045  23884614.9024   23884620.3754
       618.7504        482.1434
   5768312.01046   4470168.13546  22236313.2074   22236317.5314
     -1804.4694      -1406.0804
   8565727.20244   3406242.47043  25392637.0044   25392643.4024
     -2984.7194      -2325.7554
   1186057.77647    940585.63146  22188082.8404   22188086.9414
     -1208.0004       -941.2994
   8408927.86346   6021417.74045  24000979.5124   24000984.6804
     -3295.1414      -2567.6424
 98  6 17 22 30  0.0050000  0  7G 6G 3G21G17G22G23G26
  15323428.42646  11875721.57545  23499989.1574   23499995.0754
     -4463.5624      -3478.1014
  -3580122.54245  -2597820.12544  24971255.5094   24971260.9814
      1709.7194       1332.2484
  -5279153.42346  -4017860.67345  23881103.0714   23881108.9544
       611.1094        476.1894
   5822551.81746   4512432.92146  22246634.5874   22246639.0404
     -1811.7034      -1411.7174
   8655428.61944   3476139.60343  25409706.7124   25409712.1494
     -2995.5474      -2334.1924
   1222475.00447    968962.71546  22195012.7514   22195016.6884
     -1220.1254       -950.7474
   8508027.13346   6098637.94445  24019837.8294   24019842.0714
     -3311.6874      -2580.5364
 98  6 17 22 30 30.0050000  0  7G 6G 3G21G17G22G23G26
  15457494.24246  11980188.36145  23525500.5794   23525505.7824
     -4474.5474      -3486.6604
  -3631289.34645  -2637690.27744  24961519.4784   24961524.7514
      1701.0004       1325.4554
  -5297368.65946  -4032054.28445  23877636.6184   23877642.5244
       602.8754        469.7734
   5877014.14546   4554871.09646  22256998.4934   22257002.8414
     -1819.4224      -1417.7314
   8745452.93144   3546288.38443  25426837.8294   25426845.1454
     -3006.4374      -2342.6794
   1259260.65947    997626.89246  22202012.8684   22202016.8994
     -1232.6254       -960.4874
   8607626.83646   6176248.10045  24038790.6814   24038795.9784
     -3328.6414      -2593.7464
 98  6 17 22 31  0.0050000  0  7G 6G 3G21G17G22G23G26
  15591885.50346  12084908.73245  23551074.6264   23551079.8294
     -4485.0474      -3494.8424
  -3682201.19144  -2677361.77344  24951829.7044   24951835.8924
      1693.0634       1319.2694
  -5315336.07346  -4046054.81645  23874217.5324   23874223.1454
       594.8284        463.5024
   5931701.09246   4597484.29946  22267404.8294   22267409.3294
     -1826.4224      -1423.1864
   8835806.91744   3616693.98243  25444031.7284   25444038.5874
     -3017.2344      -2351.0924
   1296417.38547   1026580.20446  22209083.7204   22209087.5284
     -1244.3914       -969.6554
   8707738.02946   6254256.79745  24057840.9544   24057845.9354
     -3345.5004      -2606.8834
 98  6 17 22 31 30.0050000  0  7G 6G 3G21G17G22G23G26
  15726613.33646  12189891.37845  23576712.4314   23576718.1854
     -4497.4374      -3504.4974
  -3732875.15544  -2716847.89744  24942187.5244   24942192.7044
      1684.9064       1312.9144
  -5333057.51946  -4059863.66245  23870845.4464   23870851.0364
       586.1254        456.7214
   5986609.02846   4640269.70446  22277853.3534   22277857.7474
     -1834.6414      -1429.5904
   8926488.91244   3687355.21643  25461287.8134   25461293.1104
     -3028.5784      -2359.9314
   1333921.18447   1055803.97346  22216220.1184   22216223.9744
     -1256.2504       -978.8964
   8808359.94646   6332663.47745  24076988.7514   24076992.8994
     -3363.1094      -2620.6054
 98  6 17 22 32  0.0050000  0  7G 6G 3G21G17G22G23G26
  15861722.73946  12295171.35245  23602423.1884   23602428.4504
     -4509.8914      -3514.2004
  -3783311.16645  -2756148.62044  24932590.3454   24932595.9114
      1677.5164       1307.1554
  -5350505.35746  -4073459.29945  23867524.9854   23867530.7514
       577.0944        449.6834
   6041774.28846   4683255.62046  22288351.2904   22288355.5674
     -1843.0314      -1436.1284
   9017506.46944   3758277.95143  25478608.3134   25478615.0874
     -3039.2034      -2368.2104
   1371780.51147   1085304.77146  22223424.5174   22223428.5244
     -1267.7034       -987.8214
   8909515.63146   6411486.06845  24096238.2984   24096242.7394
     -3380.4844      -2634.1444
 98  6 17 22 32 30.0050000  0  7G 6G 3G21G17G22G23G26
  15997213.37846  12400748.38045  23628205.6184   23628211.3954
     -4522.8444      -3524.2944
  -3833515.18445  -2795268.57644  24923036.6814   24923042.2004
      1669.3134       1300.7634
  -5367675.78146  -4086838.77745  23864257.3374   23864262.8804
       567.4384        442.1594
   6097202.12346   4726446.13746  22298898.6424   22298902.8024
     -1852.2664      -1443.3244
   9108858.38544   3829461.19843  25495991.9854   25495998.2204
     -3050.9844      -2377.3904
   1409988.26947   1115077.07146  22230695.4154   22230699.3064
     -1279.5004       -997.0134
   9011201.42246   6490721.74245  24115588.5014   24115592.6614
     -3398.6254      -2648.2794
 98  6 17 22 33  0.0050000  0  7G 6G 3G21G17G22G23G26
  16133054.56346  12506598.56845  23654056.0714   23654061.7784
     -4533.8914      -3532.9024
  -3883506.24145  -2834222.56144  24913523.7204   24913529.5674
      1662.7034       1295.6134
  -5384575.58946  -4100007.37545  23861041.2744   23861046.3844
       558.4064        435.1224
   6152876.63146   4769828.87246  22309493.1964   22309497.5674
     -1860.0784      -1449.4124
   9200538.39444   3900900.11042  25513438.1184   25513443.9194
     -3061.7344      -2385.7674
   1448523.01247   1145104.16746  22238028.0174   22238031.7674
     -1290.2664      -1005.4024
   9113408.33946   6570363.47345  24135037.6184   24135041.7784
     -3415.8594      -2661.7094
 98  6 17 22 33 30.0050000  0  7G 6G 3G21G17G22G23G26
  16269240.37946  12612717.29345  23679971.1574   23679976.8064
     -4545.0164      -3541.5714
  -3933284.27245  -2873010.58744  24904050.6574   24904055.7674
      1656.0314       1290.4144
  -5401187.50846  -4112951.66245  23857880.2354   23857886.1304
       549.1094        427.8774
   6208792.95746   4813400.03346  22320133.7044   22320138.1814
     -1867.5164      -1455.2074
   9292551.52744   3972598.57443  25530947.6104   25530953.1884
     -3072.4064      -2394.0834
   1487400.50847   1175398.34046  22245426.4154   22245430.1424
     -1301.5944      -1014.2294
   9216134.84946   6650410.09245  24154585.8374   24154590.7354
     -3432.5944      -2674.7484
 98  6 17 22 34  0.0050000  0  7G 6G 3G21G17G22G23G26
  16405741.47546  12719081.70145  23705946.6264   23705952.0994
     -4555.0784      -3549.4124
  -3982865.80745  -2911645.47944  24894615.2594   24894619.5714
      1649.0784       1284.9964
  -5417527.18046  -4125683.79745  23854770.7744   23854776.5174
       540.1414        420.8894
   6264926.99847   4857140.84146  22330815.9854   22330820.2514
     -1874.8754      -1460.9424
   9384881.69444   4044544.10143  25548517.7904   25548523.9424
     -3083.0784      -2402.3994
   1526622.89546   1205961.25546  22252890.2124   22252894.1494
     -1313.5004      -1023.5064
   9319360.32046   6730845.51545  24174229.1494   24174233.8374
     -3449.1874      -2687.6794
 98  6 17 22 34 30.0050000  0  7G 6G 3G21G17G22G23G26
  16542537.05546  12825675.55945  23731978.0564   23731984.0444
     -4564.3594      -3556.6444
  -4032226.53945  -2950108.29445  24885223.0484   24885227.7244
      1641.7974       1279.3224
  -5433605.30746  -4138212.13545  23851711.4704   23851716.6964
       531.7034        414.3144
   6321282.36647   4901054.10646  22341539.7434   22341544.3134
     -1882.0474      -1466.5304
   9477535.68944   4116741.94243  25566148.6264   25566154.9074
     -3093.5784      -2410.5804
   1566204.30847   1236803.93246  22260422.0244   22260425.9274
     -1325.0314      -1032.4924
   9423084.99246   6811669.92545  24193967.3604   24193971.1574
     -3465.6564      -2700.5114
 98  6 17 22 35  0.0050000  0  7G 6G 3G21G17G22G23G26
  16679615.09146  12932489.52145  23758063.3214   23758069.0284
     -4574.5164      -3564.5584
  -4081357.48645  -2988392.08445  24875873.4784   24875877.5324
      1633.1884       1272.6144
  -5449414.60246  -4150530.98645  23848702.9154   23848708.5174
       522.1564        406.8754
   6377865.48046   4945144.84046  22352307.1574   22352311.1534
     -1890.4374      -1473.0684
   9570502.52844   4189183.60043  25583839.8604   25583846.3884
     -3104.3914      -2419.0064
   1606139.03947   1267921.93146  22268021.5404   22268025.1734
     -1337.5784      -1042.2694
   9527302.36846   6892878.26745  24213799.3534   24213803.4544
     -3482.2504      -2713.4424
 98  6 17 22 35 30.0050000  0  7G 6G 3G21G17G22G23G26
  16817005.40446  13039546.82245  23784207.7434   23784213.3564
     -4584.7344      -3572.5204
  -4130216.04945  -3026463.62245  24866576.2514   24866581.0094
      1623.9384       1265.4064
  -5464948.48746  -4162635.23046  23845746.8134   23845751.9704
       513.6094        400.2154
   6434701.35346   4989432.52146  22363122.7594   22363126.9424
     -1898.6874      -1479.4974
   9663782.43744   4261869.18543  25601590.0174   25601597.5324
     -3114.2344      -2426.6764
   1646444.69646   1299328.95746  22275691.3764   22275695.1494
     -1349.3444      -1051.4374
   9632004.09846   6974464.02045  24233723.1264   24233727.4274
     -3498.0474      -2725.7514
 98  6 17 22 36  0.0050000  0  7G 6G 3G21G17G22G23G26
  16954698.70846  13146840.21345  23810409.8534   23810415.3724
     -4595.1094      -3580.6054
  -4178779.60745  -3064305.29445  24857334.3764   24857340.3764
      1613.2664       1257.0904
  -5480233.04246  -4174545.17646  23842837.8454   23842843.4114
       505.1724        393.6404
   6491795.89046   5033921.77146  22373987.4544   22373991.8134
     -1907.8124      -1486.6074
   9757357.67044   4334784.87543  25619397.8064   25619403.4784
     -3124.1874      -2434.4324
   1687097.72346   1331006.65646  22283427.2744   22283431.4464
     -1361.0474      -1060.5564
   9737192.75446   7056429.18345  24253739.7514   24253744.3804
     -3514.6874      -2738.7184
 98  6 17 22 36 30.0050000  0  7G 6G 3G21G17G22G23G26
  17092699.42346  13254373.14045  23836670.9464   23836676.9354
     -4605.7344      -3588.8844
  -4227040.56445  -3101911.14045  24848150.8924   24848155.6854
      1603.3284       1249.3474
  -5495279.51546  -4186269.61346  23839974.9464   23839980.4664
       497.1414        387.3824
   6549142.09547   5078607.11946  22384900.4074   22384904.7674
     -1916.0004      -1492.9874
   9851211.97944   4407918.02343  25637257.3764   25637263.6344
     -3133.5314      -2441.7134
   1728074.88946   1362936.93346  22291225.0954   22291228.8334
     -1371.6094      -1068.7874
   9842864.09546   7138770.48845  24273848.6264   24273853.1964
     -3530.8754      -2751.3314
 98  6 17 22 37  0.0050000  0  7G 6G 3G21G17G22G23G26
  17231034.91546  13362166.93545  23862995.1034   23863000.3764
     -4616.7504      -3597.4684
  -4274987.40445  -3139272.24345  24839026.1964   24839032.0564
      1593.0634       1241.3474
  -5510076.43346  -4197799.57746  23837159.0094   23837164.0484
       489.5314        381.4534
   6606741.83847   5123490.02446  22395860.8994   22395864.9314
     -1923.8594      -1499.1114
   9945360.62945   4481280.56443  25655173.8374   25655180.1884
     -3143.1414      -2449.2004
   1769390.55346   1395130.97946  22299087.0484   22299090.7984
     -1382.9064      -1077.5894
   9949031.25346   7221498.12445  24294051.4384   24294056.0324
     -3546.9694      -2763.8724
 98  6 17 22 37 30.0050000  0  7G 6G 3G21G17G22G23G26
  17369693.24545  13470212.30545  23889380.9074   23889386.1924
     -4627.2814      -3605.6744
  -4322640.44145  -3176404.40645  24829958.3924   24829964.3334
      1583.6724       1234.0304
  -5524658.56746  -4209162.19446  23834383.9234   23834389.5484
       482.2194        375.7554
   6664562.32447   5168544.94446  22406864.0244   22406868.1494
     -1931.1724      -1504.8094
  10039794.92044   4554865.62143  25673143.7284   25673149.6924
     -3152.9064      -2456.8104
   1811044.69246   1427588.76846  22307013.5324   22307017.3644
     -1394.2974      -1086.4654
  10055687.03546   7304606.51445  24314347.7044   24314352.2164
     -3563.8284      -2777.0094
 98  6 17 22 38  0.0050000  0  7G 6G 3G21G17G22G23G26
  17508669.14345  13578505.10445  23915827.3994   23915833.0244
     -4638.0004      -3614.0264
  -4370018.04645  -3213321.94945  24820942.8454   24820948.6224
      1574.7504       1227.0784
  -5539010.26446  -4220345.25246  23831652.7044   23831657.9894
       474.3444        369.6194
   6722611.89046   5213778.37346  22417910.5794   22417914.8214
     -1938.9844      -1510.8974
  10134539.28444   4628692.32143  25691172.6344   25691179.9744
     -3163.6094      -2465.1504
   1853048.85846   1460319.30646  22315006.8214   22315010.6884
     -1406.2344      -1095.7674
  10162856.58346   7388115.25145  24334741.1734   24334745.2164
     -3580.7664      -2790.2074
 98  6 17 22 38 30.0050000  0  7G 6G 3G21G17G22G23G26
  17647950.08145  13687035.62245  23942331.3374   23942337.1144
     -4648.0474      -3621.8554
  -4417154.67245  -3250051.69645  24811972.9544   24811977.2434
      1566.8444       1220.9174
  -5553137.41146  -4231353.33946  23828964.6574   23828969.5914
       466.6254        363.6044
   6780875.65847   5259178.70646  22428997.7984   22429001.8174
     -1946.1254      -1516.4614
  10229596.92544   4702763.14443  25709261.7824   25709268.0634
     -3174.4694      -2473.6124
   1895398.31646   1493318.90046  22323065.4624   22323069.3294
     -1417.8594      -1104.8254
  10270507.39546   7471998.96745  24355226.6964   24355231.4894
     -3596.7344      -2802.6504
 98  6 17 22 39  0.0050000  0  7G 6G 3G21G17G22G23G26
  17787533.10145  13795801.49845  23968893.4854   23968898.9584
     -4658.2664      -3629.8174
  -4464042.01845  -3286587.24445  24803050.6494   24803055.4074
      1558.4064       1214.3434
  -5567020.18546  -4242171.01546  23826322.8454   23826327.7204
       458.1414        356.9934
   6839365.93046   5304755.52746  22440127.9544   22440132.1854
     -1953.9374      -1522.5494
  10324986.02744   4777092.24443  25727413.6734   25727420.8024
     -3185.3754      -2482.1104
   1938101.98346   1526594.50346  22331191.7514   22331195.3954
     -1429.5474      -1113.9334
  10378640.45846   7556258.47645  24375803.3994   24375807.6304
     -3612.7344      -2815.1184
 98  6 17 22 39 30.0050000  0  7G 6G 3G21G17G22G23G26
  17927429.47946  13904811.56045  23995514.9854   23995520.3764
     -4668.1564      -3637.5244
  -4510677.27645  -3322926.32845  24794175.7904   24794180.3844
      1550.4844       1208.1704
  -5580634.19346  -4252779.26146  23823731.8214   23823737.1304
       449.2664        350.0774
   6898099.86447   5350522.22646  22451304.7354   22451308.7084
     -1961.7814      -1528.6614
  10420698.22144   4851673.08843  25745627.2984   25745634.0134
     -3195.5314      -2490.0244
   1981148.67846   1560137.39846  22339383.2904   22339386.3254
     -1440.1414      -1122.1874
  10487253.04046   7640891.64845  24396471.7744   24396475.9234
     -3628.1724      -2827.1474
 98  6 17 22 40  0.0050000  0  7G 6G 3G21G17G22G23G26
  18067626.09445  14014055.58845  24022193.5714   24022199.2084
     -4678.1564      -3645.3174
  -4557060.72345  -3359069.20445  24785349.5874   24785355.2004
      1541.8134       1201.4124
  -5593977.68146  -4263176.71446  23821192.8844   23821198.3454
       440.5634        343.2954
   6957073.50646   5396475.71146  22462527.1184   22462531.2784
     -1969.5944      -1534.7484
  10516713.89644   4926490.41344  25763898.0324   25763905.3254
     -3205.2194      -2497.5734
   2024504.40246   1593921.09446  22347633.4934   22347637.2904
     -1450.1254      -1129.9684
  10596319.78746   7725878.71045  24417226.4704   24417230.8294
     -3642.7194      -2838.4824
 98  6 17 22 40 30.0050000  0  7G 6G 3G21G17G22G23G26
  18208130.64445  14123539.55245  24048930.8994   24048936.8764
     -4688.7194      -3653.5474
  -4603167.27645  -3394996.33345  24776575.4544   24776580.7864
      1531.9534       1193.7304
  -5607049.73646  -4273362.66446  23818705.3684   23818710.4074
       430.8914        335.7594
   7016285.46447   5442614.89546  22473794.8534   22473798.8024
     -1977.8284      -1541.1654
  10613014.12743   5001529.48043  25782223.3294   25782230.6224
     -3214.6414      -2504.9154
   2068167.82146   1627944.55146  22355942.1654   22355945.8214
     -1460.6094      -1138.1374
  10705835.76746   7811215.82945  24438066.4314   24438070.4744
     -3658.4064      -2850.7064
 98  6 17 22 41  0.0050000  0  7G 6G 3G21G17G22G23G26
  18348947.85245  14233267.13545  24075727.2434   24075733.0094
     -4699.0314      -3661.5834
  -4648968.36445  -3430685.41745  24767859.8294   24767865.3024
      1521.5004       1185.5844
  -5619827.50846  -4283319.30546  23816273.5174   23816278.7784
       421.1254        328.1494
   7075750.15847   5488951.02046  22485110.6034   22485114.5404
     -1986.2974      -1547.7644
  10709583.68443   5076778.41443  25800600.3684   25800606.3924
     -3223.1564      -2511.5504
   2112146.24646   1662213.46946  22364311.4624   22364315.3884
     -1471.2034      -1146.3924
  10815829.33245   7896925.06645  24458997.8844   24459002.9584
     -3674.4224      -2863.1864
 98  6 17 22 41 30.0050000  0  8G 6G 3G 1G21G17G22G23G26
  18490073.36845  14343234.94545  24102582.9934   24102589.0404
     -4708.4844      -3668.9494
  -4694449.58245  -3466125.25345  24759205.3844   24759210.2124
      1511.1884       1177.5494
    -19968.73052                  26238335.6184
      2219.0784
  -5632310.93846  -4293046.59046  23813897.7904   23813902.9584
       411.8134        320.8934
   7135466.27346   5535483.05446  22496474.1654   22496478.1034
     -1994.0944      -1553.8394
  10806411.75243   5152228.74043  25819025.8454   25819032.6774
     -3231.4534      -2518.0154
   2156450.19546   1696736.04046  22372742.1104   22372745.7314
     -1481.7974      -1154.6474
  10926308.63145   7983012.82645  24480021.5714   24480025.7314
     -3690.2974      -2875.5564
 98  6 17 22 42  0.0050000  0  8G 6G 3G 1G21G17G22G23G26
  18631481.85145  14453423.27545  24129492.2284   24129497.8644
     -4718.6414      -3676.8634
  -4739615.07445  -3501319.08945  24750610.4314   24750615.5174
      1499.9224       1168.7704
    -86542.70042                  26225666.2044
      2219.2974
  -5644518.46246  -4302558.88846  23811574.9544   23811580.5794
       402.2504        313.4424
   7195418.61547   5582199.15946  22507882.6104   22507886.8064
     -2002.6564      -1560.5114
  10903489.86143   5227873.94743  25837499.4704   25837507.2674
     -3240.2034      -2524.8344
   2201081.84946   1731513.98046  22381235.0244   22381238.5754
     -1493.6254      -1163.8644
  11037270.48746   8069476.59245  24501136.6264   24501141.4544
     -3707.0474      -2888.6084
 98  6 17 22 42 30.0050000  0  8G 6G 3G 1G21G17G22G23G26
  18773173.00945  14563831.85445  24156455.0794   24156460.9034
     -4727.6874      -3683.9124
  -4784461.45645  -3536264.25145  24742076.2594   24742080.4194
      1489.6724       1160.7834
   -153142.26043                  26212994.0174
      2220.4844
  -5656458.83746  -4311863.01146  23809302.6814   23809307.8494
       393.4694        306.5994
   7255608.40846   5629100.29646  22519336.3214   22519340.3534
     -2010.2344      -1566.4164
  11000811.39643   5303708.79743  25856019.5324   25856027.2474
     -3248.3284      -2531.1654
   2246054.34246   1766557.49846  22389792.8534   22389796.5564
     -1504.6564      -1172.4594
  11148722.78745   8156322.52945  24522345.3374   24522350.8564
     -3723.4224      -2901.3684
 98  6 17 22 43  0.0050000  0  8G 6G 3G 1G21G17G22G23G26
  18915133.62145  14674450.39845  24183469.4854   24183474.8644
     -4736.6414      -3690.8894
  -4829007.72245  -3570975.55745  24733599.2354   24733603.8994
      1479.8754       1153.1494
   -219781.55844    -41540.43953  26200311.4544   26200322.9424
      2221.9844       1731.4164
  -5668139.23446  -4320964.55846  23807079.8684   23807085.0834
       385.1724        300.1344
   7316025.60446   5676178.62946  22530833.3534   22530837.0094
     -2017.6874      -1572.2244
  11098380.55943   5379736.66843  25874586.2984   25874594.1184
     -3256.5314      -2537.5574
   2291351.61446   1801854.08746  22398412.6884   22398416.3924
     -1515.2814      -1180.7394
  11260660.83846   8243546.95245  24543646.4934   24543650.2784
     -3739.1874      -2913.6534
 98  6 17 22 43 30.0050000  0  8G 6G 3G 1G21G17G22G23G26
  19057382.54145  14785293.61745  24210538.2044   24210544.3564
     -4746.2664      -3698.3894
  -4873258.27545  -3605456.46945  24725178.4784   24725183.1424
      1470.5164       1145.8564
   -286453.67743    -93492.37743  26187624.0244   26187633.0754
      2223.0004       1732.2084
  -5679565.29846  -4329867.92946  23804905.5174   23804910.7084
       376.9694        293.7424
   7376677.47246   5723439.81846  22542374.7674   22542378.7634
     -2025.6094      -1578.3974
  11196218.65843   5455974.01543  25893204.6104   25893211.3254
     -3265.7194      -2544.7164
   2336977.43646   1837406.69546  22407095.3214   22407098.7204
     -1526.1724      -1189.2254
  11373074.78145   8331142.23145  24565038.1264   24565042.1814
     -3754.7974      -2925.8164
 98  6 17 22 44  0.0050000  0  8G 6G 3G 1G21G17G22G23G26
  19199911.60345  14896355.09845  24237661.1264   24237667.1854
     -4756.3124      -3706.2184
  -4917237.91745  -3639726.26245  24716809.6494   24716813.6924
      1460.7664       1138.2594
   -353153.02844   -145465.59043  26174932.0174   26174943.1884
      2222.9384       1732.1594
  -5690760.55046  -4338591.44846  23802775.1814   23802780.3134
       368.6884        287.2894
   7437565.28546   5770884.86446  22553961.3534   22553965.3724
     -2034.2664      -1585.1424
  11294320.33043   5532416.80143  25911873.0014   25911880.7394
     -3275.0624      -2551.9974
   2382920.72346   1873206.67546  22415837.6884   22415841.0994
     -1537.3754      -1197.9554
  11485948.10845   8419095.45545  24586517.2204   24586522.1774
     -3770.6874      -2938.1984
 98  6 17 22 44 30.0050000  0  8G 6G 3G 1G21G17G22G23G26
  19342743.05245  15007652.21945  24264841.5564   24264847.1104
     -4765.7034      -3713.5354
  -4960927.75345  -3673770.24045  24708496.1734   24708500.5794
      1451.9224       1131.3684
   -419840.98944   -197429.88143  26162240.5874   26162250.9384
      2222.9694       1732.1834
  -5701696.98246  -4347113.28446  23800693.8374   23800698.6774
       360.3134        280.7634
   7498721.98046   5818539.42446  22565599.2984   22565603.2594
     -2042.8444      -1591.8264
  11392714.73543   5609087.67643  25930596.9544   25930602.3684
     -3284.5624      -2559.3994
   2429200.44546   1909268.81546  22424644.4384   22424647.9194
     -1547.8124      -1206.0884
  11599300.06245   8507421.63145  24608087.7124   24608091.7314
     -3785.9534      -2950.0934
 98  6 17 22 45  0.0050000  0  8G 6G 3G 1G21G17G22G23G26
  19485845.39745  15119160.42945  24292072.5014   24292078.5834
     -4774.2814      -3720.2194
  -5004355.53545  -3707610.01845  24700231.5404   24700236.3104
      1443.2814       1124.6354
   -486534.03644   -249398.17943  26149550.2984   26149559.0674
      2223.2194       1732.3784
  -5712390.21446  -4355445.60946  23798659.0714   23798664.1574
       352.7664        274.8824
   7560131.03946   5866390.63446  22577284.8994   22577288.8954
     -2050.9064      -1598.1094
  11491379.50743   5685969.19943  25949372.0874   25949379.5094
     -3292.8124      -2565.8284
   2475783.94746   1945567.66246  22433508.7284   22433512.5834
     -1557.6414      -1213.7464
  11713084.06646   8596084.49245  24629739.8764   24629743.6034
     -3799.3754      -2960.5524
 98  6 17 22 45 30.0050000  0  8G 6G 3G 1G21G17G22G23G26
  19629220.98045  15230881.54745  24319356.1884   24319362.0954
     -4783.5624      -3727.4514
  -5047500.74445  -3741229.59345  24692021.0714   24692026.5674
      1433.3134       1116.8674
   -553201.73143   -301346.70242  26136862.5874   26136870.0324
      2221.5944       1731.1124
  -5722839.03346  -4363587.47746  23796670.5874   23796675.9314
       344.1564        268.1744
   7621804.20746   5914447.63746  22589021.2354   22589025.1854
     -2060.2664      -1605.4024
  11590313.59443   5763060.62243  25968198.7514   25968205.2674
     -3302.3284      -2573.2434
   2522688.44046   1982116.62646  22442434.6814   22442438.4664
     -1569.0314      -1222.6224
  11827287.81245   8685074.39645  24651472.1494   24651476.4744
     -3813.8754      -2971.8514
 98  6 17 22 46  0.0050000  0  8G 6G 3G 1G21G17G22G23G26
  19772837.76745  15342790.62745  24346685.6184   24346691.0794
     -4791.3444      -3733.5154
  -5090361.50045  -3774627.53745  24683864.5244   24683869.6814
      1423.6724       1109.3554
   -619845.42743   -353276.54242  26124180.9314   26124191.1064
      2221.1254       1730.7474
  -5733047.33846  -4371541.95246  23794728.1034   23794733.2824
       335.8594        261.7094
   7683729.15646   5962700.83346  22600804.8374   22600808.8684
     -2068.3914      -1611.7334
  11689493.99543   5840343.92643  25987072.1734   25987078.0564
     -3310.1564      -2579.3434
   2569903.79646   2018907.82146  22451419.4154   22451423.0954
     -1579.0314      -1230.4144
  11941903.33645   8774385.17345  24673282.6734   24673286.8214
     -3827.5164      -2982.4804
 98  6 17 22 46 30.0050000  0  8G 6G 3G 1G21G17G22G23G26
  19916702.79245  15454893.13245  24374062.1964   24374068.3024
     -4799.4694      -3739.8464
  -5132912.61445  -3807784.19445  24675767.8294   24675773.2084
      1413.1724       1101.1734
   -686473.79342   -405194.51742  26111500.6264   26111510.2744
      2220.9694       1730.6254
  -5742987.56246  -4379287.52046  23792836.4464   23792841.6034
       327.2034        254.9634
   7745910.41446   6011153.76146  22612637.7434   22612641.5404
     -2076.6874      -1618.1984
  11788926.60344   5917823.83643  26005993.0014   26005999.3534
     -3318.2344      -2585.6374
   2617430.49246   2055941.62846  22460463.6264   22460467.3414
     -1589.0944      -1238.2554
  12056941.56445   8864025.33945  24695173.8684   24695179.5874
     -3841.4224      -2993.3164
 98  6 17 22 47  0.0050000  0  8G 6G 3G 1G21G17G22G23G26
  20060831.63345  15567201.20745  24401488.9154   24401494.4814
     -4809.0474      -3747.3094
  -5175122.87845  -3840675.25945  24667734.9234   24667740.1034
      1401.0164       1091.7004
   -753079.97143   -457095.03943  26098826.3844   26098838.7744
      2219.4224       1729.4204
  -5752663.81146  -4386827.39046  23790995.4314   23791000.4704
       318.0944        247.8654
   7808346.66846   6059805.38046  22624518.9154   22624522.8294
     -2085.5944      -1625.1384
  11888603.50744   5995494.04843  26024961.6494   26024968.1304
     -3326.6414      -2592.1874
   2665276.48546   2093224.22946  22469568.1814   22469571.7084
     -1600.5004      -1247.1434
  12172416.27045   8954005.61445  24717147.9464   24717152.1304
     -3856.9534      -3005.4184
 98  6 17 22 47 30.0050000  0  8G 6G 3G 1G21G17G22G23G26
  20205224.82445  15679715.25645  24428965.9624   24428971.8804
     -4817.3284      -3753.7624
  -5217001.63745  -3873308.01245  24659765.8064   24659770.4814
      1390.6724       1083.6404
   -819667.80642   -508981.32541  26086154.5634   26086166.1224
      2219.6254       1729.5784
  -5762095.50146  -4394176.68946  23789200.1264   23789204.8254
       310.4534        241.9124
   7871028.31146   6108648.21746  22636446.7904   22636450.8104
     -2093.3444      -1631.1774
  11988503.33545   6073337.98643  26043971.5634   26043978.1144
     -3333.4534      -2597.4964
   2713434.96346   2130750.33146  22478732.4074   22478736.0054
     -1610.2034      -1254.7044
  12288349.31845   9044343.02445  24739208.9624   24739213.2744
     -3872.0314      -3017.1674
 98  6 17 22 48  0.0060000  0  8G 6G 3G 1G21G17G22G23G26
  20349896.46045  15792446.31145  24456496.5684   24456502.1824
     -4827.1094      -3761.3844
  -5258544.87945  -3905679.32845  24651861.3734   24651866.5644
      1379.1254       1074.6434
   -886243.24143   -560858.03242  26073486.1784   26073494.9824
      2218.8594       1728.9814
  -5771271.65846  -4401326.85946  23787454.1004   23787459.2324
       301.5634        234.9844
   7933961.68246   6157687.20846  22648422.6234   22648426.7954
     -2101.9534      -1637.8864
  12088620.73644   6151351.43642  26063024.0214   26063028.5214
     -3340.6724      -2603.1214
   2761901.27646   2168516.30446  22487955.0764   22487958.6504
     -1620.6094      -1262.8124
  12404757.75245   9135050.87345  24761360.7484   24761365.5644
     -3888.1094      -3029.6964
 98  6 17 22 48 30.0060000  0  8G 6G 3G 1G21G17G22G23G26
  20494849.51645  15905396.61245  24484080.5684   24484086.5574
     -4836.1254      -3768.4094
  -5299764.38945  -3937798.36045  24644016.5764   24644021.9904
      1369.1884       1066.8994
   -952804.75843   -612723.74142  26060819.8814   26060829.3424
      2218.6724       1728.8354
  -5780212.62846  -4408293.78046  23785752.6394   23785757.8894
       294.9224        229.8094
   7997136.02146   6206913.96746  22660444.2014   22660448.5254
     -2109.3284      -1643.6324
  12188937.79044   6229520.48942  26082113.2254   26082119.6704
     -3346.7974      -2607.8944
   2810665.97846   2206514.78746  22497234.9594   22497238.7094
     -1630.0474      -1270.1664
  12521625.38845   9226116.53945  24783600.2094   24783604.5804
     -3902.6874      -3041.0554
 98  6 17 22 49  0.0060000  0  8G 6G 3G 1G21G17G22G23G26
  20640097.70645  16018576.94345  24511720.2874   24511726.6744
     -4846.4064      -3776.4204
  -5340664.22545  -3969668.31445  24636234.4364   24636239.0884
      1358.1254       1058.2794
  -1019323.52744   -664556.28543  26048161.5454   26048170.9944
      2216.5784       1727.2044
  -5788925.05746  -4415082.61446  23784094.8734   23784100.2754
       286.3284        223.1134
   8060559.86446   6256335.14146  22672513.5374   22672518.1194
     -2118.4224      -1650.7184
  12289470.19344   6307857.35543  26101244.4594   26101250.3534
     -3354.9224      -2614.2254
   2859745.64546   2244758.70546  22506574.2954   22506578.0214
     -1641.3444      -1278.9694
  12638953.92645   9317541.36145  24805927.1784   24805931.8534
     -3918.5314      -3053.4014
 98  6 17 22 49 30.0060000  0  8G 6G 3G 1G21G17G22G23G26
  20785610.45245  16131963.34845  24539410.2714   24539415.9084
     -4854.7194      -3782.8984
  -5381264.44245  -4001304.79345  24628507.6394   24628512.6314
      1348.1564       1050.5114
  -1085820.65145   -716371.86743  26035506.8264   26035516.2754
      2216.3754       1727.0454
  -5797403.33346  -4421689.00746  23782480.7874   23782485.6274
       278.4064        216.9404
   8124224.12746   6305943.64346  22684628.5454   22684632.7284
     -2126.1414      -1656.7334
  12390218.69744   6386362.54943  26120416.2324   26120422.3614
     -3362.2034      -2619.8994
   2909126.72646   2283237.48146  22515971.5144   22515974.9364
     -1651.0784      -1286.5544
  12756712.31145   9409301.10945  24828335.5844   24828339.9784
     -3932.1724      -3064.0304
 98  6 17 22 50  0.0060000  0  8G 6G 3G 1G21G17G22G23G26
  20931368.65745  16245541.06045  24567147.3814   24567153.4284
     -4862.9064      -3789.2784
  -5421558.27845  -4032702.53945  24620840.0454   24620845.3304
      1337.7034       1042.3664
  -1152307.41944   -768179.46143  26022853.8424   26022862.7284
      2215.7504       1726.5584
  -5805633.55246  -4428102.09946  23780914.8424   23780919.6234
       269.8594        210.2804
   8188117.59746   6355730.77046  22696786.9204   22696790.9284
     -2133.9374      -1662.8084
  12491200.69144   6465049.73043  26139632.3734   26139638.4204
     -3370.4844      -2626.3514
   2958805.24946   2321948.03646  22525424.8654   22525428.4044
     -1661.2194      -1294.4564
  12874875.40645   9501376.23045  24850821.1544   24850824.7174
     -3945.9694      -3074.7814
 98  6 17 22 50 30.0060000  0  8G 6G 3G 1G21G17G22G23G26
  21077375.16945  16359312.23245  24594931.6154   24594937.4634
     -4870.1874      -3794.9514
  -5461530.60545  -4063849.74645  24613233.8814   24613238.4514
      1327.3914       1034.3304
  -1218768.76445   -819967.16044  26010207.1934   26010216.4434
      2215.5164       1726.3764
  -5813603.22146  -4434312.17246  23779398.4824   23779403.2994
       261.7814        203.9854
   8252255.15046   6405708.07946  22708991.8114   22708996.0184
     -2141.4064      -1668.6284
  12592447.20744   6543943.01443  26158898.5924   26158905.3424
     -3378.8284      -2632.8534
   3008791.66946   2360898.49946  22534936.8114   22534940.4784
     -1670.6414      -1301.7984
  12993462.18645   9593781.48645  24873387.7254   24873391.3574
     -3959.2504      -3085.1304
 98  6 17 22 51  0.0060000  0  8G 6G 3G 1G21G17G22G23G26
  21223587.52245  16473243.82145  24622754.9984   24622760.9164
     -4877.5784      -3800.7104
  -5501182.75245  -4094747.46545  24605687.9124   24605692.4824
      1315.6094       1025.1504
  -1285226.01844   -871751.74843  25997559.7404   25997569.5414
      2214.7664       1725.7914
  -5821313.94246  -4440320.46446  23777931.1704   23777935.8814
       251.8594        196.2544
   8316621.97746   6455864.05246  22721240.3814   22721244.9284
     -2150.1254      -1675.4224
  12693940.20343   6623028.36442  26178212.9284   26178220.7604
     -3387.5624      -2639.6594
   3059052.45146   2400062.75846  22544501.2324   22544505.0184
     -1680.3284      -1309.3474
  13112442.89845   9686493.70145  24896028.8574   24896033.1354
     -3973.2034      -3096.0024
 98  6 17 22 51 30.0060000  0  8G 6G 3G 1G21G17G22G23G26
  21370023.11345  16587349.36045  24650620.6544   24650626.9474
     -4885.3124      -3806.7374
  -5540473.96345  -4125363.94645  24598211.3734   24598215.6864
      1303.3444       1015.5934
  -1351661.06044   -923518.98044  25984918.1394   25984927.9044
      2213.6414       1724.9154
  -5828727.18046  -4446096.94246  23776520.3344   23776525.3034
       242.0004        188.5714
   8381258.30846   6506230.02546  22733540.1784   22733544.3034
     -2159.5164      -1682.7394
  12795686.69443   6702311.20943  26197573.9204   26197582.0574
     -3396.0944      -2646.3074
   3109602.88746   2439452.72846  22554120.5214   22554124.1664
     -1690.1874      -1317.0294
  13231851.48645   9779539.33145  24918751.8184   24918757.2214
     -3987.9694      -3107.5084
 98  6 17 22 52  0.0060000  0  8G 6G 3G 1G21G17G22G23G26
  21516669.66745  16701619.27245  24678526.0454   24678531.8464
     -4892.0784      -3812.0094
  -5579422.37345  -4155713.29145  24590799.5844   24590804.6114
      1292.3284       1007.0094
  -1418074.20043   -975269.17743  25972280.1314   25972289.2994
      2212.9384       1724.3674
  -5835876.42046  -4451667.72146  23775159.8654   23775164.4594
       233.8444        182.2164
   8446152.31846   6556796.78546  22745889.0454   22745893.4394
     -2167.6874      -1689.1074
  12897661.74644   6781772.18342  26216979.9124   26216986.9594
     -3402.9064      -2651.6154
   3160427.69646   2479056.49946  22563792.1154   22563795.8424
     -1698.9694      -1323.8724
  13351684.46445   9872915.63745  24941555.1704   24941559.8224
     -4001.8124      -3118.2954
 98  6 17 22 52 30.0060000  0  8G 6G 3G 1G21G17G22G23G26
  21663556.59145  16816076.48045  24706478.7094   24706484.6864
     -4900.4694      -3818.5474
  -5618003.86945  -4185776.74545  24583457.9594   24583462.5644
      1279.6094        997.0984
  -1484427.88943  -1026973.05043  25959652.9514   25959663.3264
      2210.5004       1722.4684
  -5842753.91346  -4457026.75446  23773850.8344   23773855.7914
       224.6094        175.0204
   8511328.56646   6607583.47346  22758291.9984   22758296.3464
     -2177.4224      -1696.6924
  12999861.47543   6861408.17143  26236427.7254   26236434.0644
     -3410.2974      -2657.3744
   3211551.68546   2518893.40546  22573521.0374   22573524.7874
     -1709.5004      -1332.0784
  13471957.53745   9966634.89145  24964442.2564   24964447.1544
     -4016.3754      -3129.6434
 98  6 17 22 53  0.0060000  0  8G 6G 3G 1G21G17G22G23G26
  21810673.43945  16930712.85245  24734473.6074   24734479.5494
     -4908.3754      -3824.7084
  -5656220.07445  -4215555.55345  24576185.4284   24576190.3614
      1267.2664        987.4804
  -1550727.89343  -1078635.08443  25947036.0064   25947045.1154
      2208.4694       1720.8854
  -5849377.56946  -4462187.99546  23772590.7644   23772595.6154
       216.1414        168.4214
   8576773.57546   6658579.58046  22770745.5064   22770749.6194
     -2186.5314      -1703.7914
  13102257.12243   6941196.86142  26255912.8964   26255921.3264
     -3417.0164      -2662.6104
   3262978.26646   2558966.08146  22583306.7014   22583310.3344
     -1720.0004      -1340.2604
  13592646.08745  10060677.89645  24987409.0374   24987413.2324
     -4030.6094      -3140.7354
 98  6 17 22 53 30.0060000  0  8G 6G 3G 1G21G17G22G23G26
  21958027.96445  17045534.44145  24762514.3424   24762520.0964
     -4916.1414      -3830.7594
  -5694077.04945  -4245054.42945  24568981.1784   24568985.5494
      1255.9064        978.6284
  -1616968.15443  -1130250.61242  25934431.0534   25934440.1624
      2206.6414       1719.4604
  -5855763.62446  -4467164.08946  23771375.3504   23771379.8264
       208.8444        162.7354
   8642480.29746   6709779.62146  22783249.0144   22783253.1154
     -2194.5784      -1710.0614
  13204851.37743   7021140.34342  26275435.3184   26275444.0764
     -3423.5004      -2667.6624
   3314723.18146   2599286.81046  22593153.5924   22593156.9674
     -1730.4534      -1348.4054
  13713759.07145  10155051.62445  25010456.3344   25010460.5534
     -4044.2034      -3151.3274
 98  6 17 22 54  0.0060000  0  8G 6G 3G 1G21G17G22G23G26
  22105649.55745  17160564.15045  24790606.1704   24790612.2994
     -4925.1724      -3837.7964
  -5731564.94045  -4274265.70445  24561847.9434   24561853.8854
      1243.4064        968.8884
  -1683119.89144  -1181797.09143  25921842.2174   25921851.3614
      2203.6414       1717.1234
  -5861898.21846  -4471944.24646  23770207.8264   23770212.4904
       200.2194        156.0154
   8708446.99446   6761182.23546  22795802.2174   22795806.6354
     -2203.0784      -1716.6844
  13307673.76042   7101261.55442  26295001.9824   26295009.7684
     -3431.0474      -2673.5434
   3366806.70546   2639871.39546  22603064.7254   22603068.4754
     -1741.6414      -1357.1234
  13835290.70245  10249751.57145  25033582.8114   25033587.1114
     -4057.7664      -3161.8954
 98  6 17 22 54 30.0060000  0  8G 6G 3G 1G21G17G22G23G26
  22253529.20445  17275794.89945  24818747.3034   24818753.1864
     -4933.2034      -3844.0544
  -5768688.24445  -4303192.88445  24554783.3344   24554788.5144
      1231.7194        959.7814
  -1749196.43744  -1233285.04243  25909268.3814   25909276.7524
      2201.8754       1715.7474
  -5867786.16546  -4476532.20346  23769087.2564   23769092.0494
       192.5784        150.0614
   8774664.18846   6812780.04946  22808402.9984   22808407.1584
     -2211.0624      -1722.9064
  13410710.59243   7181549.83442  26314610.6544   26314618.2874
     -3437.7814      -2678.7914
   3419214.89146   2680708.96046  22613037.5844   22613041.3224
     -1751.8754      -1365.0974
  13957216.36045  10344758.54645  25056784.1074   25056788.4554
     -4070.3444      -3171.6964
 98  6 17 22 55  0.0060000  0  8G 6G 3G 1G21G17G22G23G26
  22401666.76445  17391226.60345  24846936.6004   24846942.3184
     -4942.2814      -3851.1284
  -5805442.01545  -4331832.12645  24547789.0064   24547793.4714
      1219.1094        949.9554
  -1815202.55944  -1284718.15643  25896707.5684   25896715.3654
      2198.9534       1713.4704
  -5873417.74346  -4480920.40746  23768015.8184   23768020.4474
       183.2344        142.7804
   8841143.90446   6864582.42146  22821053.3734   22821057.7684
     -2220.6094      -1730.3454
  13513978.30843   7262018.03843  26334261.7954   26334267.8534
     -3446.3284      -2685.4504
   3471943.97546   2721796.57646  22623071.5614   22623075.3224
     -1762.9064      -1373.6934
  14079544.76945  10440079.37845  25080062.7714   25080067.2014
     -4084.4534      -3182.6914
 98  6 17 22 55 30.0060000  0  8G 6G 3G 1G21G17G22G23G26
  22550048.61545  17506848.69445  24875172.6704   24875178.4244
     -4949.7034      -3856.9124
  -5841854.84045  -4360205.68845  24540860.1784   24540864.6894
      1208.5634        941.7374
  -1881151.34544  -1336106.60543  25884157.8654   25884166.6824
      2197.7504       1712.5324
  -5878794.59246  -4485110.10646  23766992.4434   23766997.2484
       175.2664        136.5714
   8907882.11246   6916586.21346  22833753.4824   22833757.9944
     -2228.5164      -1736.5064
  13617465.14942   7342657.01842  26353953.8654   26353958.9984
     -3452.6414      -2690.3694
   3524967.63046   2763113.72846  22633161.5374   22633165.3464
     -1771.8124      -1380.6334
  14202262.43445  10535703.50145  25103414.7564   25103418.7754
     -4096.3754      -3191.9814
 98  6 17 22 56  0.0060000  0  8G 6G 3G 1G21G17G22G23G26
  22698673.89545  17622660.50045  24903455.1314   24903461.7874
     -4957.7034      -3863.1454
  -5877918.69245  -4388307.33645  24533997.1704   24534001.3424
      1196.2194        932.1194
  -1947038.47845  -1387446.95244  25871620.4204   25871628.3934
      2195.4844       1710.7674
  -5883901.86346  -4489089.74946  23766020.4044   23766025.2444
       165.9694        129.3264
   8974888.58346   6968799.04146  22846504.2404   22846508.8934
     -2237.9374      -1743.8474
  13721161.08742   7423458.94543  26373687.0764   26373695.5064
     -3459.4534      -2695.6784
   3578280.47546   2804656.22146  22643306.8114   22643310.4904
     -1781.6414      -1388.2914
  14325359.59545  10631623.33945  25126839.6934   25126845.0844
     -4109.5004      -3202.2084
 98  6 17 22 56 30.0060000  0  8G 6G 3G 1G21G17G22G23G26
  22847509.71145  17738636.27845  24931778.7564   24931785.1434
     -4964.7664      -3868.6494
  -5913629.31846  -4416133.73245  24527201.8034   24527206.1744
      1184.4694        922.9634
  -2012879.81745  -1438751.64343  25859090.6154   25859099.1744
      2193.7974       1709.4524
  -5888754.85146  -4492871.24246  23765097.0144   23765101.7714
       157.4534        122.6914
   9042163.57146   7021221.10346  22859306.3424   22859310.9594
     -2247.0624      -1750.9584
  13825029.13143   7504394.95043  26393452.8034   26393458.6864
     -3465.1564      -2700.1224
   3631867.72346   2846412.53746  22653503.9204   22653507.6004
     -1790.8284      -1395.4504
  14448838.74445  10727840.81645  25150337.4904   25150341.8384
     -4122.4694      -3212.3134
 98  6 17 22 57  0.0060000  0  8G 6G 3G 1G21G17G22G23G26
  22996572.00845  17854788.60145  24960143.8654   24960149.9944
     -4972.2034      -3874.4444
  -5948968.47145  -4443670.67545  24520476.6544   24520480.9674
      1171.9384        913.1984
  -2078644.99445  -1489996.97744  25846575.7564   25846583.9284
      2190.9694       1707.2484
  -5893325.21046  -4496432.51146  23764227.4434   23764232.2714
       147.7194        115.1064
   9109728.14546   7073868.82546  22872163.4904   22872167.9674
     -2256.7664      -1758.5194
  13929089.22043   7585480.61543  26413254.1154   26413261.6784
     -3471.6724      -2705.1994
   3685748.40746   2888397.50546  22663757.2324   22663760.7484
     -1800.8444      -1403.2554
  14572722.21245  10824373.36145  25173910.7954   25173916.0214
     -4135.9534      -3222.8214
 98  6 17 22 57 30.0060000  0  8G 6G 3G 1G21G17G22G23G26
  23145837.22445  17971099.03245  24988548.6704   24988554.8114
     -4979.0164      -3879.7524
  -5983941.26345  -4470922.15345  24513821.5294   24513826.5334
      1159.2194        903.2874
  -2144339.89344  -1541187.58944  25834073.3654   25834081.1394
      2188.4694       1705.3004
  -5897626.73046  -4499784.28746  23763408.6934   23763413.5214
       138.8754        108.2144
   9177557.55346   7126722.90446  22885071.0924   22885075.6034
     -2265.3914      -1765.2394
  14033316.92644   7666696.85043  26433089.2564   26433096.5724
     -3477.0624      -2709.3994
   3739913.77146   2930604.29546  22674064.5064   22674068.1864
     -1810.4064      -1410.7064
  14696992.65545  10921207.44945  25197559.0214   25197564.1544
     -4148.8914      -3232.9024
 98  6 17 22 58  0.0060000  0  8G 6G 3G 1G21G17G22G23G26
  23295307.28745  18087569.05745  25016991.9904   25016998.2484
     -4986.0784      -3885.2564
  -6018520.73045  -4497867.12245  24507241.2404   24507245.7994
      1145.5474        892.6344
  -2209956.64944  -1592317.29243  25821587.7094   25821596.0684
      2185.5784       1703.0484
  -5901665.35746  -4502931.21146  23762640.1784   23762645.1234
       129.9384        101.2504
   9245646.83846   7179779.48346  22898028.1394   22898032.5334
     -2274.2344      -1772.1314
  14137713.89244   7748045.04143  26452954.7564   26452962.7404
     -3483.1564      -2714.1484
   3794369.08446   2973037.02246  22684426.8504   22684430.9394
     -1820.3914      -1418.4864
  14821652.93645  11018345.27445  25221280.7324   25221286.5684
     -4162.3914      -3243.4214
 98  6 17 22 58 30.0060000  0  8G 6G 3G 1G21G17G22G23G26
  23445000.16045  18204212.68845  25045476.5764   25045482.2364
     -4993.8754      -3891.3314
  -6052685.74546  -4524489.16145  24500740.2404   24500744.6464
      1131.8284        881.9444
  -2275481.65244  -1643375.49143  25809118.5374   25809128.9364
      2182.4694       1700.6254
  -5905430.19246  -4505864.78146  23761923.4904   23761928.5414
       120.6564         94.0184
   9314005.20146   7233045.74146  22911036.0844   22911040.7364
     -2283.2974      -1779.1924
  14242309.52543   7829548.01243  26472858.4754   26472866.1314
     -3490.3284      -2719.7364
   3849131.48646   3015709.04346  22694848.1704   22694852.2604
     -1830.7664      -1426.5714
  14946730.21845  11115808.08045  25245082.2324   25245086.8964
     -4176.4064      -3254.3434
 98  6 17 22 59  0.0060000  0  8G 6G 3G 1G21G17G22G23G26
  23594917.72545  18321031.43145  25074006.4204   25074013.0414
     -5000.7504      -3896.6884
  -6086439.80846  -4550790.98045  24494316.8264   24494321.4324
      1118.1724        871.3034
  -2340919.05744  -1694365.42144  25796665.6624   25796674.0104
      2180.0164       1698.7134
  -5908918.22346  -4508582.67046  23761259.7874   23761264.7444
       111.7504         87.0784
   9382629.80246   7286519.45446  22924094.9204   22924099.5844
     -2291.8914      -1785.8894
  14347121.43443   7911219.45743  26492803.7094   26492812.6434
     -3497.2504      -2725.1304
   3904199.14946   3058618.92146  22705326.9124   22705330.8854
     -1840.5944      -1434.2294
  15072220.79545  11213592.90845  25268962.4594   25268967.4164
     -4189.8594      -3264.8254
 98  6 17 22 59 30.0060000  0  8G 6G 3G 1G21G17G22G23G26
  23745060.22445  18438025.45545  25102576.3654   25102582.1664
     -5008.4064      -3902.6544
  -6119772.70146  -4576764.60645  24487973.7564   24487978.0104
      1104.4064        860.5764
  -2406272.96544  -1745290.28844  25784228.9904   25784236.4594
      2177.2034       1696.5224
  -5912130.98346  -4511086.05746  23760648.4674   23760653.1784
       102.7664         80.0774
   9451524.70446   7340203.78646  22937205.2794   22937209.9084
     -2300.8284      -1792.8534
  14452147.30944   7993057.70143  26512790.0064   26512798.6354
     -3504.1724      -2730.5244
   3959567.37946   3101763.01046  22715862.8424   22715866.6864
     -1850.2504      -1441.7534
  15198133.39245  11311706.59245  25292922.8894   25292926.8384
     -4203.8914      -3275.7594
 98  6 17 23  0  0.0060000  0  8G 6G 3G 1G21G17G22G23G26
  23895413.36345  18555183.57145  25131189.3504   25131195.2214
     -5014.8594      -3907.6834
  -6152717.35746  -4602435.71745  24481704.1314   24481708.5964
      1092.3444        851.1774
  -2471554.49344  -1796158.74844  25771805.7714   25771813.3694
      2175.1254       1694.9034
  -5915085.87446  -4513388.50946  23760085.9674   23760090.7484
        94.4224         73.5754
   9520679.59946   7394090.72346  22950364.9904   22950369.2684
     -2309.1564      -1799.3434
  14557366.87643   8075046.84443  26532812.5454   26532820.4594
     -3510.2034      -2735.2234
   4015205.84246   3145117.66746  22726450.7404   22726454.7484
     -1858.7034      -1448.3404
  15324447.44445  11410133.10144  25316960.0924   25316965.9984
     -4216.8124      -3285.8284
 98  6 17 23  0 30.0060000  0  8G 6G 3G 1G21G17G22G23G26
  24045963.72144  18672495.37344  25159837.4754   25159843.4514
     -5022.2344      -3913.4294
  -6185309.39246  -4627832.05245  24475502.3504   24475506.9084
      1080.0164        841.5714
  -2536764.98545  -1846971.87444  25759396.7644   25759404.7604
      2171.6724       1692.2124
  -5917782.46246  -4515489.68646  23759572.8264   23759577.5254
        84.8284         66.1004
   9590090.05546   7448176.78646  22963573.3654   22963577.9124
     -2318.7814      -1806.8434
  14662765.32844   8157175.39843  26552869.6074   26552877.6974
     -3516.7974      -2740.3614
   4071101.71246   3188672.89946  22737087.6074   22737091.5804
     -1868.2034      -1455.7434
  15451150.46445  11508862.70745  25341070.7484   25341075.1784
     -4230.4064      -3296.4204
 98  6 17 23  1  0.0060000  0  8G 6G 3G 1G21G17G22G23G26
  24196731.63244  18789976.70645  25188527.9124   25188535.4634
     -5029.1254      -3918.7994
  -6217531.00145  -4652939.75745  24469370.4754   24469375.3034
      1067.9844        832.1964
  -2601864.27345  -1897698.31444  25747009.0844   25747017.5964
      2168.1254       1689.4484
  -5920192.51246  -4517367.59446  23759114.2564   23759118.6974
        75.8444         59.0994
   9659794.38246   7502491.84646  22976837.5534   22976842.0534
     -2328.4064      -1814.3434
  14768355.45044   8239453.26443  26572962.1154   26572970.9904
     -3522.5944      -2744.8784
   4127282.53946   3232450.17446  22747778.0764   22747781.7444
     -1877.3914      -1462.9024
  15578252.36745  11607903.12745  25365257.3034   25365262.5064
     -4243.2194      -3306.4044
 98  6 17 23  1 30.0060000  0  8G 6G 3G 1G21G17G22G23G26
  24347708.16445  18907620.58045  25217257.1394   25217263.9004
     -5036.1414      -3924.2654
  -6249402.97646  -4677775.01545  24463305.3114   24463309.3534
      1056.6254        823.3444
  -2666853.17645  -1948338.77744  25734641.2954   25734649.2914
      2164.2664       1686.4414
  -5922342.31246  -4519042.69746  23758704.9674   23758709.7014
        67.4224         52.5374
   9729786.47746   7557031.14446  22990156.6394   22990160.7754
     -2337.8124      -1821.6724
  14874111.56043   8321860.47743  26593087.4754   26593095.3534
     -3527.9374      -2749.0424
   4183743.18746   3276445.50246  22758522.4284   22758526.4364
     -1886.8754      -1470.2924
  15705737.59745  11707242.25645  25389517.6074   25389522.9394
     -4255.7194      -3316.1444
 98  6 17 23  2  0.0060000  0  8G 6G 3G 1G21G17G22G23G26
  24498879.58245  19025416.34245  25246025.3654   25246032.5534
     -5042.6564      -3929.3434
  -6280935.13746  -4702345.47245  24457305.2714   24457310.3694
      1044.7034        814.0544
  -2731738.03545  -1998898.11344  25722293.7174   25722301.3734
      2160.7034       1683.6654
  -5924254.63646  -4520532.75546  23758341.0844   23758345.9474
        59.3914         46.2784
   9800051.79346   7611783.33146  23003527.6624   23003531.9634
     -2347.3444      -1829.0994
  14980018.65043   8404385.30542  26613240.6074   26613247.0064
     -3533.2344      -2753.1704
   4240486.99746   3320661.47646  22769320.3424   22769324.2794
     -1896.7814      -1478.0114
  15833578.22645  11806858.30745  25413844.3344   25413849.8074
     -4267.7344      -3325.5074
 98  6 17 23  2 30.0060000  0  8G 6G 3G 1G21G17G22G23G26
  24650249.03245  19143366.39045  25274829.4364   25274835.4474
     -5048.9224      -3934.2254
  -6312087.56246  -4726620.03945  24451376.7484   24451381.6824
      1031.5944        803.8394
  -2796514.49945  -2049373.00044  25709967.2094   25709974.7254
      2157.5004       1681.1694
  -5925926.05946  -4521835.10946  23758022.7954   23758027.3534
        51.8284         40.3864
   9870618.30046   7666770.22446  23016956.2174   23016960.7054
     -2357.5164      -1837.0254
  15086087.52243   8487036.31742  26633425.3184   26633433.7714
     -3538.3914      -2757.1874
   4297536.68946   3365115.80546  22780176.4204   22780180.6974
     -1906.8124      -1485.8284
  15961784.37445  11906759.17645  25438241.4124   25438247.2254
     -4279.6094      -3334.7614
 98  6 17 23  3  0.0060000  0  8G 6G 3G 1G21G17G22G23G26
  24801807.61145  19261463.81844  25303670.1464   25303675.2094
     -5055.3594      -3939.2414
  -6342825.77246  -4750571.86745  24445527.6464   24445531.9944
      1017.3134        792.7114
  -2861193.02145  -2099771.58344  25697658.9594   25697666.7214
      2154.0944       1678.5154
  -5927374.03746  -4522963.34746  23757747.2174   23757752.2444
        44.4534         34.6394
   9941494.11946   7721998.12946  23030443.4904   23030448.0844
     -2367.7664      -1845.0124
  15192313.70843   8569809.79842  26653639.2254   26653650.0334
     -3543.5314      -2761.1934
   4354888.48646   3409805.53346  22791090.1624   22791093.7954
     -1916.9694      -1493.7424
  16090353.50245  12006942.87445  25462707.0294   25462711.1664
     -4292.0784      -3344.4764
 98  6 17 23  3 30.0060000  0  8G 6G 3G 1G21G17G22G23G26
  24953554.84045  19379708.23545  25332546.7014   25332553.9714
     -5061.9534      -3944.3794
  -6373139.95646  -4774193.26445  24439759.1704   24439763.9634
      1002.6094        781.2544
  -2925772.55245  -2150093.03544  25685370.3034   25685378.0064
      2150.4384       1675.6664
  -5928604.40546  -4523922.02046  23757513.0764   23757517.4474
        36.5634         28.4904
  10012659.89946   7777451.98746  23043985.7324   23043990.2324
     -2377.4374      -1852.5494
  15298684.24742   8652695.78442  26673880.4044   26673891.0964
     -3548.7034      -2765.2234
   4412538.42646   3454727.58146  22802060.7484   22802064.4164
     -1927.0944      -1501.6314
  16219294.41045  12107416.28545  25487243.6704   25487248.6974
     -4304.7344      -3354.3384
 98  6 17 23  4  0.0060000  0  8G 6G 3G 1G21G17G22G23G26
  25105490.27245  19498099.28245  25361459.3734   25361465.8534
     -5067.5944      -3948.7744
  -6403003.07546  -4797463.18245  24434076.1784   24434080.5964
       987.7814        769.7004
  -2990246.16845  -2200331.94044  25673100.4904   25673108.1824
      2147.2814       1673.2064
  -5929595.22646  -4524694.01946  23757324.5924   23757329.1504
        28.8284         22.4634
  10084121.97446   7833136.71346  23057584.5684   23057588.7644
     -2387.2664      -1860.2074
  15405211.46443   8735703.86142  26694152.7014   26694159.9594
     -3553.5164      -2768.9734
   4470479.11746   3499876.18846  22813086.5454   22813089.9904
     -1935.9694      -1508.5474
  16348609.06845  12208180.92245  25511851.4594   25511855.9474
     -4316.8284      -3363.7624
 98  6 17 23  4 30.0060000  0  8G 6G 3G 1G21G17G22G23G26
  25257603.72545  19616629.09744  25390405.6704   25390412.0104
     -5073.7194      -3953.5474
  -6432422.09446  -4820387.04845  24428477.9124   24428482.4594
       973.2194        758.3524
  -3054614.98045  -2250489.16444  25660851.4754   25660859.5414
      2143.5474       1670.2964
  -5930340.08446  -4525274.36646  23757182.9124   23757187.2714
        20.3754         15.8774
  10155876.90946   7889049.64646  23071239.0454   23071243.5924
     -2396.6414      -1867.5124
  15511882.65642   8818824.09042  26714451.0144   26714456.1824
     -3558.3284      -2772.7234
   4528679.06346   3545226.80946  22824161.4434   22824165.1584
     -1944.4224      -1515.1344
  16478287.16245  12309228.75245  25536528.9124   25536533.0964
     -4328.8284      -3373.1134
 98  6 17 23  5  0.0060000  0  8G 6G 3G 1G21G17G22G23G26
  25409912.02845  19735310.69045  25419388.5924   25419394.9434
     -5080.1414      -3958.5514
  -6461405.54246  -4842971.51145  24422962.8114   24422967.6864
       959.1254        747.3704
  -3118854.24645  -2300545.46144  25648627.0534   25648634.6034
      2139.0004       1666.7534
  -5930819.82546  -4525648.13446  23757091.3894   23757095.7014
        11.5944          9.0344
  10227905.05746   7945175.47746  23084945.4364   23084949.7714
     -2405.1094      -1874.1114
  15618705.24042   8902062.24742  26734780.0844   26734789.7324
     -3563.2034      -2776.5224
   4587141.40546   3590781.89146  22835286.4514   22835290.2014
     -1953.0004      -1521.8184
  16608337.01445  12410566.28644  25561276.6234   25561281.0184
     -4341.0164      -3382.6104
 98  6 17 23  5 30.0060000  0  8G 6G 3G 1G21G17G22G23G26
  25562426.11745  19854152.66145  25448411.8814   25448417.6824
     -5086.3444      -3963.3854
  -6489955.50546  -4865218.18945  24417529.6394   24417534.0574
       945.2194        736.5344
  -3182944.47345  -2350485.63244  25636430.7954   25636438.2284
      2134.7664       1663.4544
  -5931014.53446  -4525799.79746  23757054.2484   23757058.7014
         2.3594          1.8384
  10300201.82446   8001510.61946  23098702.8184   23098707.0374
     -2413.8914      -1880.9544
  15725699.45542   8985434.20042  26755140.3574   26755150.7094
     -3568.8284      -2780.9054
   4645873.64746   3636547.29646  22846462.6154   22846466.3654
     -1961.3594      -1528.3324
  16738757.78245  12512192.82445  25586094.4984   25586098.6004
     -4352.4844      -3391.5464
 98  6 17 23  6  0.0070000  0  8G 6G 3G 1G21G17G22G23G26
  25715111.06144  19973127.75744  25477466.9564   25477473.3904
     -5092.4374      -3968.1334
  -6518105.07446  -4887152.87945  24412173.0814   24412176.6444
       931.4224        725.7834
  -3246922.49145  -2400338.32844  25624255.4404   25624262.8394
      2130.2034       1659.8994
  -5930945.71046  -4525746.09746  23757067.3314   23757072.0544
        -7.0314         -5.4794
  10372764.56046   8058053.00346  23112511.3154   23112515.5344
     -2423.4224      -1888.3814
  15832857.16542   9068933.50242  26775530.6284   26775535.8544
     -3574.8124      -2785.5684
   4704844.00546   3682498.24046  22857684.4794   22857688.4054
     -1970.0944      -1535.1384
  16869499.63745  12614069.57044  25610973.7144   25610978.4134
     -4363.4064      -3400.0574
 98  6 17 23  6 30.0070000  0  8G 6G 3G 1G21G17G22G23G26
  25867986.00144  20092250.86544  25506558.2694   25506564.9134
     -5098.6724      -3972.9914
  -6545840.77546  -4908765.08045  24406895.3084   24406899.6444
       917.9384        715.2764
  -3310755.54045  -2450078.10545  25612108.4014   25612116.2694
      2125.7034       1656.3924
  -5930587.29346  -4525466.76046  23757135.4254   23757140.0304
       -16.2814        -12.6874
  10445604.54146   8114811.42446  23126372.3004   23126376.7764
     -2432.1254      -1895.1624
  15940197.52342   9152575.20842  26795957.9794   26795965.1554
     -3580.7664      -2790.2074
   4764093.64046   3728666.80746  22868959.4644   22868963.1204
     -1979.5784      -1542.5284
  17000573.21945  12716204.81244  25635916.3704   25635921.5384
     -4374.4534      -3408.6654
 98  6 17 23  7  0.0070000  0  8G 6G 3G 1G21G17G22G23G26
  26021026.17744  20211502.74344  25535681.2064   25535689.7534
     -5103.5944      -3976.8264
  -6573179.98346  -4930068.31945  24401692.6674   24401697.2264
       904.8914        705.1104
  -3374470.70745  -2499726.02945  25599983.7224   25599991.2494
      2122.3284       1653.7624
  -5929973.62446  -4524988.52746  23757252.4094   23757256.8394
       -24.2974        -18.9334
  10518696.39546   8171766.11046  23140281.2374   23140285.4794
     -2440.4224      -1901.6274
  16047700.26042   9236343.41142  26816415.0034   26816421.2964
     -3585.7664      -2794.1034
   4823620.37446   3775051.29846  22880286.9254   22880290.6864
     -1988.5474      -1549.5174
  17131965.65245  12818588.49744  25660919.1044   25660924.8234
     -4384.5474      -3416.5304
 98  6 17 23  7 30.0070000  0  8G 6G 3G 1G21G17G22G23G26
  26174219.65045  20330874.09644  25564832.9564   25564839.1794
     -5109.3284      -3981.2954
  -6600113.76846  -4951055.64345  24396567.3084   24396571.8084
       890.5784        693.9574
  -3438077.84645  -2549289.74745  25587880.0584   25587887.3044
      2118.0784       1650.4504
  -5929110.12646  -4524315.61146  23757416.5894   23757420.7614
       -33.3594        -25.9944
  10592059.87446   8228932.44546  23154241.8944   23154246.3234
     -2450.7194      -1909.6514
  16155361.60142   9320235.15242  26836902.6904   26836910.7574
     -3591.5164      -2798.5844
   4883427.05846   3821653.92446  22891667.7294   22891671.5854
     -1998.7194      -1557.4434
  17263667.31845  12921213.11244  25685981.5584   25685985.5304
     -4395.6724      -3425.1994
 98  6 17 23  8  0.0070000  0  8G 6G 3G 1G21G17G22G23G26
  26327559.74644  20450359.68243  25594012.2294   25594018.1244
     -5113.7504      -3984.7404
  -6626638.16946  -4971723.96845  24391519.8004   24391524.4404
       877.2194        683.5474
  -3501573.34345  -2598766.48945  25575796.7844   25575803.5344
      2114.6254       1647.7604
  -5928000.34246  -4523450.79746  23757627.8084   23757632.3084
       -40.9374        -31.8994
  10665707.28646   8286320.04046  23168256.4334   23168260.9094
     -2459.2974      -1916.3354
  16263155.77643   9404230.46742  26857415.0894   26857421.2534
     -3594.9534      -2801.2624
   4943515.63446   3868476.21046  22903102.2144   22903105.6364
     -2007.5164      -1564.2984
  17395686.97445  13024085.54943  25711104.0894   25711108.3544
     -4406.2194      -3433.4174
 98  6 17 23  8 30.0070000  0  8G 6G 3G 1G21G17G22G23G26
  26481047.01344  20569959.94943  25623220.2694   25623225.6014
     -5118.9694      -3988.8074
  -6652735.51846  -4992059.50645  24386553.3704   24386557.7884
       862.1564        671.8104
  -3564952.48845  -2648152.57845  25563735.6984   25563741.9094
      2110.3754       1644.4484
  -5926655.89246  -4522403.12046  23757883.6904   23757888.1324
       -48.9224        -38.1214
  10739615.13246   8343910.56446  23182320.6594   23182325.1944
     -2468.2664      -1923.3244
  16371055.29643   9488307.78042  26877948.6834   26877956.8904
     -3598.5314      -2804.0504
   5003875.03446   3915509.53046  22914588.0974   22914591.6014
     -2016.5784      -1571.3604
  17528050.34845  13127225.79843  25736291.6364   25736297.2494
     -4418.2504      -3442.7924
 98  6 17 23  9  0.0070000  0  8G 6G 3G 1G21G17G22G23G26
  26634700.31445  20689689.59244  25652460.2294   25652466.5114
     -5124.3594      -3993.0074
  -6678364.91646  -5012030.42745  24381676.3544   24381680.6324
       846.6564        659.7324
  -3628197.22645  -2697433.95945  25551700.4254   25551707.1164
      2106.1564       1641.1614
  -5925067.25446  -4521165.17046  23758185.7374   23758190.2374
       -56.7194        -44.1964
  10813809.94746   8401724.70346  23196439.5194   23196443.8084
     -2477.8124      -1930.7634
  16479069.31243   9572474.42742  26898503.1284   26898511.8154
     -3602.1414      -2806.8634
   5064507.13046   3962755.33646  22926126.0894   22926130.0154
     -2025.2344      -1578.1054
  17660779.65945  13230651.23344  25761549.1834   25761554.7374
     -4430.0474      -3451.9854
 98  6 17 23  9 30.0070000  0  8G 6G 3G 1G21G17G22G23G26
  26788498.95345  20809532.44844  25681727.1204   25681734.6714
     -5129.7664      -3997.2204
  -6703543.58246  -5031650.11845  24376884.8784   24376888.7454
       831.0634        647.5814
  -3691327.93345  -2746626.48545  25539686.9094   25539693.5544
      2101.8594       1637.8134
  -5923261.74746  -4519758.22446  23758529.4094   23758533.4994
       -64.5474        -50.2964
  10888270.83346   8459746.16746  23210608.9484   23210613.4604
     -2486.9694      -1937.8984
  16587174.67244   9656712.20542  26919074.5034   26919082.3584
     -3605.5624      -2809.5294
   5125378.12046   4010187.29046  22937709.3704   22937713.2024
     -2033.5474      -1584.5824
  17793847.17745  13334340.15744  25786871.7694   25786876.5974
     -4441.9694      -3461.2744
 98  6 17 23 10  0.0070000  0  8G 6G 3G 1G21G17G22G23G26
  26942465.94944  20929506.49344  25711025.7144   25711032.4994
     -5134.8914      -4001.2134
  -6728248.85046  -5050900.94145  24372183.8704   24372188.3234
       815.7344        635.6374
  -3754327.06845  -2795716.47645  25527698.0504   25527705.2724
      2098.0164       1634.8174
  -5921211.63446  -4518160.67346  23758919.3624   23758923.9334
       -72.2344        -56.2874
  10963000.17646   8517976.81246  23224829.4254   23224834.1834
     -2495.0474      -1944.1924
  16695388.84543   9741034.77142  26939666.7224   26939674.6834
     -3608.9844      -2812.1964
   5186495.99646   4057811.62246  22949339.5894   22949343.4794
     -2041.2034      -1590.5484
  17927274.32745  13438309.36944  25812262.0894   25812265.4294
     -4453.3284      -3470.1264
 98  6 17 23 10 30.0070000  0  8G 6G 3G 1G21G17G22G23G26
  27096602.69144  21049612.82443  25740357.4174   25740364.2264
     -5140.1724      -4005.3294
  -6752480.89946  -5069783.01046  24367572.6204   24367576.5114
       800.5944        623.8394
  -3817199.82845  -2844708.00745  25515734.0654   25515741.8044
      2094.1884       1631.8344
  -5918916.92846  -4516372.54946  23759356.3864   23759360.5224
       -79.9844        -62.3254
  11037990.86046   8576411.10946  23239099.7694   23239103.9994
     -2503.7034      -1950.9374
  16803731.50743   9825457.46842  26960284.0344   26960289.0034
     -3613.0474      -2815.3614
   5247863.85246   4105630.74346  22961017.6284   22961021.0504
     -2049.2344      -1596.8064
  18061053.24045  13542552.65144  25837719.0114   25837725.0114
     -4464.3754      -3478.7344
 98  6 17 23 11  0.0070000  0  8G 6G 3G 1G21G17G22G23G26
  27250896.32644  21169841.41643  25769719.3154   25769726.4794
     -5145.8914      -4009.7854
  -6776267.86046  -5088318.27645  24363046.1284   24363049.9834
       785.3914        611.9934
  -3879951.96445  -2893605.56445  25503792.8864   25503798.7334
      2089.2974       1628.0244
  -5916386.02346  -4514400.37046  23759837.7374   23759842.4134
       -88.7974        -69.1924
  11113248.13546   8635053.12946  23253420.9094   23253425.4214
     -2513.3914      -1958.4864
  16912195.04143   9909974.32742  26980924.5504   26980933.1904
     -3617.7034      -2818.9894
   5309471.39446   4153636.62746  22972741.0194   22972744.4994
     -2057.8284      -1603.5024
  18195157.81345  13647049.66344  25863238.4484   25863243.5224
     -4475.8444      -3487.6704
 98  6 17 23 11 30.0070000  0  8G 6G 3G 1G21G17G22G23G26
  27405349.21444  21290194.11643  25799110.4644   25799116.5934
     -5151.1724      -4013.9004
  -6799610.43646  -5106507.25245  24358603.8864   24358608.2454
       770.7974        600.6214
  -3942555.00345  -2942386.97445  25491880.0424   25491886.5114
      2084.1564       1624.0184
  -5913580.41146  -4512214.13146  23760371.6984   23760375.8354
       -98.4064        -76.6804
  11188794.16646   8693920.15846  23267796.4874   23267800.7764
     -2523.1254      -1966.0714
  17020786.93643   9994591.20442  27001589.1284   27001595.8194
     -3621.7664      -2822.1554
   5371332.11646   4201839.79646  22984512.8314   22984516.4404
     -2066.2504      -1610.0654
  18329605.00745  13751813.73444  25888823.2614   25888826.8114
     -4487.3444      -3496.6314
 98  6 17 23 12  0.0070000  0  8G 6G 3G 1G21G17G22G23G26
  27559942.54043  21410656.18743  25828528.3944   25828534.6514
     -5155.3754      -4017.1754
  -6822542.54846  -5124376.39045  24354239.7694   24354244.1404
       757.6724        590.3944
  -4005012.44445  -2991054.89345  25479993.9954   25480000.5344
      2079.1564       1620.1224
  -5910506.47346  -4509818.79846  23760956.5734   23760961.2374
      -106.7974        -83.2184
  11264618.06946   8753003.71746  23282225.6754   23282230.2804
     -2532.2194      -1973.1574
  17129478.59643  10079285.84143  27022272.9564   27022282.3234
     -3624.6724      -2824.4204
   5433430.53046   4250228.18646  22996329.5504   22996332.9954
     -2074.0944      -1616.1774
  18464372.13845  13856827.04444  25914468.2224   25914472.3114
     -4497.5004      -3504.5454
 98  6 17 23 12 30.0070000  0  8G 6G 3G 1G21G17G22G23G26
  27714678.64943  21531229.48743  25857973.5424   25857979.7534
     -5160.7504      -4021.3644
  -6845068.05946  -5141928.69645  24349953.5894   24349957.7844
       743.7504        579.5454
  -4067297.78045  -3039588.71845  25468141.2374   25468148.2964
      2072.6884       1615.0814
  -5907170.72046  -4507219.46446  23761591.2844   23761595.3514
      -116.0624        -90.4384
  11340741.06546   8812320.33246  23296711.4094   23296715.8624
     -2543.0624      -1981.6074
  17238265.23443  10164054.40542  27042974.5034   27042983.4834
     -3628.0944      -2827.0864
   5495779.96346   4298812.16746  23008194.4644   23008198.2724
     -2082.8124      -1622.9714
  18599458.08345  13962088.78744  25940174.1834   25940178.2964
     -4508.5004      -3513.1174
 98  6 17 23 13  0.0070000  0  8G 6G 3G 1G21G17G22G23G26
  27869554.43444  21651911.63744  25887446.5894   25887453.8474
     -5164.8594      -4024.5664
  -6867199.01046  -5159173.55946  24345742.2294   24345745.8624
       731.0164        569.6234
  -4129403.13245  -3087982.29545  25456323.4644   25456330.0854
      2067.1094       1610.7354
  -5903572.86846  -4504415.88846  23762275.7454   23762279.9994
      -124.4694        -96.9894
  11417167.06946   8871873.06046  23311254.7534   23311259.1364
     -2552.6564      -1989.0834
  17347129.57642  10248883.55342  27063689.3624   27063696.1124
     -3630.3284      -2828.8274
   5558370.32446   4347583.88246  23020104.9334   23020108.6714
     -2090.5474      -1628.9984
  18734846.61045  14067586.32143  25965937.5654   25965941.9834
     -4517.9224      -3520.4594
 98  6 17 23 13 30.0070000  0  8G 6G 3G 1G21G17G22G23G26
  28024570.24644  21772702.94443  25916945.7224   25916952.6984
     -5170.0314      -4028.5964
  -6888925.44246  -5176103.20346  24341607.7534   24341612.3004
       717.0474        558.7384
  -4191328.81445  -3136235.89145  25444538.8234   25444545.2574
      2060.9694       1605.9504
  -5899710.38346  -4501406.11346  23763010.8784   23763015.0154
      -133.1724       -103.7704
  11493897.59246   8931663.06746  23325856.0974   23325860.7264
     -2563.0314      -1997.1674
  17456085.03842  10333783.76442  27084423.6594   27084432.4404
     -3633.8284      -2831.5544
   5621212.85946   4396552.10546  23032063.6364   23032067.4094
     -2099.3444      -1635.8524
  18870525.66945  14173310.22543  25991756.5894   25991761.4404
     -4527.6254      -3528.0194
 98  6 17 23 14  0.0070000  0  8G 6G 3G 1G21G17G22G23G26
  28179750.89144  21893622.67443  25946475.7374   25946483.8514
     -5175.4844      -4032.8454
  -6910217.58746  -5192694.44146  24337556.0814   24337560.0774
       702.0004        547.0134
  -4253062.78745  -3184340.08545  25432791.0034   25432796.9684
      2054.4064       1600.8364
  -5895592.98446  -4498197.70646  23763794.3864   23763798.4874
      -141.6414       -110.3694
  11570945.70046   8991700.55046  23340517.6754   23340521.9764
     -2573.9064      -2005.6414
  17565161.95942  10418778.62742  27105179.9334   27105186.3664
     -3638.3124      -2835.0494
   5684328.45646   4445733.10046  23044074.0504   23044077.4254
     -2108.5784      -1643.0484
  19006496.64645  14279261.60343  26017630.9794   26017634.2144
     -4537.4064      -3535.6414
 98  6 17 23 14 30.0070000  0  8G 6G 3G 1G21G17G22G23G26
  28335079.73444  22014657.88643  25976033.5974   25976040.9834
     -5180.6724      -4036.8874
  -6931059.26746  -5208934.67946  24333590.0034   24333593.9994
       686.3914        534.8504
  -4314625.16245  -3232310.58845  25421076.5114   25421082.3944
      2048.8134       1596.4774
  -5891235.83446  -4494802.47346  23764623.3394   23764627.5464
      -149.8444       -116.7614
  11648310.67846   9051984.94346  23355239.8004   23355244.2184
     -2584.6874      -2014.0424
  17674359.84842  10503867.65642  27125960.8474   27125965.6284
     -3642.4844      -2838.3004
   5747693.23846   4495108.26946  23056131.8234   23056135.1754
     -2116.6564      -1649.3434
  19142745.48445  14385429.48543  26043559.0264   26043564.4404
     -4546.6564      -3542.8494
 98  6 17 23 15  0.0070000  0  8G 6G 3G 1G21G17G22G23G26
  28490563.83444  22135814.02643  26005621.5344   26005626.7844
     -5185.3124      -4040.5034
  -6951418.55046  -5224799.02446  24329715.7144   24329719.8044
       670.3134        522.3214
  -4376019.94745  -3280150.51545  25409393.1904   25409398.9794
      2043.8594       1592.6184
  -5886627.89746  -4491211.83546  23765500.0034   23765504.1984
      -157.5474       -122.7644
  11725991.12146   9112515.15246  23370021.8944   23370026.1834
     -2594.4064      -2021.6154
  17783681.72642  10589053.34341  27146763.9174   27146771.8904
     -3645.9844      -2841.0274
   5811303.99346   4544675.10746  23068236.4334   23068240.0544
     -2124.3914      -1655.3694
  19279273.85545  14491815.20344  26069539.5894   26069544.6404
     -4555.6874      -3549.8864
 98  6 17 23 15 30.0070000  0  8G 6G 3G 1G21G17G22G23G26
  28646189.76044  22257080.73343  26035235.8004   26035242.4444
     -5189.7664      -4043.9734
  -6971281.97246  -5240276.97746  24325935.5814   24325939.6474
       653.8914        509.5254
  -4437263.78545  -3327872.80145  25397739.1904   25397745.7184
      2038.9064       1588.7584
  -5881788.50946  -4487440.84746  23766420.9484   23766425.2964
      -165.2664       -128.7784
  11803965.90046   9173274.71746  23384860.0194   23384864.2844
     -2603.9534      -2029.0544
  17893109.86142  10674321.76842  27167586.2454   27167595.8584
     -3649.1414      -2843.4864
   5875150.21246   4594425.42346  23080386.0584   23080389.6554
     -2132.1874      -1661.4454
  19416082.83645  14598419.55344  26095572.4564   26095577.3434
     -4565.1254      -3557.2404
 98  6 17 23 16  0.0070000  0  8G 6G 3G 1G21G17G22G23G26
  28801932.78344  22378438.63344  26064873.2294   26064880.5934
     -5193.1094      -4046.5794
  -6990659.00046  -5255375.92246  24322248.5504   24322252.4874
       637.7344        496.9364
  -4498361.91945  -3375481.54145  25386111.8394   25386118.4484
      2034.1254       1585.0324
  -5876717.89746  -4483489.68646  23767385.8864   23767390.3154
      -173.0164       -134.8174
  11882216.43746   9234249.15946  23399750.8154   23399754.9404
     -2612.7194      -2035.8854
  18002618.64442  10759653.14142  27188425.7374   27188431.9724
     -3651.3914      -2845.2394
   5939227.00146   4644355.40846  23092579.4564   23092582.8904
     -2139.7034      -1667.3014
  19553176.75645  14705245.96944  26121661.2534   26121664.9094
     -4574.6094      -3564.6314
 98  6 17 23 16 30.0070000  0  8G 6G 3G 1G21G17G22G23G26
  28957792.78144  22499887.73643  26094532.8234   26094540.2104
     -5197.0624      -4049.6594
  -7009536.35946  -5270085.51246  24318656.1594   24318660.6364
       621.3594        484.1764
  -4559299.95945  -3422965.57445  25374515.0814   25374520.6474
      2028.9534       1581.0024
  -5871395.80646  -4479342.55746  23768398.6674   23768403.2024
      -181.1564       -141.1614
  11960734.49046   9295432.04746  23414692.1834   23414696.2494
     -2621.0944      -2042.4114
  18112198.24642  10845039.61342  27209278.7614   27209287.3194
     -3653.3754      -2846.7864
   6003545.76946   4694473.94946  23104818.9724   23104822.4874
     -2147.7194      -1673.5474
  19690571.75245  14812306.93643  26147806.1044   26147811.6244
     -4584.5474      -3572.3744
 98  6 17 23 17  0.0070000  0  8G 6G 3G 1G21G17G22G23G26
  29113755.11744  22621416.56042  26124211.6204   26124218.5154
     -5200.0624      -4051.9974
  -7027941.46646  -5284427.11446  24315153.7534   24315157.8194
       606.0944        472.2814
  -4620090.45045  -3470334.60045  25362947.4014   25362953.4724
      2023.9534       1577.1064
  -5865842.22246  -4475015.04546  23769455.5584   23769459.5304
      -188.7664       -147.0904
  12039484.63246   9356795.78746  23429677.7294   23429681.8194
     -2628.7194      -2048.3524
  18221828.00742  10930465.23242  27230141.5114   27230152.2964
     -3654.8914      -2847.9674
   6068102.44146   4744777.86146  23117103.6204   23117106.9604
     -2155.6724      -1679.7444
  19828259.20344  14919595.81443  26174007.7294   26174013.0854
     -4594.2974      -3579.9724
 98  6 17 23 17 30.0070000  0  8G 6G 3G 1G21G17G22G23G26
  29269813.32543  22743020.05943  26153907.7144   26153915.7924
     -5203.2504      -4054.4814
  -7045884.25446  -5298408.46846  24311739.3394   24311742.8194
       590.6884        460.2764
  -4680708.64145  -3517569.39045  25351411.2144   25351417.6244
      2017.6724       1572.2124
  -5860037.71846  -4470492.00546  23770559.9484   23770564.0384
      -197.7034       -154.0544
  12118490.54046   9418358.82646  23444712.2224   23444716.3234
     -2637.8914      -2055.4994
  18331524.19342  11015942.68142  27251015.2924   27251023.6754
     -3657.6724      -2850.1344
   6132913.10746   4795279.69346  23129436.8394   23129440.6014
     -2164.5474      -1686.6604
  19966247.00945  15027118.73343  26200266.0734   26200271.1124
     -4604.4374      -3587.8734
 98  6 17 23 18  0.0070000  0  8G 6G 3G 1G21G17G22G23G26
  29425958.63043  22864691.41643  26183621.5584   26183629.7064
     -5206.4064      -4056.9404
  -7063374.20546  -5312036.95946  24308411.1514   24308415.2534
       575.3284        448.3084
  -4741143.77245  -3564661.51945  25339911.3004   25339917.8744
      2011.4384       1567.3544
  -5853985.35046  -4465775.83946  23771711.7844   23771715.8864
      -205.6094       -160.2154
  12197765.24846   9480131.32046  23459797.9174   23459802.4404
     -2646.9694      -2062.5734
  18441293.83342  11101477.20342  27271904.5114   27271913.8434
     -3660.1254      -2852.0454
   6197967.94546   4845971.79546  23141816.2844   23141819.6834
     -2172.1564      -1692.5894
  20104528.44045  15134870.42343  26226580.5504   26226584.7694
     -4614.1094      -3595.4104
 98  6 17 23 18 30.0070000  0  8G 6G 3G 1G21G17G22G23G26
  29582199.63343  22986437.34643  26213354.8544   26213363.3084
     -5209.9374      -4059.6924
  -7080410.22946  -5325311.73546  24305169.0974   24305173.4214
       559.9694        436.3394
  -4801398.87045  -3611613.34845  25328444.8084   25328450.9724
      2005.3134       1562.5814
  -5847703.69346  -4460880.99846  23772906.7614   23772911.0504
      -213.4534       -166.3274
  12277317.30346   9542119.91946  23474935.7454   23474940.2454
     -2656.9374      -2070.3414
  18551127.32743  11187061.54642  27292804.6444   27292812.8624
     -3662.6094      -2853.9814
   6263237.68246   4896831.34446  23154236.7454   23154240.2144
     -2179.4064      -1698.2394
  20243090.39844  15242840.77343  26252947.4014   26252952.9564
     -4623.7194      -3602.8984
 98  6 17 23 19  0.0070000  0  8G 6G 3G 1G21G17G23G26G 9
  29738532.36443  23108254.74443  26243103.5504   26243111.7924
     -5212.6094      -4061.7744
  -7096988.19946  -5338229.59746  24302014.7144   24302019.3434
       544.7974        424.5174
  -4861478.25345  -3658428.27645  25317012.3544   25317018.2614
      1999.5474       1558.0884
  -5841188.12046  -4455803.88346  23774146.7374   23774150.7574
      -221.3914       -172.5124
  12357169.13446   9604342.12046  23490131.3084   23490135.6084
     -2666.9374      -2078.1334
   6328718.62246   4947855.46446  23166697.1834   23166700.6514
     -2186.3284      -1703.6324
  20381931.80144  15351028.80843  26279368.3704   26279374.7454
     -4632.6874      -3609.8864
    -11414.45553                  26822213.3624
       453.2664
 98  6 17 23 19 30.0070000  0  8G 6G 3G 1G21G17G23G26G 9
  29894934.82743  23230126.47943  26272864.8234   26272872.1284
     -5214.5004      -4063.2474
  -7113113.89746  -5350795.03146  24298946.0424   24298949.8154
       530.0314        413.0114
  -4921399.28545  -3705119.81445  25305609.3944   25305615.2884
      1995.1564       1554.6674
  -5834443.73246  -4450548.46446  23775430.0424   23775434.0734
      -228.2504       -177.8574
  12437308.09746   9666788.05046  23505381.3154   23505385.5694
     -2675.7034      -2084.9634
   6394395.80646   4999032.50546  23179195.3154   23179198.7024
     -2192.2814      -1708.2714
  20521028.14745  15459415.51743  26305837.5734   26305842.8704
     -4640.6254      -3616.0714
    -24917.76343                  26819643.4724
       446.7504
 98  6 17 23 20  0.0070000  0  8G 6G 3G 1G21G17G23G26G 9
  30051437.02843  23352075.93543  26302647.9874   26302657.1084
     -5218.8444      -4066.6314
  -7128753.55946  -5362981.75046  24295969.7064   24295973.5614
       512.7344        399.5334
  -4981158.24945  -3751685.07345  25294237.7144   25294243.6794
      1988.8914       1549.7854
  -5827465.17546  -4445110.58346  23776758.0194   23776762.4604
      -236.9694       -184.6514
  12517738.06246   9729460.73546  23520686.7614   23520691.0154
     -2686.0784      -2093.0484
   6460285.16846   5050374.88146  23191733.5344   23191736.9444
     -2200.4064      -1714.6024
  20660403.19745  15568019.42643  26332359.5194   26332364.8514
     -4650.7664      -3623.9734
    -38185.62843     -3425.98252  26817118.9254   26817124.1164
       437.8134        341.1534
 98  6 17 23 20 30.0070000  0  8G 6G 3G 1G21G17G23G26G 9
  30208042.18943  23474105.57443  26332448.8084   26332459.4644
     -5222.0944      -4069.1644
  -7143899.78446  -5374783.97346  24293087.5504   24293091.6284
       496.2504        386.6884
  -5040755.29245  -3798124.15645  25282896.1364   25282902.4404
      1983.4844       1545.5724
  -5820240.83346  -4439481.17646  23778132.8084   23778137.2144
      -245.3124       -191.1534
  12598449.68146   9792352.90346  23536045.5654   23536049.7024
     -2695.3594      -2100.2804
   6526409.85046   5101900.62546  23204316.5424   23204320.1044
     -2208.6414      -1721.0194
  20800051.32745  15676836.12243  26358933.7454   26358938.0814
     -4659.7814      -3630.9984
    -51203.07243    -13569.32042  26814642.0974   26814649.2494
       429.2504        334.4814
 98  6 17 23 21  0.0070000  0  8G 6G 3G 1G21G17G23G26G 9
  30364734.12843  23596202.85142  26362267.1444   26362274.0034
     -5224.8124      -4071.2824
  -7158560.86746  -5386208.16346  24290297.6444   24290301.7334
       480.5314        374.4404
  -5100189.50745  -3844436.34045  25271586.5974   25271592.7024
      1977.8754       1541.2014
  -5812777.90346  -4433665.85746  23779552.7694   23779556.9524
      -252.8594       -197.0334
  12679428.65146   9855453.38846  23551455.1444   23551459.3514
     -2704.0624      -2107.0624
   6592773.35946   5153612.45746  23216945.2534   23216948.5814
     -2216.3284      -1727.0094
  20939958.74745  15785854.85943  26385557.3544   26385559.7334
     -4668.0474      -3637.4394
    -63968.86343    -23516.51342  26812211.0034   26812216.2654
       421.0944        328.1254
 98  6 17 23 21 30.0070000  0  8G 6G 3G 1G21G17G23G26G 9
  30521524.69143  23718377.00942  26392103.8474   26392111.3044
     -5227.9064      -4073.6934
  -7172745.98846  -5397261.47646  24287597.8944   24287601.8434
       465.2194        362.5084
  -5159432.61045  -3890599.64145  25260312.5584   25260318.2654
      1971.5004       1536.2344
  -5805087.58246  -4427673.35146  23781016.2764   23781020.2494
      -259.7814       -202.4274
  12760685.39046   9918770.31546  23566917.8394   23566921.9294
     -2713.0944      -2114.0994
   6659374.97346   5205509.82946  23229619.1984   23229622.5974
     -2223.8284      -1732.8534
  21080125.10345  15895075.36143  26412230.0424   26412235.3514
     -4676.3594      -3643.9164
    -76483.33943    -33267.98241  26809830.8864   26809839.6324
       413.2194        321.9894
 98  6 17 23 22  0.0070000  0  8G 6G 3G 1G21G17G23G26G 9
  30678432.74143  23840642.68843  26421961.5974   26421969.3824
     -5232.0624      -4076.9324
  -7186451.51346  -5407941.09346  24284990.0424   24284993.7334
       449.0784        349.9314
  -5218442.52945  -3936581.23845  25249083.6204   25249089.7724
      1963.0634       1529.6594
  -5797160.56246  -4421496.39546  23782524.9404   23782528.9484
      -268.0944       -208.9044
  12842243.56946   9982322.13446  23582437.9954   23582442.2264
     -2723.5164      -2122.2204
   6726228.36746   5257603.40446  23242340.6514   23242343.8864
     -2232.5004      -1739.6104
  21220562.18345  16004506.83343  26438954.8944   26438960.0264
     -4685.3754      -3650.9424
    -88733.24543    -42813.19142  26807499.7764   26807506.9174
       404.1254        314.9034
 98  6 17 23 22 30.0070000  0  8G 6G 3G 1G21G17G23G26G 9
  30835450.02944  23962993.45343  26451842.9094   26451852.1244
     -5235.6414      -4079.7204
  -7199690.70246  -5418257.31646  24282470.8004   24282474.0344
       433.8134        338.0364
  -5277215.49245  -3982378.15345  25237899.1514   25237905.1634
      1955.2664       1523.5844
  -5789004.48146  -4415140.96046  23784076.7374   23784080.8274
      -275.4064       -214.6024
  12924100.00646  10046106.36346  23598014.5814   23598018.8354
     -2733.5624      -2130.0494
   6793317.80546   5309880.90046  23255107.5814   23255111.0034
     -2239.7194      -1745.2354
  21361245.56644  16114130.18742  26465725.7374   26465731.6444
     -4693.4694      -3657.2484
   -100734.79242    -52164.81441  26805214.9014   26805221.1834
       396.2504        308.7664
 98  6 17 23 23  0.0070000  0  8G 6G 3G 1G21G17G23G26G 9
  30992589.41843  24085439.40142  26481744.8004   26481753.9094
     -5239.9534      -4083.0804
  -7212465.26346  -5428211.50346  24280040.0034   24280043.3194
       418.2664        325.9214
  -5335740.34545  -4027981.76145  25226761.9334   25226768.0034
      1946.8914       1517.0584
  -5780615.82346  -4408604.29346  23785673.1754   23785677.1124
      -283.4844       -220.8974
  13006279.56146  10110142.36746  23613652.8784   23613657.1904
     -2744.6254      -2138.6694
   6860625.43046   5362328.41546  23267915.8704   23267919.1984
     -2247.0944      -1750.9824
  21502186.76943  16223954.45842  26492546.0814   26492551.0974
     -4702.1564      -3664.0184
   -112492.03742    -61326.24141  26802978.1364   26802981.9214
       388.1254        302.4354
 98  6 17 23 23 30.0070000  0  8G 6G 3G 1G21G17G23G26G 9
  31149846.92243  24207977.40042  26511671.1594   26511677.1714
     -5243.7974      -4086.0754
  -7224782.75646  -5437809.53246  24277695.9094   24277699.6944
       402.7194        313.8074
  -5394034.63245  -4073405.70345  25215669.0974   25215674.7334
      1939.4844       1511.2874
  -5771995.03246  -4401886.74146  23787313.3784   23787317.3394
      -291.2974       -226.9854
  13088772.24646  10174422.37046  23629350.8784   23629355.3194
     -2754.8594      -2146.6444
   6928144.86446   5414940.97346  23280764.3314   23280767.5654
     -2254.2344      -1756.5464
  21643372.07143  16333968.95742  26519412.9094   26519418.6634
     -4710.3284      -3670.3864
   -124016.90843    -70306.49642  26800785.2764   26800792.7924
       380.0944        296.1774
 98  6 17 23 24  0.0080000  0  8G 6G 3G 1G21G17G23G26G 9
  31307210.58342  24330598.16942  26541615.9774   26541623.0944
     -5247.1094      -4088.6574
  -7236629.34846  -5447040.62046  24275441.5004   24275445.1914
       386.5314        301.1934
  -5452129.64045  -4118674.37145  25204613.6874   25204619.7814
      1933.2194       1506.4044
  -5763141.59346  -4394987.91746  23788998.2894   23789002.1334
      -299.1874       -233.1334
  13171564.67546  10238935.95046  23645105.5234   23645109.6024
     -2764.8124      -2154.3994
   6995869.33246   5467713.30546  23293651.9454   23293655.2274
     -2260.8914      -1761.7334
  21784803.01843  16444174.79742  26546325.9144   26546330.9064
     -4718.4694      -3676.7294
   -135298.61043    -79097.32241  26798637.6414   26798643.0784
       371.5784        289.5414
 98  6 17 23 24 30.0080000  0  8G 6G 3G 1G21G17G23G26G 9
  31464674.93942  24453297.24542  26571581.3984   26571591.7624
     -5250.8124      -4091.5424
  -7247974.09046  -5455880.66146  24273282.4844   24273286.1994
       369.3754        287.8254
  -5510034.10345  -4163794.55645  25193594.4304   25193600.2194
      1926.5784       1501.2304
  -5754043.40146  -4387898.35946  23790729.5084   23790733.3524
      -307.8444       -239.8784
  13254661.85646  10303686.98746  23660918.5864   23660922.7234
     -2775.4694      -2162.7034
   7063795.93146   5520643.13546  23306577.7894   23306581.2114
     -2268.0474      -1767.3094
  21926488.06043  16554578.68443  26573287.1484   26573291.0044
     -4727.7664      -3683.9734
   -146313.38743    -87680.14942  26796542.0394   26796547.4534
       362.2344        282.2614
 98  6 17 23 25  0.0080000  0  8G 6G 3G 1G21G17G23G26G 9
  31622204.95041  24576047.53341  26601557.2974   26601567.0864
     -5251.4374      -4092.0294
  -7258832.45946  -5464341.70346  24271216.3914   24271219.5664
       353.9694        275.8204
  -5567774.89245  -4208787.22245  25182606.7424   25182612.6604
      1922.3914       1497.9674
  -5744714.22846  -4380628.82646  23792504.7814   23792508.5784
      -314.4694       -245.0414
  13338039.52246  10368656.59046  23676784.7424   23676789.0554
     -2783.2974      -2168.8034
   7131910.95446   5573719.78946  23319539.3984   23319542.9734
     -2273.4064      -1771.4854
  22068417.37544  16665172.90143  26600296.8674   26600303.3714
     -4734.4064      -3689.1484
   -157074.86343                  26794493.2974
       354.7504
 98  6 17 23 25 30.0080000  0  8G 6G 3G 1G21G17G23G26G 9
  31779792.84042  24698842.90142  26631545.2504   26631554.8634
     -5254.1564      -4094.1484
  -7269172.03546  -5472398.49746  24269248.8364   24269252.8094
       335.3444        261.3074
  -5625342.30645  -4253644.78145  25171652.1334   25171658.3444
      1915.4384       1492.5494
  -5735142.42446  -4373170.24246  23794326.2814   23794330.3484
      -323.4694       -252.0544
  13421691.71846  10433840.10946  23692703.4064   23692707.6374
     -2793.4534      -2176.7174
   7200231.55046   5626956.62646  23332540.6094   23332544.1254
     -2281.1094      -1777.4884
  22210587.56244  16775954.81543  26627350.4534   26627355.5624
     -4743.4844      -3696.2224
   -167560.99143                  26792499.2584
       344.3754
 98  6 17 23 26  0.0080000  0  8G 6G 3G 1G21G17G23G26G 9
  31937439.74742  24821684.33443  26661544.8674   26661555.1844
     -5255.5944      -4095.2684
  -7278964.57646  -5480029.02946  24267385.1334   24267388.8364
       317.6564        247.5244
  -5682705.99945  -4298343.62345  25160735.8284   25160741.9804
      1908.8594       1487.4234
  -5725312.95346  -4365510.87546  23796196.6094   23796200.7934
      -331.7344       -258.4944
  13505639.09346  10499253.64246  23708678.0554   23708682.1914
     -2802.8914      -2184.0714
   7268770.00146   5680363.22446  23345582.8984   23345586.3324
     -2287.9694      -1782.8334
  22353013.10244  16886935.68943  26654452.6874   26654456.1914
     -4751.3124      -3702.3214
   -177748.16243                  26790559.6954
       334.8754
 98  6 17 23 26 30.0080000  0  8G 6G 3G 1G21G17G23G26G 9
  32095146.72743  24944572.45842  26691555.7664   26691563.4804
     -5257.9534      -4097.1064
  -7288211.93846  -5487234.73246  24265625.7194   24265629.5274
       299.0634        233.0364
  -5739846.63546  -4342868.62245  25149862.3364   25149868.6874
      1900.6094       1480.9944
  -5715224.06246  -4357649.35946  23798116.2734   23798120.2114
      -340.6564       -265.4464
  13589881.55246  10564897.10546  23724708.7344   23724713.1874
     -2813.1254      -2192.0454
   7337530.23146   5733942.64046  23358667.6724   23358671.2114
     -2295.7974      -1788.9334
  22495676.80245  16998102.18943  26681601.1954   26681606.8554
     -4759.2814      -3708.5314
   -187639.49143     -5110.88852  26788677.9064   26788684.4104
       324.7664        253.0644
 98  6 17 23 27  0.0080000  0  8G 6G 3G 1G21G17G23G26G 9
  32252904.56043  25067500.25343  26721576.6334   26721584.3944
     -5259.9064      -4098.6284
  -7296917.79946  -5494018.48846  24263968.6334   24263972.5944
       280.7194        218.7424
  -5796747.40945  -4387206.73445  25139033.9924   25139040.0624
      1892.0474       1474.3224
  -5704887.25846  -4349594.67546  23800083.4614   23800087.3634
      -349.0004       -271.9484
  13674416.64146  10630768.59146  23740795.1414   23740799.5124
     -2823.1874      -2199.8864
   7406509.82346   5787692.98546  23371793.9144   23371797.3944
     -2303.3754      -1794.8384
  22638557.90445  17109438.07643  26708790.1484   26708795.5164
     -4766.6724      -3714.2904
   -197241.26443    -12592.71842  26786849.8204   26786856.3944
       314.7034        245.2234
 98  6 17 23 27 30.0080000  0  8G 6G 3G 1G21G17G23G26G 9
  32410722.58443  25190474.94542  26751608.9614   26751617.1444
     -5261.7194      -4100.0414
  -7305083.23146  -5500381.13546  24262415.0474   24262418.5984
       263.2974        205.1664
  -5853384.48845  -4431339.36145  25128256.5234   25128262.5594
      1883.2344       1467.4554
  -5694307.69146  -4341350.81946  23802096.4454   23802100.0314
      -356.6564       -277.9144
  13759254.26746  10696875.81746  23756939.2584   23756943.5474
     -2833.1564      -2207.6544
   7475709.84046   5841615.08846  23384962.2034   23384965.8124
     -2310.5314      -1800.4144
  22781659.15045  17220945.51043  26736022.2194   26736027.0704
     -4774.0004      -3720.0004
   -206551.04543    -19846.98842  26785078.5164   26785086.3944
       305.4844        238.0404
 98  6 17 23 28  0.0080000  0  8G 6G 3G 1G21G17G23G26G 9
  32568601.76343  25313497.32642  26781651.8834   26781660.2424
     -5263.5004      -4101.4294
  -7312727.40346  -5506337.59046  24260959.9534   24260963.7154
       246.5944        192.1514
  -5909743.79646  -4475255.54645  25117531.5554   25117537.3794
      1874.3134       1460.5034
  -5683494.40246  -4332924.84746  23804154.3364   23804158.3094
      -364.0004       -283.6364
  13844398.28846  10763221.78646  23773141.6804   23773145.9804
     -2842.8444      -2215.2034
   7545140.88346   5895717.20846  23398174.3364   23398178.1094
     -2317.9844      -1806.2224
  22924993.99845  17332634.96042  26763297.5784   26763303.5434
     -4781.5314      -3725.8694
   -215577.72444    -26880.64442  26783360.9144   26783367.5234
       296.4694        231.0154
 98  6 17 23 28 30.0080000  0  8G 6G 3G 1G21G17G23G26G 9
  32726532.05943  25436559.49743  26811705.8524   26811715.1954
     -5265.0944      -4102.6704
  -7319877.14746  -5511908.77446  24259599.5234   24259603.6024
       230.0944        179.2944
  -5965843.87345  -4518969.72745  25106855.7584   25106861.8754
      1865.6884       1453.7824
  -5672470.26746  -4324334.57446  23806252.1254   23806255.8404
      -370.8914       -289.0064
  13929826.78346  10829789.43846  23789397.9924   23789402.2344
     -2852.4064      -2222.6544
   7614783.47146   5949984.17546  23411426.9374   23411430.6174
     -2324.8914      -1811.6034
  23068553.08744  17444499.17043  26790616.2734   26790619.1334
     -4789.0784      -3731.7494
   -224340.51544    -33708.67842  26781693.4144   26781699.9184
       287.6254        224.1234
 98  6 17 23 29  0.0080000  0  8G 6G 3G 1G21G17G23G26G 9
  32884496.08542  25559647.97242  26841765.9304   26841775.0164
     -5265.6724      -4103.1214
  -7326544.94346  -5517104.42546  24258331.0234   24258335.2664
       214.6564        167.2654
  -6021694.53446  -4562489.56645  25096228.0864   25096234.1564
      1857.9384       1447.7444
  -5661245.91246  -4315588.28846  23808387.9454   23808391.6484
      -377.1724       -293.9004
  14015538.90346  10896578.08146  23805708.5554   23805712.9964
     -2861.5624      -2229.7894
   7684631.07846   6004410.89546  23424718.3834   23424721.7934
     -2331.4534      -1816.7174
  23212338.43744  17556539.63242  26817977.1484   26817982.9844
     -4796.4064      -3737.4594
   -232832.81243    -40325.99442  26780076.9774   26780083.4804
       278.7344        217.1964
 98  6 17 23 29 30.0080000  0  8G 6G 3G 1G21G17G23G26G 9
  33042500.69343  25682767.97642  26871833.4924   26871841.1024
     -5267.3124      -4104.3994
  -7332725.80946  -5521920.64946  24257154.8834   24257158.6914
       197.8754        154.1884
  -6077298.28946  -4605817.01045  25085646.1954   25085652.1374
      1849.7504       1441.3644
  -5649813.89646  -4306680.19046  23810563.6564   23810567.1024
      -384.3444       -299.4894
  14101548.94046  10963598.87746  23822075.6334   23822080.1334
     -2871.7974      -2237.7644
   7754693.03646   6059004.63446  23438050.8754   23438054.4964
     -2338.7664      -1822.4154
  23356360.62843  17668764.71742  26845383.7974   26845390.5234
     -4804.4224      -3743.7054
   -241042.66443    -46723.11942  26778514.6874   26778522.3674
       269.0634        209.6594
 98  6 17 23 30  0.0080000  0  8G 6G 3G 1G21G17G23G26G 9
  33200546.80443  25805920.40342  26901909.1564   26901919.6604
     -5269.2664      -4105.9214
  -7338395.95746  -5526338.91446  24256075.6724   24256079.5864
       179.9534        140.2234
  -6132673.82746  -4648966.61245  25075108.9374   25075114.8324
      1841.9064       1435.2524
  -5638175.14546  -4297611.00246  23812778.1484   23812781.8404
      -391.7974       -305.2964
  14187857.73646  11030852.46546  23838499.7344   23838504.0124
     -2882.2344      -2245.8974
   7824961.76546   6113759.49646  23451422.4694   23451426.1024
     -2345.7814      -1827.8814
  23500613.19943  17781169.20642  26872833.7974   26872839.9494
     -4812.4064      -3749.9274
   -248957.25344    -52890.23642  26777008.1954   26777012.9064
       258.3754        201.3314
 98  6 17 23 30 30.0080000  0  8G 6G 3G 1G21G17G23G26G 9
  33358661.19242  25929126.02442  26931997.6804   26932009.8594
     -5271.6874      -4107.8084
  -7343513.19446  -5530326.33046  24255101.7194   24255105.4694
       161.2034        125.6134
  -6187803.99346  -4691925.05045  25064618.0704   25064623.8244
      1833.3914       1428.6164
  -5626295.79946  -4288354.34046  23815038.7894   23815042.6564
      -400.1724       -311.8224
  14274493.74446  11098361.02946  23854986.2504   23854990.7504
     -2893.5314      -2254.7004
   7895443.58946   6168680.41146  23464834.9694   23464838.6604
     -2353.1874      -1833.6534
  23645105.73243  17893760.75642  26900329.7034   26900335.4924
     -4820.2974      -3756.0754
   -256537.42143    -58796.79742  26775565.2664   26775570.0594
       246.8754        192.3704
 98  6 17 23 31  0.0080000  0  8G 6G 3G 1G21G17G23G26G 9
  33516837.59242  26052379.88441  26962097.4144   26962108.1414
     -5273.5624      -4109.2694
  -7348077.02846  -5533882.53746  24254233.4614   24254237.2694
       142.9224        111.3684
  -6242688.75746  -4734692.23145  25054173.3914   25054179.1214
      1825.5004       1422.4684
  -5614175.07346  -4278909.57546  23817345.3524   23817349.0434
      -407.9374       -317.8734
  14361455.50646  11166123.42446  23871534.2734   23871538.4104
     -2903.9844      -2262.8454
   7966145.94046   6223773.15746  23478289.0864   23478292.8484
     -2360.3754      -1839.2534
  23789822.61143  18006527.05442  26927868.9454   26927873.4104
     -4827.5474      -3761.7254
   -263789.57544    -64447.72442  26774185.6874   26774190.7624
       236.6564        184.4074
 98  6 17 23 31 30.0080000  0  8G 6G 3G 1G21G17G23G26G 9
  33675071.40041  26175678.50641  26992208.0164   26992215.6374
     -5275.0784      -4110.4504
  -7352095.31746  -5537013.63546  24253468.3524   24253472.0084
       125.1724         97.5374
  -6297343.17346  -4777279.93745  25043772.9144   25043778.6334
      1818.3444       1416.8914
  -5601824.14046  -4269285.43446  23819695.3594   23819699.2974
      -415.3284       -323.6324
  14448725.67846  11234126.13446  23888141.4374   23888145.9964
     -2913.6254      -2270.3574
   8037054.20346   6279026.36246  23491782.3984   23491786.1374
     -2366.6254      -1844.1234
  23934747.52943  18119455.55442  26955447.0784   26955452.9734
     -4834.1094      -3766.8384
   -270745.45343    -69867.79542  26772862.0314   26772866.7424
       227.1564        177.0054
 98  6 17 23 32  0.0080000  0  8G 6G 3G 1G21G17G23G26G 9
  33833349.74041  26299011.96141  27022328.7894   27022343.7694
     -5276.4374      -4111.5104
  -7355588.40946  -5539735.48746  24252803.8054   24252807.6954
       108.3594         84.4364
  -6351778.32846  -4819696.77545  25033414.1174   25033420.1524
      1810.9384       1411.1204
  -5589238.86846  -4259478.68746  23822090.4064   23822094.0514
      -423.2974       -329.8424
  14536285.19146  11302354.32146  23904803.4144   23904807.6444
     -2923.2974      -2277.8944
   8108156.22146   6334430.53946  23505312.6024   23505316.5514
     -2373.1254      -1849.1884
  24079884.99043  18232549.59342  26983065.9304   26983072.9654
     -4841.2194      -3772.3784
   -277404.97343    -75056.90942  26771594.7344   26771601.2854
       217.2664        169.2984
 98  6 17 23 32 30.0080000  0  8G 6G 3G 1G21G17G23G26G 9
  33991676.32341  26422382.69341  27052457.7194   27052469.6764
     -5278.2034      -4112.8864
  -7358585.07046  -5542070.52646  24252233.6094   24252237.6524
        91.9224         71.6274
  -6405975.73946  -4861928.36145  25023100.7584   25023106.6294
      1802.6884       1404.6924
  -5576411.24246  -4249483.08646  23824531.3674   23824535.0944
      -431.3124       -336.0884
  14624145.97946  11370817.25246  23921522.8204   23921527.4024
     -2933.6254      -2285.9424
   8179466.63246   6389997.10546  23518882.6954   23518886.3404
     -2380.4224      -1854.8744
  24225237.11343  18345810.96042  27010725.3054   27010730.6954
     -4848.5164      -3778.0644
   -283761.00643    -80009.58642  26770385.7344   26770392.1564
       206.9844        161.2874
 98  6 17 23 33  0.0080000  0  8G 6G 3G 1G21G17G23G26G 9
  34150062.04242  26545799.83941  27082597.5784   27082607.2504
     -5280.1414      -4114.3954
  -7361080.80146  -5544015.22346  24251758.6564   24251762.7114
        75.0944         58.5154
  -6459918.89746  -4903961.82845  25012835.2194   25012840.8204
      1794.2504       1398.1174
  -5563339.84346  -4239297.54046  23827018.8364   23827022.7974
      -439.4694       -342.4434
  14712327.25446  11439529.91846  23938303.0784   23938307.3324
     -2944.5004      -2294.4164
   8250997.77346   6445735.66646  23532494.3444   23532498.0824
     -2387.4694      -1860.3654
  24370817.36543  18459250.05442  27038428.8754   27038434.8164
     -4856.1414      -3784.0064
   -289797.31043    -84713.11742  26769235.9774   26769241.8364
       196.0474        152.7644
 98  6 17 23 33 30.0080000  0  8G 6G 3G 1G21G17G23G26G 9
  34308494.90642  26669253.68241  27112746.4224   27112756.9024
     -5281.8754      -4115.7474
  -7363082.29646  -5545574.81046  24251377.7034   24251382.0274
        58.3444         45.4634
  -6513614.52546  -4945802.41245  25002617.3524   25002623.1294
      1785.4224       1391.2384
  -5550028.53646  -4228925.05246  23829552.0474   23829555.8554
      -447.8594       -348.9814
  14800827.34546  11508491.01346  23955144.2344   23955148.9104
     -2955.3124      -2302.8414
   8322716.45346   6501620.36646  23546142.2584   23546145.7974
     -2393.7194      -1865.2354
  24516607.78044  18572852.91842  27066171.7194   27066178.5164
     -4863.1564      -3789.4724
   -295499.21543    -89156.02642  26768150.4304   26768156.4884
       184.1254        143.4744
 98  6 17 23 34  0.0080000  0  7G 3G 1G21G17G23G26G 9
  -7364590.55946  -5546750.06046  24251090.8524   24251094.7544
        41.6254         32.4354
  -6567049.97346  -4987440.25245  24992448.7114   24992454.5704
      1776.3754       1384.1884
  -5536484.17846  -4218370.97546  23832129.4374   23832132.9774
      -455.5164       -354.9474
  14889634.26846  11577691.20646  23972043.5314   23972048.0664
     -2965.7664      -2310.9864
   8394611.47846   6557642.46946  23559823.1174   23559826.7624
     -2399.7504      -1869.9354
  24662586.51844  18686602.55542  27093950.7664   27093956.0624
     -4869.0164      -3794.0384
   -300858.88143    -93332.33041  26767131.0004   26767137.8714
       172.6564        134.5374
 98  6 17 23 34 30.0080000  0  7G 3G 1G21G17G23G26G 9
  -7365568.11346  -5547511.77146  24250904.5234   24250908.5664
        23.9064         18.6284
  -6620192.77846  -5028850.07445  24982336.0944   24982342.0474
      1767.0634       1376.9324
  -5522699.44346  -4207629.58446  23834752.3754   23834755.8794
      -463.0164       -360.7914
  14978770.92446  11647148.32846  23989005.7664   23989010.0434
     -2976.0784      -2319.0224
   8466704.03446   6613818.50046  23573542.0394   23573545.7424
     -2405.8444      -1874.6834
  24808747.93144  18800494.49342  27121764.5234   27121768.6024
     -4874.5784      -3798.3734
   -305859.20443    -97228.53442  26766179.6874   26766185.5594
       161.2034        125.6134
 98  6 17 23 35  0.0080000  0  7G 3G 1G21G17G23G26G 9
  -7366013.18946  -5547858.56246  24250820.1484   24250824.1334
         4.8914          3.8114
  -6673072.66946  -5070055.02045  24972273.2584   24972279.0124
      1757.5474       1369.5174
  -5508695.36846  -4196717.27246  23837417.0084   23837420.4414
      -471.3444       -367.2814
  15068196.55746  11716830.62746  24006022.9774   24006027.7814
     -2986.3284      -2327.0094
   8538964.34246   6670125.24146  23587292.6024   23587295.9774
     -2412.3754      -1879.7734
  24955061.64944  18914505.12842  27149606.8284   27149610.6954
     -4880.4844      -3802.9754
   -310527.61843   -100866.21042  26765290.9374   26765297.6414
       149.3284        116.3604
 98  6 17 23 35 30.0080000  0  7G 3G 1G21G17G23G26G 9
  -7365876.60546  -5547752.11746  24250846.0704   24250850.1484
       -13.9534        -10.8734
  -6725658.05446  -5111030.47845  24962266.7344   24962272.1954
      1748.2504       1362.2734
  -5494438.06246  -4185607.64646  23840130.3284   23840134.2304
      -479.0004       -373.2474
  15157931.28246  11786753.77646  24023098.8364   24023103.3244
     -2995.8444      -2334.4244
   8611435.76446   6726596.49646  23601083.5784   23601087.3404
     -2419.0784      -1884.9964
  25101558.08544  19028658.12243  27177484.4374   27177490.2384
     -4885.9694      -3807.2484
   -314840.48043   -104226.75942  26764470.4924   26764472.8594
       138.3754        107.8254
 98  6 17 23 36  0.0080000  0  8G31G 3G 1G21G17G23G26G 9
     -9838.63151                  27059619.1724
      1639.1884
  -7365165.46946  -5547197.96946  24250981.3444   24250985.3634
       -33.3754        -26.0064
  -6777965.77246  -5151789.59545  24952312.6414   24952318.6294
      1738.9384       1355.0164
  -5479949.88146  -4174318.12146  23842887.1874   23842891.2194
      -486.9534       -379.4444
  15247955.52146  11856902.52846  24040229.7344   24040234.2234
     -3006.0784      -2342.3994
   8684122.12346   6783235.22946  23614915.4774   23614919.2384
     -2426.6254      -1890.8774
  25248233.78444  19142950.81842  27205395.8674   27205402.2664
     -4892.3594      -3812.2284
   -318827.21743   -107333.21042  26763711.8524   26763717.9924
       127.3134         99.2054
 98  6 17 23 36 30.0080000  0  8G31G 3G 1G21G17G23G26G 9
    -58844.04942                  27050295.1644
      1628.2194
  -7363864.91046  -5546184.52646  24251228.8524   24251232.2154
       -52.9374        -41.2504
  -6829977.80146  -5192318.29045  24942414.6254   24942420.4494
      1728.9384       1347.2244
  -5465212.50946  -4162834.41446  23845691.6874   23845695.5784
      -495.1254       -385.8124
  15338309.09246  11927307.89846  24057423.8364   24057428.2544
     -3016.9844      -2350.8974
   8757044.21146   6840057.64446  23628791.9064   23628795.4104
     -2434.3594      -1896.9034
  25395114.49943  19257403.29642  27233346.0004   27233353.4104
     -4899.2194      -3817.5734
   -322467.86843   -110169.95241  26763018.8054   26763023.0704
       115.8594         90.2804
 98  6 17 23 37  0.0080000  0  8G31G 3G 1G21G17G23G26G 9
   -107552.75243                  27041025.2894
      1618.9384
  -7362007.48046  -5544737.16746  24251582.2734   24251586.0354
       -70.8754        -55.2274
  -6881717.89846  -5232635.09845  24932568.7424   24932574.4844
      1720.2194       1340.4304
  -5450260.15146  -4151183.19646  23848536.9064   23848540.6564
      -501.7504       -390.9744
  15428957.11346  11997942.72046  24074673.5474   24074678.0594
     -3026.2664      -2358.1294
   8830159.94346   6897030.94546  23642705.7034   23642709.0554
     -2440.0004      -1901.2994
  25542164.27543  19371987.48642  27261329.5864   27261335.1524
     -4904.2034      -3821.4574
   -325799.46743   -112765.94642  26762384.7504   26762390.6914
       106.3284         82.8534
 98  6 17 23 37 30.0080000  0  9G31G 3G 1G21G17G 8G23G26G 9
   -155968.01843    -26381.05152  27031812.0474   27031818.1294
      1608.1564       1253.1094
  -7359611.96846  -5542870.51146  24252037.9774   24252041.7384
       -89.2664        -69.5584
  -6933177.00946  -5272732.96045  24922776.2894   24922781.7504
      1709.7664       1332.2854
  -5435096.73846  -4139367.50746  23851422.4774   23851426.2034
      -509.7034       -397.1714
  15519893.13046  12068801.95246  24091978.1334   24091982.7854
     -3036.6414      -2366.2134
     -6161.05552                  27293104.9224
      1231.9534
   8903448.73146   6954139.10346  23656651.8914   23656654.9964
     -2446.3594      -1906.2544
  25689372.52943  19486695.12842  27289341.5624   27289345.6524
     -4910.2504      -3826.1694
   -328841.20343   -115136.00542  26761806.0084   26761811.0704
        95.7664         74.6234
 98  6 17 23 38  0.0080000  0  9G31G 3G 1G21G17G 8G23G26G 9
   -204045.09143    -63843.63742  27022664.3054   27022671.1374
      1598.2194       1245.3654
  -7356658.26746  -5540568.91146  24252600.1094   24252604.0354
      -106.3444        -82.8654
  -6984302.01746  -5312570.48245  24913047.6094   24913052.8244
      1699.6724       1324.4204
  -5419675.07846  -4127350.60346  23854357.1094   23854360.7424
      -517.2194       -403.0284
  15611159.51046  12139918.59846  24109345.2584   24109349.6294
     -3046.5944      -2373.9694
    -43097.74343                  27286077.0164
      1231.6094
   8976936.70846   7011402.46246  23670636.1484   23670639.5474
     -2451.5004      -1910.2604
  25836778.23742  19601556.62942  27317391.4774   27317400.1414
     -4915.4694      -3830.2354
   -331540.08743   -117238.97442  26761292.5554   26761299.4264
        85.2034         66.3924
 98  6 17 23 38 30.0080000  0  9G31G 3G 1G21G17G 8G23G26G 9
   -251825.32443   -101074.82643  27013571.3914   27013576.7234
      1588.3754       1237.6954
  -7353190.91746  -5537867.06446  24253259.8984   24253263.7194
      -123.8754        -96.5264
  -7035117.51846  -5352166.84645  24903377.3284   24903382.9654
      1689.2504       1316.2994
  -5404023.47246  -4115154.51346  23857335.3754   23857339.1024
      -525.1254       -409.1884
  15702720.18446  12211264.57246  24126768.8444   24126773.1684
     -3056.0624      -2381.3474
    -80018.33642                  27279050.5864
      1230.8134
   9050575.07346   7068783.01346  23684648.9454   23684652.4494
     -2456.6414      -1914.2654
  25984336.71342  19716537.26941  27345471.5234   27345478.1564
     -4920.6724      -3834.2904
   -333913.70543   -119088.39642  26760840.2664   26760845.2814
        74.1094         57.7484
 98  6 17 23 39  0.0080000  0  9G31G 3G 1G21G17G 8G23G26G 9
   -299332.41944   -138093.30642  27004532.1954   27004536.0514
      1578.2664       1229.8174
  -7349202.75746  -5534759.39046  24254018.7734   24254022.3244
      -142.4534       -111.0024
  -7085641.87646  -5391536.33945  24893762.8124   24893768.3554
      1678.6094       1308.0074
  -5388142.15246  -4102779.42946  23860357.5234   23860361.1444
      -534.1254       -416.2014
  15794543.77746  12282815.41646  24144242.2894   24144246.8364
     -3066.1094      -2389.1764
   -116936.78542    -18218.92751  27272024.4304   27272031.2154
      1230.0314        958.4664
   9124353.29346   7126272.54446  23698688.4374   23698691.6844
     -2462.4534      -1918.7954
  26132041.63642  19831631.86941  27373579.7734   27373585.2584
     -4926.8754      -3839.1234
   -335961.97343   -120684.37342  26760450.4694   26760456.4224
        61.8914         48.2264
 98  6 17 23 39 30.0080000  0  9G31G 3G 1G21G17G 8G23G26G 9
   -346541.15043   -174879.22942  26995547.2584   26995552.0044
      1569.1254       1222.6954
  -7344666.63246  -5531224.72246  24254882.0474   24254885.6094
      -159.7194       -124.4564
  -7135861.12546  -5430668.08445  24884206.4774   24884212.2304
      1669.7194       1301.0804
  -5371999.59946  -4090200.78346  23863429.2504   23863433.2114
      -541.6564       -422.0704
  15886674.46746  12354605.54446  24161774.0554   24161778.5434
     -3075.8284      -2396.7494
   -153841.20442    -46975.46941  27265001.1024   27265008.0554
      1230.3754        958.7344
   9198306.49946   7183898.42446  23712761.6644   23712764.8164
     -2467.5474      -1922.7644
  26279931.27642  19946870.55742  27401720.8124   27401725.6054
     -4932.1564      -3843.2394
   -337634.54443   -121987.58642  26760132.7424   26760137.9224
        49.6884         38.7184
 98  6 17 23 40  0.0080000  0  9G31G 3G 1G21G17G 8G23G26G 9
   -393457.26242   -211437.12142  26986619.2734   26986624.8984
      1559.0004       1214.8054
  -7339582.53146  -5527263.06746  24255849.5394   24255853.0904
      -179.0314       -139.5054
  -7185792.04446  -5469575.16645  24874704.7974   24874710.4344
      1659.3754       1293.0194
  -5355617.12146  -4077435.18346  23866546.6094   23866550.3714
      -550.0624       -428.6204
  15979131.59546  12426650.04346  24179367.8284   24179372.4924
     -3087.6414      -2405.9544
   -190722.49042    -75713.75541  27257984.9774   27257997.4844
      1228.6884        957.4194
   9272434.01046   7241660.13346  23726867.4374   23726870.5084
     -2473.9534      -1927.7564
  26428002.79143  20062250.93741  27429898.3674   27429906.4224
     -4938.9374      -3848.5234
   -338909.91543   -122981.30042  26759889.7344   26759895.4884
        35.7194         27.8334
 98  6 17 23 40 30.0080000  0  9G31G 3G 1G21G17G 8G23G26G 9
   -440096.51542   -247779.28441  26977744.9224   26977752.0274
      1549.9534       1207.7564
  -7333927.96746  -5522856.90046  24256925.5784   24256929.2584
      -198.3914       -154.5904
  -7235442.04746  -5508263.36146  24865256.5554   24865261.9104
      1650.2344       1285.8974
  -5339013.74246  -4064497.45046  23869706.0234   23869709.8444
      -557.0784       -434.0874
  16071912.56046  12498946.88846  24197023.9144   24197028.5434
     -3098.1094      -2414.1114
   -227583.89042   -104436.65741  27250968.6644   27250978.1954
      1228.4064        957.2004
   9346734.24146   7299556.42346  23741006.3054   23741009.3404
     -2479.7664      -1932.2854
  26576251.37843  20177769.15141  27458109.2664   27458115.9924
     -4944.7194      -3853.0284
   -339796.42344   -123672.03642  26759720.4694   26759724.8984
        23.1884         18.0684
 98  6 17 23 41  0.0080000  0  9G31G 3G 1G21G17G 8G23G26G 9
   -486470.28442   -283914.71641  26968920.1414   26968930.0474
      1541.1564       1200.9014
  -7327699.38646  -5518003.45146  24258110.7344   24258114.0744
      -217.0624       -169.1404
  -7284820.28746  -5546739.79945  24855860.2344   24855865.4264
      1641.1884       1278.8474
  -5322212.52546  -4051405.57246  23872903.2584   23872906.8444
      -563.3754       -438.9944
  16165009.64246  12571490.03746  24214739.7344   24214744.0824
     -3108.8754      -2422.5004
   -264437.79342   -133153.84241  27243953.9844   27243962.0164
      1228.1414        956.9934
   9421201.71346   7357583.02546  23755176.9224   23755180.0984
     -2485.0784      -1936.4254
  26724667.99043  20293418.48242  27486352.6724   27486355.1914
     -4950.0624      -3857.1924
   -340317.53243   -124078.00442  26759621.1094   26759627.0164
        11.2814          8.7914
 98  6 17 23 41 30.0080000  0  9G31G 3G 1G21G17G 8G23G26G 9
   -532564.22842   -319831.87941  26960147.4614   26960154.0594
      1531.4534       1193.3404
  -7320908.32246  -5512711.69746  24259403.3054   24259406.6564
      -235.9064       -183.8234
  -7333907.50946  -5584989.46646  24846519.2894   24846524.7504
      1630.8594       1270.8004
  -5305215.12046  -4038160.80946  23876137.6724   23876141.3404
      -569.9374       -444.1074
  16258441.77246  12644294.28546  24232519.1254   24232523.6954
     -3120.1094      -2431.2544
   -301265.80642   -161850.70041  27236947.6174   27236950.2424
      1226.7664        955.9214
   9495840.16046   7415742.86746  23769380.4304   23769383.7344
     -2491.0314      -1941.0634
  26873254.51043  20409200.10442  27514627.4694   27514631.8164
     -4955.8914      -3861.7334
   -340477.92444   -124202.84042  26759591.2734   26759596.5124
        -0.7814         -0.6094
 98  6 17 23 42  0.0080000  0  9G31G 3G 1G21G17G 8G23G26G 9
   -578373.74942   -355527.54441  26951429.8524   26951437.2504
      1522.1414       1186.0844
  -7313553.79246  -5506980.87746  24260802.3674   24260805.8834
      -254.7814       -198.5314
  -7382676.69546  -5622991.30846  24837238.4224   24837243.1564
      1620.1414       1262.4474
  -5288025.58346  -4024766.33846  23879408.9144   23879412.4654
      -576.4064       -449.1484
  16352195.23346  12717348.91046  24250359.9614   24250364.1684
     -3130.2814      -2439.1804
   -338062.72742   -190523.37041  27229945.0784   27229953.3444
      1226.1094        955.4104
   9570652.92146   7474038.53746  23783616.6174   23783620.2384
     -2496.8914      -1945.6294
  27022007.66644  20525111.63342  27542934.4454   27542940.4454
     -4961.3284      -3865.9704
   -340292.15244   -124057.98142  26759626.1414   26759630.5704
       -11.9374         -9.3024
 98  6 17 23 42 30.0090000  0  9G31G 3G 1G21G17G 8G23G26G 9
   -623887.37642   -390992.72741  26942769.8724   26942770.3524
      1512.1094       1178.2674
  -7305631.43546  -5500807.59246  24262309.8104   24262313.3954
      -273.0314       -212.7524
  -7431130.49446  -5660747.40846  24828017.9744   24828023.2004
      1610.2194       1254.7164
  -5270629.55146  -4011210.95646  23882719.1614   23882722.9354
      -583.1254       -454.3834
  16446248.86546  12790637.43846  24268257.7084   24268262.0794
     -3139.6724      -2446.4984
   -374836.19042   -219177.73442  27222946.4894   27222952.9704
      1225.5164        954.9474
   9645659.36946   7532485.12446  23797889.7314   23797893.2474
     -2503.2034      -1950.5484
  27170933.50243  20641157.73042  27571273.8494   27571279.4974
     -4966.4694      -3869.9764
   -339768.11144   -123649.56042  26759725.8254   26759731.4974
       -22.8444        -17.8004
 98  6 17 23 43  0.0090000  0  9G31G 3G 1G21G17G 8G23G26G 9
   -669081.36143   -426208.67942  26934169.9114   26934176.7314
      1501.1254       1169.7084
  -7297163.15246  -5494208.91446  24263921.4584   24263925.2554
      -291.1414       -226.8634
  -7479277.34446  -5698264.32946  24818856.2004   24818861.8134
      1600.0314       1246.7784
  -5253022.50546  -3997491.14846  23886069.5994   23886073.4774
      -590.3914       -460.0454
  16540599.99746  12864157.78146  24286212.4584   24286216.8064
     -3150.0004      -2454.5454
   -411580.00443   -247809.13142  27215954.2864   27215959.6184
      1224.4384        954.1074
   9720862.60346   7591085.05946  23812200.5284   23812203.6344
     -2510.0624      -1955.8934
  27320014.77143  20757324.86142  27599643.2394   27599649.5674
     -4971.8914      -3874.2004
   -338899.07544   -122972.28542  26759890.8024   26759897.0134
       -34.8444        -27.1514
 98  6 17 23 43 30.0090000  0  8G31G 3G 1G21G17G 8G23G 9
   -713950.94843   -461172.04042  26925631.0054   26925635.3064
      1489.9064       1160.9664
  -7288156.36446  -5487190.62046  24265635.4504   24265638.7204
      -309.7344       -241.3514
  -7527130.04046  -5735552.04146  24809749.7314   24809755.2274
      1589.8914       1238.8764
  -5235207.52946  -3983609.32146  23889459.5754   23889463.5484
      -597.5004       -465.5844
  16635248.29346  12937909.68646  24304222.9814   24304227.2824
     -3160.1724      -2462.4724
   -448304.70642   -276425.48142  27208965.6774   27208972.4854
      1223.5944        953.4504
   9796261.04446   7649837.09646  23826548.2474   23826551.7634
     -2516.8284      -1961.1654
   -337676.58844   -122019.59942  26760123.8494   26760128.8994
       -47.1564        -36.7454
 98  6 17 23 44  0.0090000  0  8G31G 3G 1G21G17G 8G23G 9
   -758475.99043   -495866.80942  26917158.6454   26917163.2634
      1478.9384       1152.4194
  -7278573.68846  -5479723.60146  24267459.0134   24267462.5524
      -328.6564       -256.0964
  -7574684.74346  -5772607.55246  24800700.2634   24800705.3494
      1581.0314       1231.9724
  -5217171.31646  -3969555.11146  23892891.8804   23892895.3604
      -604.5164       -471.0514
  16730209.03646  13011905.05246  24322293.5674   24322297.9744
     -3170.0784      -2470.1914
   -485004.05243   -305022.13342  27201982.9664   27201989.2704
      1223.4064        953.3044
   9871866.35346   7708750.33046  23840935.4584   23840938.8684
     -2523.0624      -1966.0234
   -336067.07544   -120765.33242  26760429.6304   26760434.9624
       -59.6724        -46.4984
 98  6 17 23 44 30.0090000  0  8G31G 3G 1G21G17G 8G23G 9
   -802664.23143   -530299.18743  26908749.8104   26908756.2434
      1467.2814       1143.3364
  -7268420.98346  -5471812.39046  24269390.7164   24269394.1964
      -347.8594       -271.0594
  -7621972.15946  -5809454.79046  24791701.7634   24791706.7784
      1571.5944       1224.6194
  -5198921.15946  -3955334.18346  23896364.7784   23896368.8564
      -611.9064       -476.8104
  16825472.50446  13086136.30346  24340421.4194   24340425.5794
     -3180.6564      -2478.4334
   -521682.22043   -333602.32342  27195001.7084   27195007.4744
      1222.0474        952.2444
   9947654.13146   7767805.74546  23855357.2554   23855360.5954
     -2529.1254      -1970.7474
   -334075.77744   -119213.61543  26760809.1854   26760814.1304
       -72.8124        -56.7374
 98  6 17 23 45  0.0090000  0  8G31G 3G 1G21G17G 8G23G 9
   -846508.18143   -564463.25243  26900406.8494   26900412.0284
      1455.9694       1134.5214
  -7257690.58646  -5463451.03646  24271432.7554   24271436.5284
      -367.3124       -286.2184
  -7668962.57246  -5846070.60046  24782759.5524   24782764.6964
      1561.2194       1216.5344
  -5180449.30446  -3940940.50846  23899879.9664   23899883.9034
      -619.3914       -482.6424
  16921062.22546  13160621.77746  24358611.6224   24358616.5324
     -3191.6414      -2486.9934
   -558317.51243   -362149.04942  27188030.7784   27188038.9274
      1220.4384        950.9904
  10023609.73946   7826991.94346  23869811.3024   23869814.7004
     -2534.2504      -1974.7404
   -331687.52544   -117352.47442  26761262.5134   26761266.4744
       -86.1254        -67.1104
 98  6 17 23 45 30.0090000  0  9G31G 3G 1G21G17G 8G23G29G 9
   -890016.18943   -598365.54042  26892128.0604   26892133.5914
      1445.0164       1125.9864
  -7246372.24146  -5454631.54246  24273586.3724   24273590.3804
      -386.8444       -301.4374
  -7715631.38046  -5882435.81346  24773878.8334   24773884.3764
      1550.3754       1208.0844
  -5161750.60546  -3926370.06446  23903437.6224   23903441.2904
      -626.8594       -488.4624
  17016978.95646  13235362.07246  24376863.8414   24376868.2704
     -3202.4694      -2495.4304
   -594895.75143   -390651.33842  27181069.9114   27181076.6024
      1218.4534        949.4444
  10099711.13846   7886291.73946  23884292.6694   23884296.2674
     -2538.8124      -1978.2954
    -63223.74243                  27152766.0674
      2179.2504
   -328904.10044   -115183.50943  26761793.0364   26761798.0754
       -99.0784        -77.2044
 98  6 17 23 46  0.0090000  0  9G31G 3G 1G21G17G 8G23G29G 9
   -933192.41343   -632009.36242  26883910.1454   26883914.1424
      1433.7344       1117.1964
  -7234470.23446  -5445357.23146  24275851.5524   24275855.4664
      -406.2034       -316.5224
  -7761973.99546  -5918546.83346  24765060.1064   24765065.8374
      1539.3284       1199.4764
  -5142820.41546  -3911619.24146  23907040.2474   23907043.8564
      -634.8284       -494.6714
  17113219.21346  13310354.46146  24395177.9974   24395182.4854
     -3213.2034      -2503.7954
   -631404.86543   -419099.78642  27174121.8954   27174127.4504
      1215.6884        947.2894
  10175959.40246   7945705.97846  23898802.3174   23898805.8104
     -2544.0004      -1982.3384
   -128548.50543                  27140335.0204
      2176.1254
   -325728.52844   -112708.92343  26762397.2864   26762401.5174
      -112.0784        -87.3344
 98  6 17 23 46 30.0090000  0  9G31G 3G 1G21G17G 8G23G29G 9
   -976047.73541   -665403.00442  26875754.9664   26875761.5994
      1423.4064       1109.1484
  -7222015.80846  -5435652.47546  24278221.4584   24278225.0564
      -424.0004       -330.3904
  -7807987.37046  -5954401.32246  24756304.0524   24756309.3604
      1528.2504       1190.8444
  -5123674.08346  -3896700.00146  23910683.4664   23910687.1344
      -641.5784       -499.9314
  17209760.56546  13385581.46646  24413549.2704   24413553.6304
     -3222.8594      -2511.3194
   -667840.16043   -447490.65842  27167188.6924   27167195.1734
      1213.3594        945.4754
  10252343.58446   8005226.13346  23913337.6924   23913341.4774
     -2548.3754      -1985.7474
   -193802.50043    -22026.50453  27127917.1774   27127925.7824
      2174.1564       1694.1484
   -322185.34144   -109947.90443  26763071.3954   26763075.8844
      -124.1724        -96.7574
 98  6 17 23 47  0.0090000  0  9G31G 3G 1G21G17G 8G23G29G 9
  -1018576.84941   -698542.50042  26867661.6384   26867668.8374
      1412.5004       1100.6494
  -7209003.93346  -5425513.34846  24280697.5524   24280700.9274
      -442.8914       -345.1104
  -7853649.85446  -5989982.37046  24747614.2634   24747619.3604
      1516.6254       1181.7864
  -5104307.05146  -3881608.77346  23914368.9354   23914372.2394
      -648.8284       -505.5804
  17306613.48046  13461051.25746  24431979.5834   24431984.0834
     -3233.2194      -2519.3914
   -704190.68743   -475815.56242  27160271.1144   27160276.5174
      1210.6884        943.3934
  10328885.38146   8064869.09846  23927903.2244   23927906.6814
     -2553.7814      -1989.9594
   -258977.46443    -72811.80743  27115514.8564   27115522.7704
      2171.3914       1691.9934
   -318258.64044   -106888.05442  26763818.3024   26763824.3724
      -136.8444       -106.6314
 98  6 17 23 47 30.0090000  0  9G31G 3G 1G21G17G 8G23G29G 9
  -1060790.49342   -731436.19642  26859630.0364   26859636.1064
      1401.3134       1091.9324
  -7195434.93946  -5414940.09346  24283279.5284   24283283.1144
      -462.1724       -360.1344
  -7898982.01746  -6025306.03146  24738987.8414   24738993.0094
      1504.9844       1172.7154
  -5084743.34446  -3866364.29746  23918091.6534   23918095.4034
      -655.8444       -511.0474
  17403758.61746  13536748.74946  24450465.5204   24450469.5994
     -3243.5164      -2527.4154
   -740471.86242   -504086.41142  27153366.3254   27153371.9624
      1207.6254        941.0064
  10405589.90746   8124638.86546  23942499.5134   23942503.0754
     -2560.4534      -1995.1584
   -324074.49143   -123536.38042  27103127.5994   27103134.2314
      2167.8594       1689.2414
   -313965.04544   -103542.34043  26764635.3564   26764640.6304
      -149.9374       -116.8344
 98  6 17 23 48  0.0090000  0  9G31G 3G 1G21G17G 8G23G29G 9
  -1102672.23842   -764071.23542  26851660.1224   26851663.7784
      1391.0474       1083.9334
  -7181301.46346  -5403926.98746  24285968.8334   24285972.4424
      -479.9064       -373.9534
  -7943972.63846  -6060363.54946  24730426.3884   24730431.4274
      1494.4844       1164.5334
  -5064979.90346  -3850964.18746  23921852.6694   23921856.1734
      -661.4534       -515.4184
  17501198.00346  13612675.51946  24469008.2784   24469012.2984
     -3252.2034      -2534.1844
   -776669.93543   -532292.44542  27146478.6224   27146485.2674
      1205.8284        939.6064
  10482488.50046   8184559.85146  23957132.6384   23957136.2244
     -2565.7664      -1999.2984
   -389073.19343   -174184.29643  27090757.5364   27090766.4354
      2165.7504       1687.5974
   -309284.97943    -99895.41843  26765525.5914   26765532.0364
      -161.8284       -126.1004
 98  6 17 23 48 30.0090000  0  9G31G 3G 1G21G17G 8G23G29G 9
  -1144232.64942   -796455.89142  26843749.8024   26843752.8724
      1380.0004       1075.3254
  -7166617.06746  -5392484.58546  24288763.4354   24288767.1734
      -498.6564       -388.5634
  -7988627.17346  -6095159.19146  24721929.1454   24721933.7984
      1483.1254       1155.6824
  -5045035.79546  -3835423.30146  23925647.9114   23925651.6494
      -667.7664       -520.3374
  17598916.44946  13688819.74746  24487602.8494   24487607.1854
     -3261.7814      -2541.6484
   -812802.85443   -560447.79042  27139602.2944   27139606.5954
      1203.6254        937.8904
  10559553.70846   8244610.66746  23971797.8724   23971801.3524
     -2571.5004      -2003.7664
   -454000.79143   -224776.85442  27078402.3104   27078410.5754
      2163.2194       1685.6254
   -304225.85743    -95953.18342  26766487.8104   26766495.4894
      -175.0164       -136.3764
 98  6 17 23 49  0.0090000  0  9G31G 3G 1G21G17G 8G23G29G 9
  -1185452.83042   -828575.40742  26835908.4814   26835913.6494
      1368.5474       1066.4004
  -7151359.70546  -5380595.72946  24291666.7864   24291670.0914
      -518.0004       -403.6364
  -8032950.44146  -6129696.70546  24713494.5754   24713499.4034
      1472.2974       1147.2444
  -5024896.38746  -3819730.23446  23929480.3334   23929484.0364
      -674.2974       -525.4264
  17696925.73946  13765190.60246  24506253.8884   24506258.3644
     -3271.5784      -2549.2824
   -848872.66343   -588553.97042  27132739.4354   27132745.0134
      1201.6884        936.3804
  10636792.07646   8304796.41946  23986495.7784   23986499.5524
     -2576.9694      -2008.0284
   -518849.02442   -275307.59141  27066061.4504   27066072.8924
      2160.5634       1683.5554
   -298771.42943    -91702.89142  26767525.9274   26767532.7594
      -188.0164       -146.5064
 98  6 17 23 49 30.0090000  0  9G31G 3G 1G21G17G 8G23G29G 9
  -1226329.34943   -860427.20342  26828127.5914   26828133.7784
      1356.7504       1057.2084
  -7135530.85246  -5368261.54346  24294678.9664   24294682.4114
      -536.9224       -418.3814
  -8076949.57346  -6163981.64646  24705121.6304   24705126.4464
      1461.0944       1138.5154
  -5004557.27946  -3803881.56146  23933350.6694   23933354.1144
      -681.5314       -531.0634
  17795228.40846  13841790.06646  24524960.1144   24524964.5794
     -3281.7814      -2557.2324
   -884885.16242   -616615.42041  27125885.0914   27125889.6024
      1199.3914        934.5904
  10714191.18546   8365107.42046  24001224.3494   24001228.0284
     -2582.6564      -2012.4594
   -583611.89842   -325771.77341  27053737.7704   27053747.4194
      2157.1724       1680.9134
   -292924.26443    -87146.57242  26768638.9354   26768644.0564
      -201.7974       -157.2444
 98  6 17 23 50  0.0090000  0  9G31G 3G 1G21G17G 8G23G29G 9
  -1266834.32443   -891989.43042  26820420.2944   26820423.5874
      1343.5314       1046.9074
  -7119124.46146  -5355477.33946  24297801.1224   24297804.6144
      -557.0624       -434.0754
  -8120600.15646  -6197994.98546  24696815.4504   24696819.9854
      1448.9224       1129.0304
  -4983978.71946  -3787846.29346  23937266.5444   23937270.0604
      -690.5314       -538.0764
  17893856.20646  13918642.86846  24543728.1224   24543732.6104
     -3293.5164      -2566.3764
   -920822.44842   -644618.30942  27119046.0914   27119053.1144
      1196.3594        932.2284
  10791762.22646   8425552.39246  24015985.5604   24015989.0634
     -2588.7814      -2017.2324
   -648265.17642   -376150.53441  27041434.8334   27041441.3254
      2153.0164       1677.6754
   -286643.88743    -82252.68742  26769834.4194   26769840.7354
      -216.9694       -169.0674
 98  6 17 23 50 30.0090000  0  9G31G 3G 1G21G17G 8G23G29G 9
  -1306974.53243   -923267.47442  26812781.5364   26812788.2274
      1331.8284       1037.7884
  -7102134.22346  -5342238.18846  24301034.4354   24301037.8804
      -576.2344       -449.0144
  -8163911.46846  -6231743.97346  24688573.6224   24688578.0634
      1437.8284       1120.3864
  -4963148.77746  -3771615.14646  23941230.4664   23941233.8764
      -698.7194       -544.4564
  17992813.53946  13995752.45046  24562559.7704   24562563.8954
     -3304.3444      -2574.8134
   -956696.77443   -672572.17542  27112219.3724   27112226.9464
      1194.5784        930.8404
  10869492.76546   8486121.64746  24030777.2704   24030780.7394
     -2594.0474      -2021.3354
   -712814.71143   -426448.54342  27029150.9034   27029157.7744
      2149.5314       1674.9594
   -279932.91543    -77023.27943  26771111.0054   26771116.7124
      -231.1414       -180.1104
 98  6 17 23 51  0.0090000  0  9G31G 3G 1G21G17G 8G23G29G 9
  -1346755.48743   -954265.55142  26805212.4974   26805216.7394
      1320.3914       1028.8764
  -7084559.06046  -5328543.25046  24304378.6854   24304382.1304
      -595.4534       -463.9894
  -8206874.08446  -6265221.24146  24680397.6534   24680402.0484
      1426.2034       1111.3274
  -4942065.37346  -3755186.50346  23945242.5604   23945246.3104
      -706.7034       -550.6784
  18092111.38746  14073127.37946  24581455.2474   24581459.4894
     -3315.5624      -2583.5554
   -992499.60342   -700470.29642  27105405.9664   27105411.8604
      1192.3134        929.0754
  10947394.22146   8546824.08246  24045601.2864   24045604.8844
     -2599.2814      -2025.4144
   -777244.34043   -476653.10242  27016888.8804   27016901.1424
      2145.6884       1671.9644
   -272786.01943    -71454.18043  26772470.5674   26772476.4034
      -245.4064       -191.2264
 98  6 17 23 51 30.0090000  0  9G31G 3G 1G21G17G 8G23G29G 9
  -1386194.51743   -984997.20742  26797707.2704   26797713.3764
      1308.5474       1019.6474
  -7066411.06546  -5314401.95446  24307832.1304   24307835.5874
      -614.6094       -478.9164
  -8249477.01046  -6298418.23246  24672290.3254   24672295.3294
      1413.6724       1101.5634
  -4920746.05346  -3738574.02246  23949299.2784   23949302.8884
      -714.8444       -557.0214
  18191746.69346  14150765.25346  24600414.8174   24600419.2004
     -3327.0474      -2592.5044
  -1028227.69142   -728310.23141  27098607.3024   27098613.4894
      1189.2974        926.7254
  11025448.23146   8607645.38846  24060454.6454   24060458.3494
     -2604.6414      -2029.5904
   -841554.22443   -526764.33143  27004651.9424   27004659.7984
      2141.3284       1668.5674
   -265196.60543    -65540.24942  26773915.8954   26773920.7944
      -260.8124       -203.2314
 98  6 17 23 52  0.0090000  0  9G31G 3G 1G21G17G 8G23G29G 9
  -1425273.23744  -1015448.09042  26790269.9034   26790276.6304
      1296.9844       1010.6374
  -7047680.80046  -5299806.94846  24311396.2314   24311399.7354
      -633.8754       -493.9294
  -8291702.06646  -6331320.78746  24664255.2314   24664259.8954
      1401.6724       1092.2124
  -4899186.72746  -3721774.52346  23953401.9034   23953405.5244
      -721.9534       -562.5614
  18291723.92246  14228669.56546  24619440.0914   24619444.7084
     -3337.7034      -2600.8084
  -1063861.88643   -756076.94042  27091827.3644   27091833.5524
      1186.5944        924.6194
  11103660.60046   8668590.09146  24075338.0994   24075341.5324
     -2609.2504      -2033.1824
   -905731.24743   -576771.96642  26992438.4744   26992446.9034
      2137.4694       1665.5604
   -257151.59743    -59271.34643  26775445.8414   26775451.5014
      -275.0784       -214.3474
 98  6 17 23 52 30.0090000  0  9G31G 3G 1G21G17G 8G23G29G 9
  -1464008.72143  -1045631.49642  26782899.3804   26782903.1654
      1285.7974       1001.9204
  -7028376.17946  -5284764.38346  24315069.8254   24315073.4934
      -652.5784       -508.5024
  -8333572.03946  -6363946.64846  24656287.5204   24656292.3724
      1390.2504       1083.3124
  -4877431.22646  -3704822.17246  23957541.9354   23957545.2044
      -727.6724       -567.0174
  18392008.87446  14306813.65946  24638523.8174   24638528.1304
     -3347.6094      -2608.5274
  -1099413.55443   -783779.32942  27085061.1454   27085066.7124
      1183.9384        922.5494
  11182009.06846   8729640.84246  24090247.2704   24090250.8454
     -2613.4534      -2036.4574
   -969797.05243   -626693.08542  26980247.3644   26980253.4704
      2134.1564       1662.9794
   -248684.96243    -52673.86443  26777057.5444   26777062.6304
      -288.9224       -225.1344
 98  6 17 23 53  0.0090000  0  9G31G 3G 1G21G17G 8G23G29G 9
  -1502384.31843  -1075534.45342  26775596.1774   26775601.7084
      1273.3914        992.2524
  -7008491.01946  -5269269.45046  24318853.7944   24318857.3924
      -672.2504       -523.8314
  -8375093.84446  -6396301.21146  24648386.1924   24648390.8804
      1378.8284       1074.4124
  -4855501.44646  -3687734.01046  23961714.9424   23961718.0714
      -733.5164       -571.5714
  18492610.08146  14385204.17946  24657667.8174   24657672.3644
     -3358.1414      -2616.7334
  -1134866.33743   -811404.76542  27078314.2864   27078323.0444
      1180.4534        919.8344
  11260495.84246   8790799.36746  24105182.8174   24105186.1924
     -2618.1254      -2040.0974
  -1033755.12644   -676530.17043  26968076.1774   26968082.7744
      2130.6254       1660.2274
   -239790.63643    -45743.10643  26778749.4114   26778753.7944
      -303.1094       -236.1894
 98  6 17 23 53 30.0090000  0  9G31G 3G 1G21G17G 8G23G29G 9
  -1540376.79343  -1105138.96643  26768367.1304   26768372.1224
      1259.2814        981.2584
  -6988014.07246  -5253313.39146  24322750.3954   24322753.8294
      -692.9374       -539.9514
  -8416272.79346  -6428388.61146  24640549.9424   24640554.9464
      1366.3444       1064.6834
  -4833385.37246  -3670500.69346  23965923.5524   23965927.0444
      -741.0314       -577.4274
  18593522.61146  14463837.29946  24676870.5994   24676875.0994
     -3369.3284      -2625.4504
  -1170210.49343   -838945.47842  27071588.7704   27071595.9234
      1175.7194        916.1444
  11339129.92646   8852072.67646  24120146.4194   24120149.9114
     -2624.4844      -2045.0534
  -1097607.95644   -726285.22843  26955925.3414   26955935.2474
      2126.2194       1656.7944
   -230470.65544    -38480.70643  26780522.3954   26780527.1184
      -318.0784       -247.8534
 98  6 17 23 54  0.0090000  0  9G31G 3G 1G21G17G 8G23G29G 9
  -1577971.39443  -1134433.37243  26761212.0994   26761217.4074
      1246.6254        971.3964
  -6966938.44146  -5236890.82546  24326761.0054   24326764.4854
      -712.5004       -555.1954
  -8457103.09046  -6460204.33746  24632780.0204   24632785.2004
      1355.3754       1056.1364
  -4811068.91546  -3653111.22746  23970170.0204   23970173.4664
      -747.1094       -582.1634
  18694739.47246  14542707.56246  24696131.2244   24696135.4664
     -3378.8124      -2632.8414
  -1205441.21943   -866397.80342  27064884.8804   27064891.6884
      1172.5314        913.6614
  11417941.37946   8913484.19646  24135143.9114   24135147.5564
     -2629.9844      -2049.3384
  -1161357.68044   -775959.97643  26943793.7244   26943802.3764
      2123.4694       1654.6514
   -220741.96644    -30899.79243  26782374.3884   26782379.5674
      -330.9374       -257.8734
 98  6 17 23 54 30.0090000  0  9G31G 3G 1G21G17G 8G23G29G 9
  -1615170.58644  -1163419.71943  26754134.5754   26754139.2274
      1233.2194        960.9504
  -6945259.79246  -5219998.37246  24330886.5524   24330890.1494
      -732.7664       -570.9864
  -8497590.21246  -6491752.65546  24625075.7244   24625080.5284
      1343.5634       1046.9324
  -4788549.81646  -3635563.85746  23974455.3024   23974459.1344
      -754.3914       -587.8374
  18796255.10346  14621810.61946  24715449.5994   24715453.7594
     -3389.1414      -2640.8894
  -1240554.92443   -893758.98142  27058202.6454   27058209.9854
      1168.3134        910.3734
  11496932.72046   8975035.88346  24150175.2244   24150178.1774
     -2636.2194      -2054.1964
  -1225013.63443   -825561.66044  26931680.0834   26931688.8994
      2120.1724       1652.0824
   -210602.43444    -22998.76943  26784304.1694   26784309.8524
      -345.2034       -268.9894
 98  6 17 23 55  0.0090000  0  9G31G 3G 1G21G17G 8G23G29G 9
  -1651977.50744  -1192100.37544  26747130.3024   26747134.0174
      1220.0474        950.6864
  -6922986.27046  -5202642.37446  24335124.7864   24335128.3134
      -752.5164       -586.3764
  -8537721.50746  -6523023.70946  24617438.7554   24617443.6184
      1331.1724       1037.2774
  -4765811.58146  -3617845.73246  23978782.3414   23978785.6574
      -762.2974       -593.9984
  18898071.22846  14701147.82646  24734824.4814   24734828.5954
     -3398.9844      -2648.5594
  -1275553.69544   -921030.59842  27051542.0834   27051547.0524
      1164.4844        907.3904
  11576102.94546   9036726.96746  24165241.0604   24165244.0714
     -2642.2814      -2058.9204
  -1288575.20343   -875089.82243  26919584.2244   26919591.1884
      2116.6414       1649.3304
   -200046.38244    -14773.20843  26786311.9584   26786317.2554
      -359.0314       -279.7654
 98  6 17 23 55 30.0090000  0  9G31G 3G 1G21G17G 8G23G29G 9
  -1688388.29343  -1220472.36943  26740200.1534   26740203.3174
      1207.0944        940.5934
  -6900118.10846  -5184823.08646  24339476.7244   24339480.6494
      -772.1874       -601.7054
  -8577465.28146  -6553992.79446  24609875.7004   24609880.6574
      1318.2034       1027.1714
  -4742823.04546  -3599932.51546  23983156.6454   23983160.0444
      -770.4534       -600.3534
  19000186.42246  14780718.08945  24754256.2554   24754260.4624
     -3408.9534      -2656.3274
  -1310428.67043   -948205.76142  27044905.8104   27044911.4464
      1160.2814        904.1154
  11655457.92346   9098562.01946  24180341.9194   24180344.7784
     -2648.1094      -2063.4624
  -1352017.97044   -924525.34442  26907511.6454   26907517.1424
      2112.6724       1646.2384
   -189068.61944     -6218.99643  26788401.3644   26788407.2244
      -372.9694       -290.6254
 98  6 17 23 56  0.0090000  0  9G31G 3G 1G21G17G 8G23G29G 9
  -1724408.06043  -1248539.67243  26733346.2084   26733352.0794
      1194.1884        930.5364
  -6876656.57446  -5166541.31846  24343941.3724   24343944.6884
      -792.0164       -617.1554
  -8616823.42746  -6584661.38446  24602386.1854   24602390.9894
      1305.7034       1017.4314
  -4719595.97046  -3581833.52846  23987576.9744   23987580.3954
      -778.1414       -606.3434
  19102610.64846  14860529.14646  24773746.7394   24773751.2044
     -3419.5784      -2664.6064
  -1345174.72843   -975280.41443  27038293.1614   27038299.7704
      1155.8444        900.6574
  11734973.05346   9160521.85446  24195472.8494   24195476.0834
     -2652.7974      -2067.1144
  -1415334.25643   -973862.36343  26895461.4354   26895467.5404
      2108.1564       1642.7194
   -177669.39344      2663.62743  26790569.7944   26790574.2824
      -387.3594       -301.8384
 98  6 17 23 56 30.0090000  0  9G31G 3G 1G21G17G 8G23G29G 9
  -1760038.75743  -1276303.76543  26726566.0674   26726570.2634
      1181.5004        920.6494
  -6852595.40446  -5147792.35446  24348519.7314   24348523.3414
      -811.8124       -632.5814
  -8655803.69446  -6615035.52846  24594968.5204   24594973.3604
      1293.0944       1007.6064
  -4696134.68946  -3563551.98846  23992041.3954   23992044.6884
      -785.7974       -612.3094
  19205362.97546  14940595.86746  24793299.9584   24793304.1064
     -3430.4374      -2673.0684
  -1379779.46443  -1002244.96742  27031708.5524   27031715.1264
      1151.4224        897.2124
  11814621.71646   9222585.74546  24210629.3954   24210632.7594
     -2656.8914      -2070.3044
  -1478507.60344  -1023087.96042  26883440.8644   26883448.9314
      2103.5944       1639.1644
   -165819.57944     11897.35643  26792825.4194   26792829.9194
      -402.3124       -313.4904
 98  6 17 23 57  0.0090000  0  9G31G 3G 1G21G17G 8G23G29G 9
  -1795288.11943  -1303770.70842  26719857.8104   26719862.0994
      1168.7504        910.7144
  -6827942.44546  -5128582.25146  24353211.1304   24353214.2474
      -831.6094       -648.0074
  -8694399.77746  -6645110.30546  24587623.8564   24587628.1454
      1280.2504        997.5974
  -4672448.20346  -3545094.96946  23996548.8414   23996552.4504
      -792.9694       -617.8984
  19308446.73946  15020920.85045  24812916.0444   24812920.7904
     -3441.5474      -2681.7254
  -1414252.04943  -1029106.53942  27025148.0914   27025153.2944
      1146.9064        893.6934
  11894395.55646   9284747.18146  24225810.0364   24225813.2354
     -2661.1094      -2073.5924
  -1541538.12544  -1072202.34043  26871445.0204   26871453.8374
      2098.5784       1635.2564
   -153530.89144     21473.00542  26795164.1454   26795168.6104
      -416.7034       -324.7044
 98  6 17 23 57 30.0090000  0  9G31G 3G 1G21G17G 8G23G29G 9
  -1830158.94943  -1330942.73242  26713222.1304   26713228.0244
      1156.1254        900.8774
  -6802692.34246  -5108906.84846  24358016.1924   24358019.5444
      -851.6094       -663.5924
  -8732617.18346  -6674890.01246  24580351.2084   24580355.2044
      1267.8284        987.9184
  -4648556.04146  -3526477.68046  24001094.9114   24001098.3924
      -799.5474       -623.0244
  19411864.74546  15101506.27645  24832596.0524   24832600.6574
     -3452.8444      -2690.5284
  -1448582.88943  -1055857.73842  27018614.8644   27018620.6064
      1142.0474        889.9074
  11974292.94546   9347004.88446  24241014.0054   24241017.2394
     -2665.1414      -2076.7334
  -1604421.42943  -1121202.00643  26859479.4744   26859488.5484
      2093.9224       1631.6274
   -140813.50444     31382.74042  26797584.2554   26797589.7164
      -431.0474       -335.8814
 98  6 17 23 58  0.0090000  0  9G31G 3G 1G21G17G 8G23G29G 9
  -1864636.50243  -1357808.29443  26706661.7944   26706668.4744
      1143.3754        890.9424
  -6776833.36946  -5088756.98946  24362937.0204   24362940.7354
      -871.4844       -679.0794
  -8770453.26146  -6704372.57346  24573151.3174   24573155.7124
      1255.3914        978.2264
  -4624459.45046  -3507701.09946  24005680.6614   24005684.2594
      -806.0004       -628.0524
  19515633.66046  15182365.15545  24852342.7394   24852347.3214
     -3464.0944      -2699.2944
  -1482766.04643  -1082493.81842  27012110.3174   27012115.4974
      1137.7194        886.5344
  12054327.92146   9409369.80446  24256244.0134   24256247.2944
     -2669.8284      -2080.3864
  -1667154.96843  -1170084.94143  26847541.9744   26847547.8104
      2089.1254       1627.8904
   -127645.22544     41643.82242  26800089.4034   26800094.6424
      -446.0784       -347.5934
 98  6 17 23 58 30.0090000  0  9G31G 3G 1G21G17G 8G23G29G 9
  -1898744.51443  -1384385.86543  26700170.9424   26700174.9504
      1130.9384        881.2504
  -6750384.14046  -5068147.20146  24367970.0994   24367973.7784
      -891.2344       -694.4684
  -8807919.28446  -6733566.79446  24566021.4114   24566025.8414
      1242.7814        968.4014
  -4600177.83946  -3488780.35146  24010301.5284   24010305.4074
      -812.2194       -632.8984
  19619724.75446  15263475.07045  24872150.7944   24872155.4584
     -3474.7194      -2707.5734
  -1516829.38743  -1109036.51942  27005627.3724   27005634.0994
      1133.7664        883.4544
  12134505.72646   9471846.01046  24271501.4274   24271504.6854
     -2674.8914      -2084.3304
  -1729757.32344  -1218865.71143  26835628.6854   26835634.8134
      2084.9224       1624.6144
   -114033.45044     52250.46442  26802679.7314   26802685.6854
      -460.5624       -358.8804
 98  6 17 23 59  0.0090000  0  9G31G 3G 1G21G17G 8G23G29G 9
  -1932448.90444  -1410648.95343  26693757.3644   26693761.1144
      1117.0004        870.3904
  -6723319.23246  -5047057.66946  24373120.2784   24373123.8064
      -912.1724       -710.7834
  -8844978.87146  -6762444.30146  24558969.2314   24558973.7084
      1228.8284        957.5284
  -4575685.34846  -3469695.28146  24014961.9114   24014965.5094
      -819.5784       -638.6324
  19724162.08846  15344854.78245  24892024.3024   24892028.7904
     -3486.7034      -2716.9124
  -1550746.58543  -1135465.31242  26999173.2164   26999179.7204
      1128.2974        879.1924
  12214865.99446   9534464.39646  24286793.2314   24286796.8294
     -2681.4844      -2089.4684
  -1792201.08044  -1267522.88143  26823745.6614   26823752.3524
      2079.0314       1620.0244
    -99971.12944     63208.17942  26805355.7004   26805361.6424
      -476.0314       -370.9334
 98  6 17 23 59 30.0090000  0  9G31G 3G 1G21G17G 8G23G29G 9
  -1965753.99244  -1436600.88944  26687419.4664   26687423.7904
      1103.7194        860.0414
  -6695652.94346  -5025499.51946  24378384.9744   24378388.6304
      -931.7974       -726.0754
  -8881647.81346  -6791017.41846  24551991.3174   24551995.6184
      1216.1724        947.6664
  -4550993.74046  -3450455.05146  24019660.7554   24019664.3524
      -826.1724       -643.7704
  19828930.38446  15426492.38545  24911960.9194   24911965.7824
     -3497.3124      -2725.1794
  -1584522.18743  -1161783.85142  26992746.1064   26992751.7314
      1123.9384        875.7954
  12295393.23446   9597212.89646  24302117.3414   24302120.5404
     -2686.5164      -2093.3894
  -1854497.58844  -1316065.29343  26811890.4034   26811896.3454
      2074.5474       1616.5304
    -85463.87644     74512.61343  26808116.0834   26808120.3374
      -490.8594       -382.4884
 98  6 18  0  0  0.0090000  0  9G31G 3G 1G21G17G 8G23G29G 9
  -1998661.27244  -1462242.85743  26681157.5524   26681161.6064
      1090.1094        849.4364
  -6667397.67746  -5003482.42846  24383761.8564   24383765.5244
      -951.8594       -741.7094
  -8917936.09846  -6819293.91146  24545085.8254   24545090.1854
      1203.0944        937.4764
  -4526105.87346  -3431061.89446  24024396.4814   24024399.8684
      -832.9694       -649.0674
  19934013.30346  15508375.15545  24931957.4974   24931962.6064
     -3508.0004      -2733.5064
  -1618175.03743  -1188006.67242  26986342.9274   26986347.7084
      1119.5634        872.3864
  12376069.80046   9660077.74946  24317469.4274   24317472.9774
     -2691.7974      -2097.5044
  -1916658.45144  -1364502.03142  26800061.3494   26800066.4354
      2069.5634       1612.6464
    -70504.51044     86169.35243  26810962.3884   26810966.5484
      -506.2664       -394.4934
 98  6 18  0  0 30.0100000  0  9G31G 3G 1G21G17G 8G23G29G 9
  -2031163.45044  -1487569.16244  26674972.7444   26674976.2834
      1076.6094        838.9164
  -6638541.58246  -4980997.16546  24389252.9714   24389256.5804
      -971.6564       -757.1354
  -8953836.00546  -6847267.78346  24538254.0414   24538258.6114
      1190.1564        927.3944
  -4501014.17846  -3411509.90246  24029171.4554   24029174.8774
      -839.5784       -654.2174
  20039410.11646  15590502.51445  24952013.9164   24952018.8264
     -3518.0944      -2741.3724
  -1651693.24742  -1214124.63742  26979962.4394   26979966.0964
      1115.0634        868.8804
  12456886.86746   9723052.08946  24332848.4324   24332852.3224
     -2695.5944      -2100.4634
  -1978685.49644  -1412834.51943  26788258.0024   26788265.1664
      2065.5634       1609.5294
    -55097.31144     98175.02242  26813894.7284   26813899.3224
      -520.6564       -405.7064
 98  6 18  0  1  0.0100000  0  9G31G 3G 1G21G17G 8G23G29G 9
  -2063245.79344  -1512568.29143  26668867.8934   26668872.3814
      1062.2664        827.7394
  -6609089.27946  -4958047.31546  24394857.4084   24394861.0184
      -991.7194       -772.7684
  -8989329.25346  -6874924.75446  24531499.8934   24531504.4394
      1176.1414        916.4734
  -4475719.64246  -3391799.85646  24033984.8614   24033988.4354
      -846.6094       -659.6964
  20145108.87646  15672865.16445  24972128.0024   24972132.7604
     -3528.2814      -2749.3104
  -1685067.17042  -1240130.07242  26973612.9784   26973619.6234
      1109.9064        864.8624
  12537821.26246   9786117.84946  24348249.7604   24348253.6274
     -2699.9224      -2103.8354
  -2040580.44944  -1461064.04143  26776480.0184   26776484.6234
      2061.0004       1605.9744
    -39246.55044    110526.33443  26816911.1034   26816916.9754
      -536.1254       -417.7604
 98  6 18  0  1 30.0100000  0  9G31G 3G 1G21G17G 8G23G29G 9
  -2094897.05244  -1537231.57543  26662844.0644   26662847.2174
      1047.9844        816.6114
  -6579044.66446  -4934635.92246  24400574.9394   24400578.7254
     -1011.0624       -787.8414
  -9024409.11646  -6902259.62346  24524824.4164   24524828.9394
      1162.7034        906.0024
  -4450220.22746  -3371930.16246  24038837.2604   24038840.6354
      -853.1724       -664.8094
  20251099.24346  15755455.04145  24992297.2524   24992301.8574
     -3537.4694      -2756.4694
  -1718286.41243  -1266015.07342  26967290.9864   26967298.8184
      1104.8914        860.9544
  12618875.49846   9849276.99146  24363673.6894   24363677.4164
     -2703.4224      -2106.5624
  -2102347.53544  -1509193.91543  26764725.0254   26764732.5764
      2056.9694       1602.8334
    -22929.38544    123241.08442  26820016.0884   26820021.2564
      -551.5164       -429.7524
 98  6 18  0  2  0.0100000  0  9G31G 3G 1G21G17G 8G23G29G 9
  -2126136.96143  -1561574.25043  26656898.3774   26656904.5064
      1034.0004        805.7144
  -6548432.08646  -4910781.97646  24406399.9244   24406403.5804
     -1030.3754       -802.8904
  -9059095.10246  -6929287.57446  24518223.6974   24518228.0574
      1149.2034        895.4834
  -4424533.81646  -3351914.75746  24043725.2364   24043728.6934
      -859.9374       -670.0814
  20357352.95346  15838250.10745  25012516.8144   25012521.6194
     -3546.6254      -2763.6044
  -1751366.11043  -1291791.27142  26960996.2054   26961000.0724
      1099.7034        856.9124
  12700026.67246   9912511.66246  24379116.1194   24379119.6114
     -2707.2664      -2109.5584
  -2164006.56744  -1557239.66943  26752991.7834   26752998.4864
      2052.9844       1599.7284
     -6160.26244    136308.01243  26823206.8224   26823211.0764
      -566.9534       -441.7824
 98  6 18  0  2 30.0100000  0  9G31G 3G 1G21G17G 8G23G29G 9
  -2156949.22243  -1585583.73242  26651035.8854   26651039.9284
      1019.8594        794.6964
  -6517236.24046  -4886473.53046  24412336.6194   24412340.3574
     -1049.7194       -817.9634
  -9093372.00846  -6955996.77046  24511701.0724   24511705.5964
      1135.5634        884.8544
  -4398638.11746  -3331736.27046  24048652.7754   24048656.4204
      -866.7344       -675.3774
  20463883.79746  15921261.12645  25032788.7834   25032793.7284
     -3555.9064      -2770.8364
  -1784278.73243  -1317437.38442  26954733.9004   26954738.0724
      1094.0784        852.5284
  12781298.10146   9975840.04146  24394581.7914   24394585.5414
     -2711.3594      -2112.7484
  -2225534.11644  -1605182.89644  26741283.2444   26741290.2684
      2048.4224       1596.1734
     11074.31944    149737.59343  26826486.4244   26826491.1464
      -582.4224       -453.8354
 98  6 18  0  3  0.0100000  0  9G31G 3G 1G21G17G 8G23G29G 9
  -2187310.73643  -1609242.00043  26645258.5494   26645262.3694
      1005.3594        783.3974
  -6485429.72946  -4861689.26746  24418389.3384   24418392.9354
     -1069.6874       -833.5234
  -9127216.59646  -6982369.11646  24505260.3934   24505265.2324
      1122.0004        874.2864
  -4372511.94346  -3311378.22146  24053624.4784   24053628.0534
      -874.0624       -681.0884
  20570729.49646  16004517.47445  25053120.6504   25053125.2444
     -3566.2034      -2778.8604
  -1816992.27043  -1342928.34342  26948507.7214   26948511.6234
      1087.8134        847.6464
  12862733.02646  10039295.80546  24410078.3224   24410082.0374
     -2716.5784      -2116.8144
  -2286888.96244  -1652991.60143  26729607.7834   26729613.6434
      2042.8914       1591.8634
     28808.26544    163556.32143  26829861.1354   26829867.3224
      -598.8124       -466.6074
 98  6 18  0  3 30.0100000  0  9G31G 3G 1G21G17G 8G23G29G 9
  -2217257.14144  -1632576.80543  26639559.3934   26639564.3504
       991.6884        772.7444
  -6453031.32346  -4836443.76046  24424554.4784   24424558.2644
     -1089.8754       -849.2534
  -9160681.83646  -7008445.84446  24498892.2364   24498896.8184
      1109.5004        864.5454
  -4346174.55546  -3290855.56046  24058636.3774   24058640.0104
      -881.4064       -686.8104
  20677885.16846  16088015.36245  25073512.1434   25073516.8774
     -3577.1254      -2787.3704
  -1849532.70644  -1368284.33743  26942315.0884   26942320.9944
      1082.1094        843.2024
  12944309.10346  10102861.57546  24425601.5724   24425605.0184
     -2721.2974      -2120.4914
  -2348086.95044  -1700678.08543  26717961.7604   26717969.3464
      2037.3594       1587.5534
     47019.53545    177746.99744  26833326.9164   26833331.9554
      -614.7664       -479.0384
 98  6 18  0  4  0.0100000  0  9G31G 3G 1G21G17G 8G23G29G 9
  -2246793.78444  -1655592.26243  26633938.8614   26633944.6974
       977.6884        761.8344
  -6420010.75146  -4810713.45046  24430838.1894   24430842.0104
     -1111.2194       -865.8854
  -9193765.66246  -7034225.37346  24492596.5884   24492601.0064
      1096.3914        854.3304
  -4319605.50246  -3270152.37846  24063692.2284   24063695.8034
      -889.4844       -693.1054
  20785385.66346  16171781.95645  25093968.6824   25093973.6504
     -3589.4064      -2796.9404
  -1881903.03644  -1393507.84543  26936156.3854   26936161.0374
      1076.1414        838.5514
  13026040.58646  10166548.44246  24441154.9554   24441158.3654
     -2727.3124      -2125.1794
  -2409112.79744  -1748230.43743  26706349.4634   26706354.6544
      2031.1564       1582.7194
     65713.24644    192313.56743  26836883.4394   26836888.3264
      -631.1724       -491.8224
 98  6 18  0  4 30.0100000  0  9G31G 3G 1G21G17G 8G23G29G 9
  -2275910.23044  -1678280.34643  26628398.2604   26628404.0254
       963.9384        751.1204
  -6386353.71446  -4784487.18846  24437242.9944   24437246.4044
     -1132.1414       -882.1874
  -9226458.11646  -7059699.93746  24486375.4244   24486379.7014
      1083.4694        844.2614
  -4292810.88446  -3249273.42246  24068790.7834   24068794.1704
      -896.3594       -698.4624
  20893261.08046  16255840.69345  25114496.5644   25114501.4284
     -3602.0164      -2806.7654
  -1914095.80245  -1418592.98343  26930029.9004   26930034.9864
      1070.4844        834.1444
  13107947.16646  10230371.74946  24456741.2134   24456744.7644
     -2732.7344      -2129.4034
  -2469954.30844  -1795639.12743  26694770.9864   26694776.8464
      2025.4064       1578.2394
     84894.68044    207260.23743  26840533.7284   26840539.6004
      -647.0944       -504.2294
 98  6 18  0  5  0.0100000  0  9G31G 3G 1G21G17G 8G23G29G 9
  -2304635.69444  -1700663.77243  26622932.0964   26622937.4394
       951.1564        741.1614
  -6352093.74646  -4757791.11446  24443762.0104   24443765.5844
     -1151.4844       -897.2614
  -9258785.04946  -7084889.68646  24480223.7914   24480228.2214
      1071.7974        835.1664
  -4265831.31746  -3228250.36146  24073925.0414   24073928.5924
      -902.1094       -702.9424
  21001495.75946  16340179.37745  25135093.1974   25135098.3534
     -3613.2664      -2815.5324
  -1946140.40645  -1443562.69343  26923931.3224   26923934.4044
      1066.0004        830.6494
  13189996.83946  10294306.55846  24472354.4634   24472358.1544
     -2736.9844      -2132.7154
  -2530641.66845  -1842927.69743  26683222.2604   26683227.9674
      2020.5004       1574.4164
    104536.45344    222565.52843  26844270.7684   26844275.1974
      -662.2344       -516.0274
 98  6 18  0  5 30.0100000  0  9G31G 3G 1G21G17G 8G23G29G 9
  -2332947.56543  -1722724.88044  26617544.0964   26617549.8614
       936.9064        730.0574
  -6317233.97046  -4730627.65746  24450395.9004   24450399.2644
     -1171.9374       -913.1984
  -9290723.06046  -7109776.35746  24474146.2604   24474150.6544
      1057.8284        824.2824
  -4238658.53246  -3207076.73646  24079095.6974   24079099.2254
      -908.7034       -708.0804
  21110078.71245  16424789.44745  25155755.5644   25155759.8774
     -3624.8444      -2824.5544
  -1978023.78244                  26917864.6664
      1060.1724
  13272196.76546  10358358.45246  24487996.6894   24488000.2874
     -2742.3914      -2136.9284
  -2591153.19045  -1890079.25343  26671707.3534   26671712.4514
      2014.3134       1569.5944
    124656.95444    238243.94943  26848099.5024   26848104.0494
      -678.4694       -528.6774
 98  6 18  0  6  0.0100000  0  9G31G 3G 1G21G17G 8G23G29G 9
  -2360822.18844  -1744445.29443  26612239.7524   26612245.3304
       921.1884        717.8084
  -6281767.26746  -4702991.27046  24457144.9474   24457148.2284
     -1192.3754       -929.1234
  -9322231.34346  -7134328.19046  24468150.2524   24468154.9164
      1042.5474        812.3744
  -4211293.91846  -3185753.63746  24084303.1894   24084306.6234
      -915.6254       -713.4744
  21218998.23346  16509661.76745  25176482.4244   25176487.1004
     -3636.4844      -2833.6244
  -2009728.55545                  26911831.2214
      1053.1884
  13354556.89246  10422535.18146  24503669.2994   24503672.6274
     -2748.3754      -2141.5914
  -2651479.07545  -1937086.16144  26660227.4394   26660233.5454
      2007.2034       1564.0544
    145260.38045    254298.64043  26852021.7754   26852026.5454
      -695.2814       -541.7784
 98  6 18  0  6 30.0100000  0  9G31G 3G 1G21G17G 8G23G29G 9
  -2388237.93044  -1765808.16043  26607022.7134   26607028.2794
       906.5004        706.3644
  -6245711.21746  -4674895.65746  24464006.1744   24464009.9714
     -1211.5004       -944.0264
  -9353299.52346  -7158537.09146  24462237.9634   24462242.1004
      1028.4844        801.4164
  -4183741.00746  -3164283.82646  24089546.3224   24089549.6974
      -921.4374       -718.0034
  21328241.57846  16594786.43645  25197271.0644   25197276.3144
     -3646.3594      -2841.3194
  -2041230.95744                  26905835.7524
      1046.9224
  13437065.88346  10486827.89946  24519370.1034   24519373.6074
     -2752.1724      -2144.5504
  -2711600.27945  -1983933.60844  26648786.3534   26648792.1194
      2000.8754       1559.1234
    166354.88844    270735.97043  26856034.3304   26856038.9354
      -711.0624       -554.0754
 98  6 18  0  7  0.0100000  0  9G31G 3G 1G21G17G 8G23G29G 9
  -2415207.34443  -1786823.21443  26601890.3144   26601895.9984
       891.2344        694.4684
  -6209070.92646  -4646344.78946  24470978.7134   24470982.5214
     -1231.3914       -959.5254
  -9383936.33446  -7182409.86346  24456407.7834   24456412.3304
      1013.7034        789.8994
  -4155998.27046  -3142666.09146  24094825.7364   24094829.3104
      -928.2974       -723.3484
  21437774.28446  16680136.56045  25218114.3614   25218119.6824
     -3655.9374      -2848.7824
  -2072529.15044    -20310.97353  26899880.7054   26899885.9084
      1039.3594        809.8904
  13519693.44746  10551213.01246  24535093.8144   24535097.5764
     -2756.5004      -2147.9224
  -2771521.79745  -2030625.45844  26637383.8224   26637390.4204
      1993.7034       1553.5354
    187930.40844    287548.16243  26860140.1824   26860146.2994
      -727.6094       -566.9684
 98  6 18  0  7 30.0100000  0  9G31G 3G 1G21G17G 8G23G29G 9
  -2441722.86144  -1807484.56744  26596844.4554   26596848.8964
       875.8594        682.4884
  -6171824.69446  -4617321.76146  24478066.4944   24478069.7994
     -1252.4694       -975.9504
  -9414119.59746  -7205929.21546  24450664.1744   24450668.3934
       997.9844        777.6504
  -4128042.90446  -3120882.68046  24100145.2994   24100148.6504
      -936.0784       -729.4124
  21547600.57746  16765715.45745  25239013.8694   25239018.6744
     -3666.6724      -2857.1474
  -2103602.35544    -44523.73843  26893967.1434   26893971.9474
      1031.5164        803.7784
  13602446.14146  10615695.62846  24550841.3614   24550844.9944
     -2760.9534      -2151.3924
  -2831238.08545  -2077157.39444  26626019.7364   26626025.7364
      1986.8594       1548.2024
    209995.92144    304742.11543  26864339.4084   26864345.1624
      -744.0944       -579.8134
 98  6 18  0  8  0.0100000  0  9G31G 3G 1G21G17G 8G23G29G 9
  -2467764.97444  -1827777.08844  26591888.8854   26591892.8344
       860.2344        670.3134
  -6133938.63446  -4587800.15446  24485275.7914   24485279.4244
     -1273.1564       -992.0704
  -9443828.66646  -7229079.06346  24445010.5884   24445015.1704
       982.7504        765.7794
  -4099838.56146  -3098905.25446  24105512.2914   24105515.8074
      -944.1414       -735.6944
  21657769.37245  16851561.23245  25259977.8854   25259982.9594
     -3677.8594      -2865.8644
  -2134425.46343    -68541.59843  26888101.8464   26888107.6704
      1023.2344        797.3254
  13685341.66946  10680289.54746  24566615.6034   24566619.0724
     -2765.4374      -2154.8864
  -2890739.15245  -2123521.58244  26614697.1664   26614703.9164
      1979.7664       1542.6754
    232572.37045    322334.22243  26868635.5024   26868639.9784
      -761.0164       -592.9994
 98  6 18  0  8 30.0100000  0  9G31G 3G 1G21G17G 8G23G29G 9
  -2493375.22144  -1847733.06844  26587015.6354   26587020.9204
       846.6414        659.7204
  -6095458.43746  -4557815.59446  24492598.3074   24492601.9164
     -1292.8444      -1007.4114
  -9473116.97246  -7251901.05146  24439437.1434   24439441.5494
       969.1884        755.2114
  -4071424.34146  -3076764.28046  24110919.3534   24110922.8464
      -950.6254       -740.7474
  21768242.88345  16937644.45845  25281000.1434   25281006.1074
     -3687.5944      -2873.4504
  -2165029.50343    -92388.82943  26882277.4324   26882283.4554
      1016.5474        792.1144
  13768341.81446  10744964.98246  24582410.0334   24582413.1034
     -2768.5314      -2157.2974
  -2950064.20145  -2169748.65444  26603407.5724   26603414.1704
      1974.7344       1538.7544
    255623.14345    340295.90943  26873021.3694   26873026.4324
      -776.1564       -604.7974
 98  6 18  0  9  0.0100000  0  9G31G 3G 1G21G17G 8G23G29G 9
  -2518540.03644  -1867341.94244  26582226.7994   26582231.9904
       831.7194        648.0934
  -6056353.50446  -4527344.22246  24500039.7284   24500043.2214
     -1313.2814      -1023.3364
  -9501951.82846  -7274369.69946  24433949.9244   24433954.0254
       953.9534        743.3404
  -4042784.04946  -3054447.14746  24116369.3464   24116372.9554
      -957.8754       -746.3964
  21879045.00045  17023983.73645  25302085.4944   25302090.2994
     -3698.4374      -2881.8994
  -2195402.00843   -116055.59542  26876497.6744   26876504.4944
      1009.1724        786.3684
  13851485.03746  10809751.90946  24598231.7214   24598235.4474
     -2773.6254      -2161.2664
  -3009203.30945  -2215830.79644  26592153.5334   26592161.2364
      1968.5784       1533.9574
    279163.01545    358638.77543  26877500.9554   26877506.4754
      -792.5164       -617.5454
 98  6 18  0  9 30.0100000  0  9G31G 3G 1G21G17G 8G23G29G 9
  -2543270.64945  -1886612.49644  26577520.0494   26577524.9714
       816.8284        636.4894
  -6016660.98746  -4496414.99246  24507592.9784   24507596.6584
     -1332.9224      -1038.6404
  -9530350.74746  -7296498.66146  24428545.8384   24428549.9394
       939.3914        731.9934
  -4013949.44746  -3031978.61846  24121856.7054   24121859.9164
      -964.3754       -751.4614
  21990156.78745  17110564.31145  25323229.0964   25323234.2054
     -3709.0314      -2890.1544
  -2225587.12943   -139576.35843  26870753.7054   26870759.0144
      1003.0474        781.5954
  13934758.87646  10874640.61046  24614078.0254   24614081.7524
     -2777.9844      -2164.6634
  -3068178.41345  -2261785.16444  26580930.1974   26580935.1894
      1962.9694       1529.5864
    303169.59145    377345.23144  26882069.1504   26882073.6394
      -808.0474       -629.6474
 98  6 18  0 10  0.0100000  0  9G31G 3G 1G21G17G 8G23G29G 9
  -2567546.12345  -1905528.42944  26572902.2214   26572906.6154
       801.8914        624.8504
  -5976383.41246  -4465029.87546  24515257.5644   24515261.2914
     -1351.9844      -1053.4944
  -9558324.38546  -7318296.23646  24423222.7444   24423226.8464
       925.7504        721.3644
  -3984926.47746  -3009363.30846  24127379.6744   24127383.1194
      -970.1094       -755.9294
  22101572.29645  17197381.55845  25344431.1114   25344435.8104
     -3718.3284      -2897.3994
  -2255581.58743   -162948.54542  26865045.9634   26865050.6854
       996.8914        776.7984
  14018165.88846  10939633.07946  24629949.9394   24629953.1974
     -2782.1724      -2167.9264
  -3126976.99645  -2307602.02045  26569741.4394   26569746.8074
      1957.0474       1524.9724
    327648.02844    396419.41844  26886727.8304   26886733.5144
      -823.5474       -641.7254
 98  6 18  0 10 30.0100000  0  9G31G 3G 1G21G17G 8G23G29G 9
  -2591362.41745  -1924086.52644  26568369.4394   26568373.6464
       786.2664        612.6754
  -5935508.90446  -4433179.61646  24523035.6744   24523039.1664
     -1372.7194      -1069.6514
  -9585875.66946  -7339764.70946  24417979.7054   24417984.0294
       911.2344        710.0534
  -3955718.72846  -2986604.00746  24132937.8224   24132941.2214
      -976.7504       -761.1044
  22213283.01745  17284428.83745  25365688.5724   25365693.2484
     -3728.7504      -2905.5194
  -2285384.43443   -186171.44243  26859374.6034   26859380.1234
       990.3284        771.6844
  14101710.93846  11004733.11146  24645848.0884   24645851.5104
     -2787.1414      -2171.7984
  -3185583.25145  -2353269.01444  26558588.6114   26558594.7284
      1950.3754       1519.7734
    352603.89844    415865.58143  26891475.9944   26891481.4784
      -840.0474       -654.5824
 98  6 18  0 11  0.0100000  0  9G31G 3G 1G21G17G 8G23G29G 9
  -2614726.83745  -1942292.54244  26563923.2054   26563926.2994
       771.3914        601.0844
  -5894030.64046  -4400858.90246  24530928.6824   24530932.2684
     -1392.4224      -1085.0044
  -9613007.26846  -7360906.15546  24412816.6504   24412820.8224
       897.7664        699.5584
  -3926326.76046  -2963701.16946  24138530.5104   24138533.7214
      -982.7664       -765.7914
  22325286.28345  17371704.06345  25387002.3144   25387007.1784
     -3738.0624      -2912.7764
  -2315008.23144   -209254.82143  26853737.6504   26853742.5024
       984.6094        767.2284
  14185388.53646  11069936.42446  24661771.4164   24661775.0494
     -2791.1254      -2174.9034
  -3244002.89945  -2398790.59245  26547472.1114   26547478.2054
      1944.5004       1515.1954
    378052.99445    435696.08443  26896319.6274   26896325.7214
      -856.6254       -667.5004
 98  6 18  0 11 30.0100000  0  9G31G 3G 1G21G17G 8G23G29G 9
  -2637627.97245  -1960137.58444  26559565.2754   26559569.9164
       756.3134        589.3344
  -5851942.15646  -4368062.68846  24538938.0254   24538941.4354
     -1412.6254      -1100.7474
  -9639727.21246  -7381726.83046  24407732.2054   24407736.4714
       884.4534        689.1844
  -3896729.03846  -2940637.99346  24144162.5724   24144165.9354
      -989.5314       -771.0634
  22437586.34745  17459210.56845  25408372.0254   25408376.9824
     -3747.7194      -2920.3004
  -2344437.38644   -232186.49443  26848137.4164   26848143.0764
       978.0164        762.0904
  14269191.53946  11135237.45046  24677718.7834   24677722.6854
     -2794.7814      -2177.7524
  -3302241.36245  -2444171.02545  26536389.0414   26536395.2404
      1938.9694       1510.8854
    404016.32245    455927.33243  26901259.7524   26901264.8854
      -873.3284       -680.5154
 98  6 18  0 12  0.0100000  0  9G31G 3G 1G21G17G 8G23G29G 9
  -2660080.71944  -1977633.17144  26555292.6114   26555296.7604
       741.3754        577.6954
  -5809243.03946  -4334790.65446  24547063.2684   24547066.9354
     -1433.3284      -1116.8794
  -9666044.22546  -7402233.52146  24402724.1274   24402728.1824
       870.5474        678.3484
  -3866925.71346  -2917414.59846  24149834.3224   24149837.5804
      -996.7344       -776.6764
  22550176.70845  17546943.29045  25429798.1894   25429802.6074
     -3757.7504      -2928.1174
  -2373656.29244   -254954.38843  26842577.0494   26842581.9824
       970.7814        756.4534
  14353108.86646  11200627.57546  24693687.5414   24693690.9394
     -2799.0004      -2181.0394
  -3360308.09745  -2489417.59145  26525339.7524   26525346.4084
      1932.8754       1506.1364
    430485.37245    476552.59543  26906296.5804   26906301.7484
      -890.5314       -693.9204
 98  6 18  0 12 30.0100000  0  9G31G 3G 1G21G17G 8G23G29G 9
  -2682086.81744  -1994780.73244  26551104.6974   26551108.8694
       725.2814        565.1544
  -5765923.69146  -4301035.32346  24555307.0334   24555310.4434
     -1455.0004      -1133.7664
  -9691936.06946  -7422408.91646  24397797.0184   24397800.9324
       855.1094        666.3194
  -3836904.76046  -2894021.63146  24155546.8304   24155550.3344
     -1005.0474       -783.1534
  22663079.31345  17634919.31845  25451282.4714   25451287.2874
     -3769.5004      -2937.2734
  -2402659.62944   -277554.28843  26837057.5804   26837062.0104
       962.2664        749.8174
  14437147.74146  11266112.41046  24709679.5574   24709683.0724
     -2803.9534      -2184.8994
  -3418199.83045  -2534527.83844  26514323.0414   26514329.1464
      1926.2664       1500.9864
    457466.71245    497577.07544  26911431.3304   26911436.7444
      -908.6564       -708.0444
 98  6 18  0 13  0.0100000  0  9G31G 3G 1G21G17G 8G23G29G 9
  -2703625.21544  -2011563.86444  26547006.4554   26547011.3304
       709.8914        553.1624
  -5721980.27446  -4266793.70246  24563668.9084   24563672.6234
     -1475.0784      -1149.4124
  -9717377.32246  -7442233.20046  24392955.6034   24392959.5294
       840.4064        654.8624
  -3806656.71246  -2870451.70646  24161302.7364   24161306.0764
     -1012.0314       -788.5964
  22776314.75145  17723154.69745  25472830.4714   25472835.5684
     -3780.1564      -2945.5764
  -2431416.95145   -299962.50643  26831585.5644   26831589.1154
       954.2974        743.6084
  14521317.20746  11331698.99846  24725696.6194   24725700.2524
     -2807.8444      -2187.9304
  -3475910.49145  -2579496.97445  26503340.4004   26503345.8854
      1920.5164       1496.5064
    484972.11945    519009.93143  26916664.2684   26916668.6974
      -925.4374       -721.1204
 98  6 18  0 13 30.0100000  0  9G31G 3G 1G21G17G 8G23G29G 9
  -2724684.86344  -2027973.94544  26542998.7054   26543002.4674
       694.5004        541.1694
  -5677425.72546  -4232075.88046  24572147.2754   24572151.1894
     -1494.8284      -1164.8014
  -9742362.14446  -7461701.82746  24388201.0104   24388205.0184
       825.5474        643.2834
  -3776197.95346  -2846717.58946  24167099.2914   24167102.3614
     -1018.0004       -793.2474
  22889887.17145  17811652.65945  25494442.7604   25494447.3774
     -3790.8754      -2953.9294
  -2459922.87444   -322174.84543  26826160.6824   26826166.2484
       946.5004        737.5324
  14605606.98746  11397379.32946  24741736.3224   24741739.9204
     -2811.0314      -2190.4144
  -3533429.48445  -2624316.75944  26492394.6194   26492400.2914
      1914.2034       1491.5874
    512976.76544    540831.77343  26921994.0494   26921999.8614
      -941.0624       -733.2954
 98  6 18  0 14  0.0100000  0  9G31G 3G 1G21G17G 8G23G29G 9
  -2745272.98744  -2044016.60044  26539080.4864   26539083.7214
       678.4534        528.6654
  -5632265.64946  -4196886.21946  24580741.0884   24580744.8144
     -1515.3594      -1180.8004
  -9766885.51046  -7480810.89146  24383534.4634   24383538.2714
       809.8444        631.0474
  -3745561.55246  -2822845.04546  24172929.1274   24172932.1974
     -1023.9694       -797.8984
  23003791.64846  17900409.34845  25516118.3854   25516122.8734
     -3802.2814      -2962.8174
  -2488186.99845   -344198.72843  26820781.8224   26820786.9674
       938.2814        731.1284
  14690006.95746  11463145.53346  24757797.1824   24757800.6154
     -2815.1414      -2193.6164
  -3590732.74145  -2668968.44744  26481490.7214   26481496.7094
      1906.4694       1485.5604
    541467.21445    563032.16244  26927416.1584   26927421.4084
      -957.9534       -746.4574
 98  6 18  0 14 30.0100000  0  9G31G 3G 1G21G17G 8G23G29G 9
  -2765402.66544  -2059701.99844  26535249.9164   26535255.7524
       662.6414        516.3434
  -5586523.57446  -4161243.04746  24589445.4394   24589449.0844
     -1534.8284      -1195.9704
  -9790969.63146  -7499577.68146  24378951.4784   24378955.5804
       794.9844        619.4684
  -3714778.85246  -2798858.51046  24178786.9164   24178790.2794
     -1028.9534       -801.7824
  23118004.82545  17989406.59545  25537852.1664   25537857.1114
     -3812.6724      -2970.9134
  -2516226.87345   -366047.90543  26815446.7134   26815451.5534
       930.2034        724.8344
  14774496.62546  11528981.63746  24773875.0254   24773878.6824
     -2818.3444      -2196.1124
  -3647835.19145  -2713463.70045  26470624.3694   26470630.6034
      1899.5004       1480.1304
    570442.32345    585610.21244  26932929.1034   26932934.6934
      -974.5314       -759.3754
 98  6 18  0 15  0.0100000  0  9G31G 3G 1G21G17G 8G23G29G 9
  -2785049.38745  -2075011.08544  26531511.2754   26531516.4084
       646.5314        503.7914
  -5540196.94046  -4125144.38246  24598261.0254   24598264.7874
     -1554.1564      -1211.0314
  -9814599.17746  -7517990.26546  24374454.8224   24374458.8654
       779.8284        607.6584
  -3683838.54446  -2774749.15546  24184674.3694   24184677.6974
     -1034.3284       -805.9704
  23232533.54145  18078649.70545  25559646.0334   25559650.5454
     -3823.1564      -2979.0834
  -2544022.90545   -387707.07143  26810157.1664   26810162.4164
       922.2974        718.6734
  14859102.41046  11594908.20946  24789974.9554   24789978.4944
     -2822.5314      -2199.3754
  -3704712.90145  -2757783.78244  26459800.7284   26459806.5184
      1891.6724       1474.0304
    599926.38345    608584.84843  26938540.0104   26938545.9394
      -991.6094       -772.6834
 98  6 18  0 15 30.0100000  0  9G31G 3G 1G21G17G 8G23G29G 9
  -2804215.81345  -2089945.92444  26527864.3464   26527868.2484
       630.6724        491.4334
  -5493290.23846  -4088593.70846  24607187.2754   24607191.0254
     -1573.5004      -1226.1044
  -9837783.21946  -7536055.69846  24370042.9164   24370046.8894
       765.2814        596.3234
  -3652731.04246  -2750509.52346  24190594.2604   24190597.5764
     -1040.1564       -810.5114
  23347376.82745  18168137.95345  25581499.7444   25581504.3384
     -3833.4844      -2987.1314
  -2571578.42945   -409178.81444  26804913.2214   26804919.5144
       914.0944        712.2814
  14943823.70446  11660924.79646  24806096.8934   24806100.7134
     -2826.3594      -2202.3584
  -3761351.93445  -2801917.88545  26449022.2444   26449027.7754
      1883.6094       1467.7484
    629920.47545    631956.94143  26944247.9554   26944252.7954
     -1008.6724       -785.9784
 98  6 18  0 16  0.0100000  0  9G31G 3G 1G21G17G 8G23G29G 9
  -2822909.74745  -2104512.58044  26524306.9554   26524311.2094
       614.8914        479.1364
  -5445807.97846  -4051594.55446  24616222.7444   24616226.2604
     -1592.6094      -1240.9944
  -9860540.52146  -7553788.60546  24365712.4714   24365716.5494
       751.2664        585.4024
  -3621442.70146  -2726128.98246  24196547.8464   24196551.3034
     -1046.4844       -815.4424
  23462520.70845  18257860.40645  25603411.1354   25603415.7404
     -3843.4224      -2994.8744
  -2598884.25044   -430455.99943  26799716.9004   26799722.3144
       905.5164        705.5974
  15028671.22346  11727039.73046  24822242.8074   24822246.4044
     -2830.8284      -2205.8404
  -3817755.44145  -2845868.48845  26438289.2134   26438293.9244
      1876.1724       1461.9524
    660431.70945    655731.96944  26950053.1354   26950058.3734
     -1026.0314       -799.5054
 98  6 18  0 16 30.0100000  0  9G31G 3G 1G21G17G 8G23G29G 9
  -2841135.21345  -2118714.19445  26520838.5184   26520843.1584
       599.4384        467.0944
  -5397762.96146  -4014156.88146  24625365.4864   24625369.4354
     -1611.1874      -1255.4714
  -9882883.71646  -7571198.84046  24361460.5494   24361464.4164
       737.6564        574.7974
  -3589965.18346  -2701601.03346  24202538.0644   24202541.3104
     -1052.7034       -820.2884
  23577953.51145  18347808.00645  25625377.2524   25625382.4434
     -3852.8594      -3002.2284
  -2625937.66345   -451536.47643  26794569.1744   26794572.7364
       897.4844        699.3384
  15113645.45246  11793253.41446  24838413.0574   24838416.5144
     -2834.7504      -2208.8964
  -3873953.67845  -2889659.11845  26427594.2754   26427600.2054
      1869.6414       1456.8634
    691449.13645    679901.41843  26955956.0574   26955961.1194
     -1042.3754       -812.2404
 98  6 18  0 17  0.0100000  0  9G31G 3G 1G21G17G 8G23G29G 9
  -2858887.76645  -2132547.32345  26517460.2364   26517465.0064
       583.5634        454.7244
  -5349143.11646  -3976271.29046  24634617.6034   24634621.3074
     -1630.8284      -1270.7754
  -9904812.59746  -7588286.23046  24357287.6584   24357291.4674
       723.7974        563.9984
  -3558286.44246  -2676916.29146  24208566.2524   24208569.5574
     -1059.8444       -825.8524
  23693685.95745  18437989.09445  25647400.9244   25647405.6114
     -3863.1254      -3010.2274
  -2652742.66844   -472423.43343  26789467.6584   26789473.1314
       888.7664        692.5454
  15198747.29746  11859566.53246  24854607.3464   24854610.8504
     -2839.1564      -2212.3304
  -3929940.81345  -2933285.26045  26416940.5414   26416946.3534
      1862.2194       1451.0804
    722964.48845    704458.90245  26961953.0884   26961963.9784
     -1059.2194       -825.3654
 98  6 18  0 17 30.0100000  0  9G31G 3G 1G21G17G 8G23G29G 9
  -2876179.89245  -2146021.65445  26514169.8144   26514173.2364
       568.6094        443.0724
  -5299936.44746  -3937928.43046  24643980.9864   24643984.8774
     -1650.2194      -1285.8854
  -9926343.62246  -7605063.59246  24353190.2054   24353194.1784
       710.8914        553.9414
  -3526408.53046  -2652076.34746  24214632.3934   24214635.7444
     -1065.9224       -830.5884
  23809704.72745  18528393.29645  25669478.1194   25669482.8654
     -3871.9224      -3017.0824
  -2679291.16544   -493110.46143  26784415.5804   26784422.5334
       880.6884        686.2504
  15283957.61246  11925964.17346  24870822.2284   24870825.8854
     -2842.2974      -2214.7774
  -3985723.30245  -2976751.94945  26406325.2054   26406330.9244
      1856.1884       1446.3804
    754968.90545    729397.43043  26968043.7684   26968049.6624
     -1075.0474       -837.6994
 98  6 18  0 18  0.0100000  0  9G31G 3G 1G21G17G 8G23G29G 9
  -2892986.32445  -2159117.55045  26510971.1974   26510975.0534
       552.7664        430.7264
  -5250110.02046  -3899102.64846  24653462.6664   24653466.3934
     -1670.7194      -1301.8594
  -9947436.21046  -7621499.31946  24349176.2684   24349180.0294
       696.0164        542.3504
  -3494314.50446  -2627068.00446  24220739.5494   24220743.1824
     -1072.7034       -835.8734
  23926021.88145  18619030.00645  25691612.2914   25691617.0964
     -3881.7974      -3024.7774
  -2705570.57344   -513587.82243  26779414.6274   26779420.1584
       872.2194        679.6514
  15369303.67046  11992467.58846  24887062.9394   24887066.2684
     -2846.4374      -2218.0034
  -4041302.21745  -3020059.94145  26395748.7054   26395755.3034
      1849.9694       1441.5344
    787492.99245    754740.91544  26974232.7914   26974236.8694
     -1092.2974       -851.1404
 98  6 18  0 18 30.0100000  0  9G31G 3G 1G21G17G 8G23G29G 9
  -2909335.20145  -2171856.91345  26507860.5254   26507864.0294
       536.5164        418.0644
  -5199685.13846  -3859810.53846  24663058.2914   24663062.2404
     -1691.6254      -1318.1494
  -9968092.35946  -7637594.95946  24345245.7524   24345249.5494
       680.4224        530.1994
  -3462041.11646  -2601919.89546  24226881.1664   24226884.6354
     -1079.4224       -841.1084
  24042625.84345  18709890.19545  25713801.6034   25713806.5024
     -3892.4534      -3033.0804
  -2731623.85844   -533889.00143  26774456.3694   26774461.7254
       864.0944        673.3204
  15454745.09446  12059045.31146  24903322.0104   24903325.3264
     -2850.2504      -2220.9744
  -4096707.38145  -3063232.61245  26385205.5334   26385210.9594
      1842.9384       1436.0554
    820516.96945    780473.91444  26980517.2914   26980521.8854
     -1109.9844       -864.9234
 98  6 18  0 19  0.0110000  0  9G31G 3G 1G21G17G 8G23G29G 9
  -2925208.14945  -2184225.39745  26504840.0224   26504844.3584
       521.4694        406.3394
  -5148643.09046  -3820037.51646  24672771.4444   24672775.2534
     -1711.2814      -1333.4664
  -9988290.68446  -7653333.85946  24341402.2024   24341406.0934
       665.6884        518.7184
  -3429580.42846  -2576625.83746  24233058.1634   24233061.4094
     -1084.7344       -845.2484
  24159543.09145  18800994.50545  25736049.9524   25736054.8274
     -3902.0004      -3040.5194
  -2757437.35244   -554003.29643  26769544.1084   26769550.1554
       856.4384        667.3544
  15540293.82246  12125706.64946  24919601.4834   24919605.3744
     -2853.0784      -2223.1784
  -4151904.43245  -3106243.08545  26374701.4914   26374706.3664
      1836.5944       1431.1124
    854062.60345    806613.45543  26986900.3274   26986905.8114
     -1126.5784       -877.8534
 98  6 18  0 19 30.0110000  0  9G31G 3G 1G21G17G 8G23G29G 9
  -2940611.02445  -2196227.63445  26501908.9524   26501913.1944
       505.4694        393.8724
  -5096994.22446  -3779791.65746  24682599.7414   24682603.4214
     -1731.7194      -1349.3914
 -10008011.84946  -7668700.94746  24337649.2494   24337653.1514
       649.1884        505.8604
  -3396950.08046  -2551199.58446  24239267.5774   24239270.8004
     -1090.3754       -849.6434
  24276764.66045  18892335.95445  25758356.5694   25758361.8664
     -3912.6724      -3048.8354
  -2783006.28544   -573927.06044  26764679.8274   26764683.4364
       848.4534        661.1324
  15625938.53746  12192442.78546  24935898.7964   24935902.5224
     -2856.4844      -2225.8324
  -4206897.06645  -3149094.31345  26364236.8904   26364242.4094
      1829.7814       1425.8044
    888124.36244    833155.10143  26993382.1474   26993388.4404
     -1144.1094       -891.5144
 98  6 18  0 20  0.0110000  0  9G31G 3G 1G21G17G 8G23G29G 9
  -2955536.96645  -2207858.19645  26499068.3824   26499072.2264
       488.8914        380.9544
  -5044749.85746  -3739081.76746  24692541.6404   24692545.4484
     -1751.9374      -1365.1464
 -10027241.68646  -7683685.18246  24333989.8744   24333993.7064
       632.2034        492.6264
  -3364161.41346  -2525649.96446  24245507.0544   24245510.4054
     -1096.1874       -854.1724
  24394304.91545  18983925.72145  25780724.1014   25780729.2684
     -3924.0784      -3057.7234
  -2808336.67244   -593664.92344  26759858.8044   26759864.1014
       839.3914        654.0714
  15711680.69946  12259254.85346  24952214.9444   24952218.6944
     -2860.2974      -2228.8034
  -4261686.06245  -3191786.81445  26353810.3514   26353816.2334
      1821.9384       1419.6924
    922705.14844    860101.21243  26999962.5694   26999967.7844
     -1161.8914       -905.3694
 98  6 18  0 20 30.0110000  0  9G31G 3G 1G21G17G 8G23G29G 9
  -2969961.90045  -2219098.35945  26496323.6944   26496328.2414
       472.6564        368.3044
  -4991901.70746  -3697901.40046  24702598.1864   24702601.8904
     -1771.3594      -1380.2804
 -10045976.59346  -7698283.76146  24330424.6554   24330428.5934
       616.7034        480.5484
  -3331201.87246  -2499967.19146  24251778.7104   24251782.0154
     -1101.3594       -858.2024
  24512182.26745  19075778.15745  25803155.0934   25803160.1084
     -3934.4064      -3065.7714
  -2833383.69344   -613181.96444  26755092.2964   26755098.0154
       830.1884        646.8994
  15797530.22446  12326150.57446  24968552.0074   24968555.4764
     -2863.0624      -2230.9584
  -4316231.76645  -3234289.77445  26343431.2334   26343437.0694
      1814.4224       1413.8354
    957810.50645    887456.03243  27006642.4604   27006647.1594
     -1178.5944       -918.3854
 98  6 18  0 21  0.0110000  0  9G31G 3G 1G21G17G 8G23G29G 9
  -2983894.36945  -2229954.79045  26493672.2414   26493676.0734
       456.7664        355.9214
  -4938465.76446  -3656263.01446  24712766.9914   24712770.7064
     -1790.4064      -1395.1224
 -10064237.75046  -7712513.18246  24326949.5854   24326953.5224
       601.2194        468.4824
  -3298066.25646  -2474147.20946  24258084.3514   24258087.7844
     -1107.2194       -862.7684
  24630371.26745  19167873.43645  25825645.9364   25825651.4444
     -3944.3444      -3073.5154
  -2858134.95344   -632468.57944  26750381.8824   26750387.8234
       820.5314        639.3754
  15883473.15246  12393119.08546  24984906.3194   24984909.7764
     -2865.9224      -2233.1864
  -4370550.48045  -3276615.85345  26333093.9294   26333099.6244
      1807.4694       1408.4174
    993421.15045    915204.62844  27013418.9054   27013424.7534
     -1194.8754       -931.0714
 98  6 18  0 21 30.0110000  0  9G31G 3G 1G21G17G 8G23G29G 9
  -2997335.79845  -2240428.63245  26491114.3974   26491119.6594
       439.2974        342.3094
  -4884447.18746  -3614170.63946  24723045.8744   24723049.6944
     -1810.7344      -1410.9624
 -10082023.75146  -7726372.36346  24323565.2024   24323568.7534
       584.7344        455.6374
  -3264733.45546  -2448173.59546  24264427.6474   24264430.7764
     -1114.9224       -868.7704
  24748869.94345  19260210.01145  25848195.7264   25848200.4364
     -3955.3754      -3082.1104
  -2882589.43344   -651523.91143  26745728.3514   26745734.1514
       809.8444        631.0474
  15969512.44046  12460162.66846  25001279.1244   25001282.6754
     -2870.0004      -2236.3644
  -4424651.71745  -3318772.47645  26322798.7654   26322803.7804
      1799.2194       1401.9894
   1029537.52245    943347.29943  27020291.3434   27020296.8394
     -1212.8124       -945.0494
 98  6 18  0 22  0.0110000  0  9G31G 3G 1G21G17G 8G23G29G 9
  -3010282.66945  -2250517.08145  26488650.8434   26488655.3084
       423.9064        330.3174
  -4829855.02146  -3571631.29146  24733434.9134   24733438.4994
     -1828.6874      -1424.9514
 -10099358.38546  -7739879.81346  24320266.4524   24320270.2144
       570.9384        444.8864
  -3231196.35046  -2422040.76746  24270809.4444   24270812.4334
     -1120.9694       -873.4824
  24867654.14145  19352769.10245  25870799.2574   25870805.0464
     -3963.5314      -3088.4664
  -2906749.29145   -670349.67544  26741131.4214   26741137.1404
       800.8914        624.0714
  16055646.62046  12527280.20546  25017670.0384   25017673.3664
     -2872.0784      -2237.9834
  -4478529.16145  -3360754.72145  26312546.5304   26312551.6404
      1792.5784       1396.8144
   1066158.42045    971883.12443  27027260.2964   27027263.9054
     -1228.5314       -957.2974
 98  6 18  0 22 30.0110000  0  9G31G 3G 1G21G17G 8G23G29G 9
  -3022761.03645  -2260240.43745  26486276.2184   26486279.6864
       408.0474        317.9594
  -4774713.62646  -3528663.97546  24743928.1014   24743931.4874
     -1847.3914      -1439.5254
 -10116275.05546  -7753061.57646  24317047.4294   24317050.8394
       556.7344        433.8194
  -3197463.95347  -2395755.76346  24277228.4444   24277231.1514
     -1127.8444       -878.8394
  24986688.58445  19445523.16845  25893450.9684   25893455.7844
     -3972.2194      -3095.2354
  -2930640.94645   -688966.45444  26736585.0544   26736589.5544
       791.9384        617.0944
  16141842.43246  12594445.77546  25034072.6014   25034075.7064
     -2874.3914      -2239.7854
  -4532198.06845  -3402574.47645  26302333.1554   26302337.4684
      1785.3444       1391.1774
   1103260.37844   1000793.76544  27034321.4524   27034326.8084
     -1245.0474       -970.1664
 98  6 18  0 23  0.0110000  0  9G31G 3G 1G21G17G 8G23G29G 9
  -3034765.99145  -2269594.89545  26483991.8354   26483996.4764
       391.6564        305.1874
  -4719012.74146  -3485260.70846  24754527.5614   24754530.8664
     -1866.6414      -1454.5254
 -10132761.12346  -7765907.81446  24313910.1714   24313913.7334
       541.7664        422.1554
  -3163531.64947  -2369315.00046  24283685.6864   24283688.1834
     -1134.7344       -884.2094
  25105985.74545  19538481.96045  25916152.2804   25916156.9444
     -3981.5474      -3102.5044
  -2954270.16445   -707378.72045  26732088.3354   26732092.4134
       782.7344        609.9234
  16228118.03146  12661673.49546  25050490.4684   25050493.0934
     -2877.9534      -2242.5614
  -4585645.57745  -3444221.70545  26292163.0224   26292168.9174
      1777.2034       1384.8344
   1140863.59345   1030094.99844  27041476.4214   27041481.0734
     -1262.3914       -983.6814
 98  6 18  0 23 30.0110000  0  9G31G 3G 1G21G17G 8G23G29G 9
  -3046282.72045  -2278568.92945  26481799.6244   26481803.0694
       375.6414        292.7074
  -4662735.58346  -3441408.38946  24765236.7724   24765240.0074
     -1885.5944      -1469.2944
 -10148804.50946  -7778409.10446  24310857.0694   24310860.9604
       527.4064        410.9664
  -3129415.84247  -2342731.23346  24290177.6014   24290180.0614
     -1139.9374       -888.2634
  25225555.05545  19631652.79445  25938906.3904   25938911.1714
     -3990.0474      -3109.1274
  -2977625.42745   -725577.56145  26727644.0694   26727647.9364
       773.7974        602.9594
  16314492.65046  12728978.38246  25066926.6634   25066929.5464
     -2880.6564      -2244.6674
  -4638846.18445  -3485676.56245  26282038.6554   26282043.8114
      1769.0944       1378.5154
   1178987.20545   1059801.74244  27048731.0304   27048735.0154
     -1279.5624       -997.0624
